Date StartTime U_cm/s V_cm/s W_cm/s Ustd_cm/s Vstd_cm/s Wstd_cm/s Uvar_(cm/s)^2 Vvar_(cm/s)^2 Wvar_(cm/s)^2 KE_(m/s)^2 TurbulentKE_(m/s)^2 HorizWindSpeed_cm/s FrictionSpeec_cm/s DragCoef SpeedOfSound_m/s SonicTemperature_C Pressure_mb 
06/04/2014  00:00:00     -166.310      -47.125      -11.609       46.085       43.252       22.192     2123.831     1870.744      492.464        1.725        0.224      172.857       15.904        0.008      343.088       18.953      859.632
06/04/2014  00:01:00     -157.226      -57.416       -1.591       63.849       53.221       27.397     4076.747     2832.504      750.618        1.784        0.383      167.382       16.070        0.009      343.145       19.048      859.625
06/04/2014  00:02:00     -224.667      -91.022       -6.911       94.788       73.215       36.991     8984.856     5360.497     1368.334        3.726        0.786      242.405       35.297        0.021      343.061       18.904      859.606
06/04/2014  00:03:00     -226.226      -67.548        0.287       94.403       68.580       47.634     8911.999     4703.256     2268.967        3.581        0.794      236.095       48.054        0.041      343.048       18.883      859.590
06/04/2014  00:04:00     -142.819      -84.850      -10.294       93.874       66.139       49.859     8812.323     4374.415     2485.959        2.168        0.784      166.122       41.721        0.063      343.049       18.884      859.581
06/04/2014  00:05:00     -181.907      -79.789       -2.187      110.926       79.209       46.158    12304.559     6274.023     2130.604        3.008        1.035      198.636       44.276        0.050      343.061       18.905      859.568
06/04/2014  00:06:00     -166.157     -140.942       -0.263      113.512      107.760       62.540    12884.875    11612.285     3911.261        3.794        1.420      217.882       74.844        0.118      343.059       18.900      859.565
06/04/2014  00:07:00     -175.899     -105.873        0.369       92.727       90.944       47.698     8598.217     8270.821     2275.134        3.064        0.957      205.303       43.041        0.044      343.089       18.950      859.570
06/04/2014  00:08:00      -78.643      -33.634        6.043       80.664       54.187       36.068     6506.711     2936.182     1300.902        0.905        0.537       85.533       28.662        0.112      342.999       18.801      859.574
06/04/2014  00:09:00     -226.873     -113.915       -8.864       83.602       67.256       52.173     6989.268     4523.357     2722.067        3.938        0.712      253.866       49.300        0.038      343.029       18.849      859.592
06/04/2014  00:10:00     -176.759      -80.259      -12.021       94.434       71.511       42.101     8917.816     5113.862     1772.522        2.681        0.790      194.126       53.008        0.075      343.017       18.830      859.601
06/04/2014  00:11:00     -157.382      -28.869      -10.272       75.128       51.645       34.954     5644.263     2667.255     1221.748        1.762        0.477      160.007       36.294        0.051      342.941       18.701      859.604
06/04/2014  00:12:00     -187.557      -29.938      -15.682       68.905       46.265       29.697     4747.851     2140.476      881.906        2.204        0.389      189.932       31.891        0.028      342.971       18.753      859.614
06/04/2014  00:13:00     -159.361      -69.071       -3.872       50.641       45.912       28.318     2564.504     2107.889      801.899        1.783        0.274      173.686       30.071        0.030      342.911       18.651      859.619
06/04/2014  00:14:00     -151.155     -118.621       -6.453       82.865       58.717       38.889     6866.638     3447.688     1512.359        2.439        0.591      192.143       34.408        0.032      342.908       18.645      859.627
06/04/2014  00:15:00     -158.306      -91.911       -1.199       78.812       85.630       47.304     6211.317     7332.520     2237.631        2.464        0.789      183.053       44.963        0.060      342.991       18.786      859.613
06/04/2014  00:16:00     -212.275     -110.317       -7.105       84.551       57.415       36.004     7148.839     3296.446     1296.319        3.451        0.587      239.229       34.684        0.021      343.005       18.807      859.621
06/04/2014  00:17:00      -98.729      -22.023        8.488       64.724       51.150       35.405     4189.147     2616.336     1253.500        0.918        0.403      101.156       32.940        0.106      342.883       18.604      859.639
06/04/2014  00:18:00     -171.320     -111.782       -7.874      115.930       71.308       38.553    13439.674     5084.887     1486.321        3.096        1.001      204.563       37.851        0.034      342.985       18.775      859.662
06/04/2014  00:19:00     -155.724     -136.750      -17.467       78.561       78.057       40.447     6171.885     6092.821     1635.976        2.858        0.695      207.245       30.930        0.022      343.020       18.833      859.671
06/04/2014  00:20:00      -97.334      -74.192       -4.912       57.779       65.826       39.210     3338.468     4333.028     1537.391        1.210        0.460      122.386       28.964        0.056      342.967       18.745      859.675
06/04/2014  00:21:00     -118.876      -51.117        4.841       66.163       45.264       35.569     4377.577     2048.808     1265.145        1.223        0.385      129.400       38.945        0.091      342.939       18.698      859.679
06/04/2014  00:22:00      -88.648      -34.924        6.017       67.431       33.413       21.693     4546.945     1116.447      470.600        0.762        0.307       95.280       20.483        0.046      342.860       18.566      859.687
06/04/2014  00:23:00      -56.487      -36.257        0.188       41.487       44.003       26.157     1721.185     1936.272      684.184        0.442        0.217       67.122       23.985        0.128      342.875       18.590      859.679
06/04/2014  00:24:00      -35.625      -53.076       -1.525       62.928       59.614       20.978     3959.969     3553.802      440.079        0.602        0.398       63.923       10.231        0.026      342.824       18.504      859.669
06/04/2014  00:25:00      -80.385      -35.000        1.597       43.829       53.474       29.521     1921.012     2859.427      871.463        0.667        0.283       87.674       25.172        0.082      342.914       18.656      859.679
06/04/2014  00:26:00      -87.439      -26.547        6.042       60.162       80.754       31.443     3619.489     6521.203      988.642        0.976        0.556       91.380       22.828        0.062      342.798       18.459      859.698
06/04/2014  00:27:00     -116.928      -16.575       -4.012       75.828       38.646       37.222     5749.897     1493.492     1385.514        1.129        0.431      118.097       36.079        0.093      342.733       18.348      859.711
06/04/2014  00:28:00     -175.891      -13.904      -11.559       51.112       47.644       28.528     2612.452     2269.942      813.839        1.848        0.285      176.439       28.016        0.025      342.785       18.436      859.716
06/04/2014  00:29:00     -180.686      -73.763       -7.184       60.948       59.483       27.678     3714.709     3538.255      766.061        2.308        0.401      195.162       27.591        0.020      342.755       18.382      859.720
06/04/2014  00:30:00     -137.487      -77.171        2.652       59.149       37.824       24.189     3498.616     1430.663      585.129        1.519        0.276      157.665       26.397        0.028      342.714       18.317      859.738
06/04/2014  00:31:00     -155.871      -59.557        7.179       65.492       78.915       38.759     4289.186     6227.553     1502.298        1.995        0.601      166.862       34.170        0.042      342.747       18.371      859.740
06/04/2014  00:32:00     -158.531      -72.284        4.702      100.761       72.665       42.451    10152.810     5280.202     1802.086        2.380        0.862      174.233       41.735        0.057      342.778       18.423      859.730
06/04/2014  00:33:00     -122.183      -18.700        1.687       57.556       53.802       34.606     3312.728     2894.660     1197.544        1.134        0.370      123.606       35.255        0.081      342.799       18.461      859.716
06/04/2014  00:34:00     -158.074      -58.459       -5.946       49.617       53.068       26.067     2461.835     2816.193      679.493        1.720        0.298      168.538       18.189        0.012      342.779       18.425      859.720
06/04/2014  00:35:00     -231.593      -12.291      -12.551       72.411       84.343       45.523     5243.313     7113.760     2072.346        3.418        0.721      231.919       45.695        0.039      342.822       18.498      859.720
06/04/2014  00:36:00     -206.267      -52.758      -15.279      112.171       54.294       37.349    12582.261     2947.840     1394.922        3.124        0.846      212.907       51.939        0.060      342.781       18.428      859.705
06/04/2014  00:37:00     -104.540      -52.562       -0.576       42.592       36.245       28.111     1814.074     1313.706      790.218        0.880        0.196      117.011       18.757        0.026      342.722       18.329      859.698
06/04/2014  00:38:00      -80.269      -39.549        5.509       40.037       52.196       30.664     1602.962     2724.426      940.253        0.665        0.263       89.483       26.151        0.085      342.727       18.339      859.688
06/04/2014  00:39:00     -155.644       24.947      -13.796       88.562       53.692       26.279     7843.214     2882.791      690.588        1.822        0.571      157.631       39.907        0.064      342.695       18.282      859.703
06/04/2014  00:40:00     -132.276      -23.777       -0.267       91.925       67.595       32.538     8450.281     4569.020     1058.700        1.607        0.704      134.396       26.972        0.040      342.687       18.268      859.706
06/04/2014  00:41:00     -201.887      -65.556      -22.132       71.745       51.494       26.813     5147.311     2651.599      718.920        2.703        0.426      212.264       30.024        0.020      342.794       18.450      859.724
06/04/2014  00:42:00     -178.275      -60.582       -9.962       59.723       50.336       22.377     3566.794     2533.699      500.738        2.107        0.330      188.287       24.113        0.016      342.684       18.263      859.743
06/04/2014  00:43:00     -222.642      -59.461       -8.902      102.301       68.784       41.042    10465.572     4731.246     1684.415        3.503        0.844      230.445       43.161        0.035      342.682       18.259      859.758
06/04/2014  00:44:00     -212.701      -70.479        2.633       93.420       73.588       49.965     8727.260     5415.208     2496.541        3.342        0.832      224.073       50.559        0.051      342.655       18.214      859.775
06/04/2014  00:45:00     -224.769      -43.950       -5.002       80.189       60.559       45.059     6430.233     3667.405     2030.321        3.230        0.606      229.025       42.396        0.034      342.696       18.281      859.794
06/04/2014  00:46:00     -311.368      -26.245      -13.207      104.436       92.038       51.744    10906.910     8471.020     2677.485        5.993        1.103      312.472       55.099        0.031      342.801       18.462      859.801
06/04/2014  00:47:00     -240.229      -45.176      -15.478       95.326       77.303       38.458     9087.002     5975.685     1479.043        3.826        0.827      244.439       46.662        0.036      342.811       18.480      859.783
06/04/2014  00:48:00     -103.686      -47.922        5.633       71.863       64.783       29.514     5164.355     4196.856      871.097        1.165        0.512      114.225       28.638        0.063      342.646       18.201      859.779
06/04/2014  00:49:00     -138.936      -38.850       -6.631       44.109       41.104       23.150     1945.565     1689.539      535.924        1.251        0.209      144.265       19.166        0.018      342.667       18.236      859.766
06/04/2014  00:50:00     -159.071      -43.755       -6.742       46.065       38.990       28.802     2122.020     1520.193      829.581        1.587        0.224      164.979       23.630        0.021      342.654       18.214      859.767
06/04/2014  00:51:00     -144.913      -37.041       -2.638       77.831       49.001       30.579     6057.649     2401.113      935.058        1.588        0.470      149.572       39.790        0.071      342.601       18.123      859.772
06/04/2014  00:52:00     -152.579       12.963       -9.615       88.501       65.617       32.547     7832.388     4305.607     1059.302        1.837        0.660      153.128       38.299        0.063      342.581       18.091      859.772
06/04/2014  00:53:00     -204.265      -12.624      -18.524       63.344       51.875       35.524     4012.507     2691.033     1261.966        2.509        0.398      204.655       31.437        0.024      342.615       18.146      859.797
06/04/2014  00:54:00     -144.825      -41.649      -15.374       77.318       55.197       33.676     5977.996     3046.666     1134.097        1.655        0.508      150.695       37.177        0.061      342.571       18.073      859.811
06/04/2014  00:55:00      -86.786       29.332      -20.377       44.230       37.271       27.790     1956.321     1389.093      772.280        0.646        0.206       91.609       27.447        0.090      342.555       18.047      859.817
06/04/2014  00:56:00      -78.885       -4.103       -6.642       29.162       19.594       26.878      850.403      383.934      722.428        0.412        0.098       78.991        7.220        0.008      342.575       18.083      859.824
06/04/2014  00:57:00     -110.192      -27.345       -3.375       58.689       47.824       28.051     3444.393     2287.105      786.845        0.971        0.326      113.534       29.139        0.066      342.478       17.916      859.828
06/04/2014  00:58:00     -141.802      -16.611       -7.173       63.089       46.101       36.724     3980.250     2125.275     1348.672        1.394        0.373      142.772       29.099        0.042      342.529       18.001      859.834
06/04/2014  00:59:00     -129.451      -20.042      -12.366       45.584       40.813       22.052     2077.931     1665.686      486.270        1.077        0.211      130.993       23.533        0.032      342.549       18.037      859.818
06/04/2014  01:00:00     -131.471       71.669      -18.911       41.563       38.785       22.612     1727.504     1504.272      511.285        1.326        0.187      149.737       19.798        0.017      342.633       18.178      859.825
06/04/2014  01:01:00     -122.243       33.580       -4.039       43.991       21.945       15.734     1935.179      481.601      247.573        0.938        0.133      126.771        8.886        0.005      342.610       18.141      859.817
06/04/2014  01:02:00     -145.181       -6.976      -15.288       58.294       41.659       34.122     3398.211     1735.464     1164.334        1.383        0.315      145.349       28.521        0.039      342.547       18.033      859.819
06/04/2014  01:03:00     -156.668       -8.432      -11.768       49.339       38.898       31.208     2434.378     1513.092      973.951        1.484        0.246      156.894       29.711        0.036      342.519       17.985      859.847
06/04/2014  01:04:00     -141.879      -58.201       -0.932       61.511       46.745       31.112     3783.634     2185.115      967.977        1.523        0.347      153.352       29.245        0.036      342.478       17.916      859.855
06/04/2014  01:05:00     -120.981      -35.616        2.456       56.628       48.606       24.925     3206.708     2362.533      621.234        1.105        0.310      126.114       22.343        0.031      342.459       17.883      859.864
06/04/2014  01:06:00     -111.185      -53.402        1.071       65.738       46.382       27.370     4321.431     2151.334      749.093        1.122        0.361      123.344       32.563        0.070      342.504       17.960      859.870
06/04/2014  01:07:00      -85.326      -42.165        9.423       56.762       44.437       34.501     3221.927     1974.653     1190.312        0.777        0.319       95.176       30.399        0.102      342.535       18.013      859.868
06/04/2014  01:08:00      -90.125      -40.776        3.022       62.759       53.410       27.708     3938.648     2852.579      767.753        0.868        0.378       98.920       35.005        0.125      342.469       17.901      859.848
06/04/2014  01:09:00     -166.488      -35.796       13.297      108.558       94.901       48.212    11784.905     9006.239     2324.372        2.614        1.156      170.292       57.327        0.113      342.645       18.197      859.847
06/04/2014  01:10:00     -150.648      -70.527       -3.419      100.016       71.312       40.646    10003.229     5085.409     1652.122        2.221        0.837      166.340       44.366        0.071      342.706       18.302      859.854
06/04/2014  01:11:00     -110.283      -91.985        8.341       79.686       59.883       43.031     6349.783     3585.929     1851.669        1.624        0.589      143.609       41.217        0.082      342.718       18.321      859.843
06/04/2014  01:12:00     -115.781      -84.212        6.578       81.163       87.718       42.404     6587.479     7694.448     1798.131        1.831        0.804      143.168       46.186        0.104      342.707       18.304      859.822
06/04/2014  01:13:00     -132.065      -47.709      -14.126       45.272       52.733       27.879     2049.580     2780.801      777.232        1.276        0.280      140.418       23.572        0.028      342.727       18.339      859.828
06/04/2014  01:14:00     -135.224      -80.002       -9.998       73.351       51.859       34.207     5380.354     2689.402     1170.139        1.701        0.462      157.117       34.039        0.047      342.615       18.149      859.839
06/04/2014  01:15:00      -79.055      -33.900       -1.810       46.863       44.716       23.968     2196.172     1999.487      574.457        0.609        0.239       86.017       14.226        0.027      342.610       18.139      859.841
06/04/2014  01:16:00     -114.103      -32.269        1.287       70.221       31.838       32.255     4931.037     1013.654     1040.367        1.052        0.349      118.579       42.174        0.126      342.484       17.927      859.843
06/04/2014  01:17:00     -136.358       -1.133      -19.032       50.578       32.709       27.610     2558.091     1069.898      762.300        1.167        0.220      136.363       24.007        0.031      342.571       18.074      859.835
06/04/2014  01:18:00      -44.983       10.316        0.467       30.157       28.080       17.204      909.419      788.487      295.980        0.206        0.100       46.151       15.889        0.119      342.507       17.964      859.830
06/04/2014  01:19:00       -4.873      -29.506        6.190       20.134       22.435       22.863      405.377      503.336      522.699        0.118        0.072       29.905       17.144        0.329      342.474       17.910      859.843
06/04/2014  01:20:00      -26.603        7.730        8.182       49.735       32.628       20.346     2473.526     1064.602      413.950        0.239        0.198       27.703       26.989        0.949      342.329       17.664      859.863
06/04/2014  01:21:00       42.119       35.422       -5.939       41.117       40.858       31.456     1690.574     1669.349      989.503        0.371        0.217       55.034       28.870        0.275      342.203       17.449      859.864
06/04/2014  01:22:00       73.075       41.708        5.776       56.596       36.855       26.478     3203.059     1358.279      701.102        0.619        0.263       84.140       23.617        0.079      342.203       17.449      859.868
06/04/2014  01:23:00      114.335       49.649       30.063       51.250       33.128       36.333     2626.516     1097.461     1320.083        1.074        0.252      124.649       33.641        0.073      342.026       17.148      859.884
06/04/2014  01:24:00       10.225        0.090       10.446       20.892       26.945       24.608      436.456      726.028      605.536        0.099        0.088       10.225       19.560        3.659      341.840       16.832      859.909
06/04/2014  01:25:00       42.840       33.435       32.600       32.347       28.919       25.982     1046.318      836.295      675.043        0.329        0.128       54.343       11.980        0.049      341.960       17.035      859.905
06/04/2014  01:26:00       99.782       79.888       55.077       51.865       30.598       29.162     2689.946      936.236      850.439        1.192        0.224      127.822       10.064        0.006      342.020       17.137      859.895
06/04/2014  01:27:00       11.094       30.603       41.936       30.765       35.507       21.557      946.497     1260.714      464.718        0.274        0.134       32.552       14.368        0.195      341.904       16.941      859.897
06/04/2014  01:28:00        3.190       -2.222       18.203       28.679       23.060       18.630      822.460      531.753      347.060        0.102        0.085        3.888       17.210       19.595      341.818       16.795      859.917
06/04/2014  01:29:00       22.338        4.646       -1.484       30.854       30.682       23.578      951.951      941.381      555.928        0.149        0.122       22.816       14.239        0.389      341.652       16.513      859.930
06/04/2014  01:30:00       28.538       13.912        4.547       37.278       52.595       25.279     1389.615     2766.219      639.020        0.291        0.240       31.748       13.716        0.187      341.672       16.547      859.946
06/04/2014  01:31:00       30.863       88.878      -12.770       27.100       28.318       22.265      734.404      801.885      495.713        0.552        0.102       94.084       21.762        0.054      342.002       17.108      859.988
06/04/2014  01:32:00       34.341       42.785       -4.140       24.820       37.054       16.868      616.051     1373.016      284.517        0.265        0.114       54.863       18.664        0.116      342.022       17.142      859.988
06/04/2014  01:33:00       45.707      -38.930       -6.606       19.255       24.864       14.463      370.774      618.235      209.174        0.242        0.060       60.039       12.060        0.040      341.703       16.599      859.956
06/04/2014  01:34:00       13.900      -59.210        8.218       35.840       28.307       20.257     1284.473      801.259      410.326        0.313        0.125       60.820       14.432        0.056      341.859       16.863      859.918
06/04/2014  01:35:00      -63.749       -8.464        5.648       43.491       30.279       24.315     1891.490      916.831      591.240        0.378        0.170       64.308       22.099        0.118      342.070       17.223      859.914
06/04/2014  01:36:00      -52.537       18.312       -3.859       25.122       17.721       16.131      631.097      314.050      260.219        0.216        0.060       55.637        9.835        0.031      342.240       17.510      859.950
06/04/2014  01:37:00        8.052      -23.774       -0.977       28.742       31.898       18.680      826.081     1017.465      348.929        0.141        0.110       25.101       19.699        0.616      341.894       16.924      859.939
06/04/2014  01:38:00        7.670      -10.924       19.571       40.057       30.125       23.468     1604.572      907.497      550.754        0.181        0.153       13.347       22.224        2.772      341.753       16.684      859.927
06/04/2014  01:39:00      -56.533      -37.979        8.616       60.850       25.142       24.222     3702.678      632.099      586.723        0.482        0.246       68.105       35.710        0.275      341.995       17.095      859.928
06/04/2014  01:40:00      -66.164      -23.785       -7.102       21.223       22.841       12.666      450.434      521.709      160.417        0.306        0.057       70.310        9.500        0.018      342.185       17.418      859.941
06/04/2014  01:41:00      -14.401      -31.573        6.835       26.799       23.898       12.992      718.192      571.132      168.793        0.135        0.073       34.703        6.819        0.039      341.870       16.884      859.941
06/04/2014  01:42:00       17.758      -29.572        9.224       20.300       20.094       21.311      412.072      403.783      454.172        0.127        0.064       34.494       16.290        0.223      341.513       16.278      859.940
06/04/2014  01:43:00       51.685      -40.151       -6.702       25.149       19.080       21.465      632.458      364.041      460.738        0.289        0.073       65.448        7.762        0.014      341.351       16.002      859.964
06/04/2014  01:44:00       43.755      -15.261       19.299       32.376       23.126       23.309     1048.189      534.815      543.310        0.232        0.106       46.340       19.510        0.177      341.378       16.049      859.979
06/04/2014  01:45:00       12.861        6.594       19.599       27.432       16.157       16.158      752.512      261.056      261.081        0.093        0.064       14.453       13.381        0.857      341.415       16.111      859.985
06/04/2014  01:46:00       31.942       -5.344       24.027       23.204       15.274       18.432      538.434      233.281      339.755        0.137        0.056       32.386        4.217        0.017      341.581       16.393      859.994
06/04/2014  01:47:00       -0.569        0.791       12.389       25.247       11.800       15.039      637.429      139.240      226.178        0.058        0.050        0.975       14.125      209.977      341.867       16.879      860.012
06/04/2014  01:48:00      -15.795        2.069        1.201       16.512        9.489        7.963      272.639       90.046       63.403        0.034        0.021       15.930        7.785        0.239      341.791       16.749      860.018
06/04/2014  01:49:00        3.542       42.408       -1.014       15.037       19.595        8.704      226.102      383.956       75.760        0.125        0.034       42.556        9.916        0.054      341.893       16.923      860.003
06/04/2014  01:50:00       16.046       31.119       -2.966       14.202       17.662       10.328      201.707      311.947      106.672        0.093        0.031       35.012        8.444        0.058      341.878       16.897      859.998
06/04/2014  01:51:00        1.299       16.758       -3.967       11.985        8.733        6.160      143.637       76.264       37.940        0.028        0.013       16.809        6.378        0.144      342.044       17.178      859.997
06/04/2014  01:52:00      -19.967        6.105       -3.309       10.479       11.321        8.173      109.815      128.162       66.791        0.038        0.015       20.880        6.489        0.097      342.082       17.244      859.975
06/04/2014  01:53:00      -16.660        3.680       25.933       43.109       32.415       20.976     1858.377     1050.701      440.001        0.216        0.167       17.062       25.598        2.251      341.500       16.255      859.954
06/04/2014  01:54:00      -71.208      -48.380       -2.629       38.091       26.886       18.198     1450.932      722.849      331.182        0.496        0.125       86.088       14.138        0.027      341.775       16.722      859.950
06/04/2014  01:55:00      -49.811       -6.425        6.308       36.616       32.992       16.087     1340.735     1088.463      258.799        0.262        0.134       50.224       18.220        0.132      341.747       16.675      859.948
06/04/2014  01:56:00      -27.675        9.989       -0.535       15.785       11.269        9.707      249.161      126.985       94.220        0.067        0.024       29.423        9.480        0.104      341.651       16.512      859.945
06/04/2014  01:57:00      -20.152      -20.148        4.814       29.480       12.299       14.171      869.080      151.255      200.812        0.103        0.061       28.496       16.845        0.349      341.586       16.402      859.940
06/04/2014  01:58:00       22.419      -29.482        2.828       17.798       15.183       15.491      316.763      230.518      239.980        0.108        0.039       37.038        5.011        0.018      341.398       16.082      859.932
06/04/2014  01:59:00      -52.870      -16.010        2.259       37.804       11.471       12.874     1429.177      131.587      165.727        0.239        0.086       55.241       17.092        0.096      341.679       16.558      859.928
06/04/2014  02:00:00      -46.994        2.608        0.436       26.954       14.295       12.886      726.534      204.343      166.060        0.166        0.055       47.067       12.651        0.072      341.497       16.250      859.927
06/04/2014  02:01:00      -48.194      -16.330       -4.370       16.623       10.403        6.986      276.331      108.217       48.805        0.152        0.022       50.885        4.292        0.007      341.663       16.531      859.922
06/04/2014  02:02:00     -107.014      -34.785       -6.021       15.725       14.729        9.459      247.273      216.931       89.476        0.663        0.028      112.526        6.243        0.003      341.670       16.545      859.928
06/04/2014  02:03:00      -84.450      -15.076       -2.216       22.151       17.720       14.236      490.646      313.989      202.653        0.419        0.050       85.786       11.830        0.019      341.612       16.448      859.956
06/04/2014  02:04:00      -71.500      -19.152        2.841       42.721       34.280       17.609     1825.091     1175.108      310.079        0.440        0.166       74.021       18.790        0.064      341.494       16.246      859.974
06/04/2014  02:05:00      -72.472      -30.352       -2.739       40.806       27.663       13.916     1665.118      765.215      193.650        0.440        0.131       78.571        9.470        0.015      341.419       16.118      859.979
06/04/2014  02:06:00      -35.955      -31.238        1.582       32.169       16.101       12.962     1034.826      259.237      168.021        0.187        0.073       47.629       15.666        0.108      341.389       16.067      859.976
06/04/2014  02:07:00      -36.169       -7.962       -6.865       37.320       16.135       13.655     1392.777      260.339      186.457        0.163        0.092       37.035       16.013        0.187      341.337       15.980      859.973
06/04/2014  02:08:00        0.490      -28.264        2.157       16.556       16.331       10.111      274.099      266.690      102.231        0.072        0.032       28.268        9.991        0.125      341.449       16.169      859.964
06/04/2014  02:09:00      -36.114      -29.896       -5.697       19.983       18.881       17.574      399.310      356.500      308.833        0.165        0.053       46.883       14.112        0.091      341.464       16.194      859.967
06/04/2014  02:10:00      -65.091        1.337       -1.048       32.944       24.256       13.509     1085.324      588.359      182.507        0.305        0.093       65.105       15.260        0.055      341.343       15.988      859.986
06/04/2014  02:11:00      -35.581       -9.585        1.677       24.798       16.659       15.202      614.959      277.534      231.107        0.124        0.056       36.849       14.596        0.157      341.148       15.659      859.989
06/04/2014  02:12:00      -50.877       19.145       -5.309       32.999       15.702       15.265     1088.936      246.567      233.012        0.228        0.078       54.359       17.317        0.101      341.128       15.626      859.986
06/04/2014  02:13:00      -31.767        1.267       -7.069       20.180       30.181       13.685      407.249      910.910      187.269        0.128        0.075       31.792       10.313        0.105      341.238       15.812      859.998
06/04/2014  02:14:00      -55.266        4.818       -5.556       17.772       24.921       12.498      315.857      621.062      156.193        0.210        0.055       55.476        9.957        0.032      341.387       16.065      860.012
06/04/2014  02:15:00      -27.313       23.428       -4.521       12.026        9.281        7.421      144.636       86.138       55.078        0.080        0.014       35.984        6.118        0.029      341.400       16.083      860.019
06/04/2014  02:16:00      -12.023        7.546        0.400        7.602        9.341        6.074       57.783       87.254       36.898        0.019        0.009       14.195        5.657        0.159      341.389       16.067      860.025
06/04/2014  02:17:00        5.669        8.176        6.790        7.876        5.382        4.676       62.029       28.961       21.864        0.013        0.006        9.949        3.414        0.118      341.368       16.030      860.013
06/04/2014  02:18:00       14.715        8.213        8.505       13.387       16.583        8.438      179.220      274.996       71.192        0.044        0.026       16.852        8.010        0.226      341.149       15.661      860.020
06/04/2014  02:19:00      -36.743       -8.171       -0.621       18.685        8.378        6.627      349.144       70.185       43.921        0.094        0.023       37.640        3.103        0.007      341.151       15.665      860.035
06/04/2014  02:20:00        1.653       -1.390        3.421       43.594       21.807       16.365     1900.421      475.540      267.823        0.133        0.132        2.159       16.021       55.045      341.036       15.471      860.037
06/04/2014  02:21:00      -96.201      -29.211       -0.967       14.651       13.808        8.853      214.645      190.649       78.376        0.530        0.024      100.538        5.067        0.003      341.313       15.939      860.028
06/04/2014  02:22:00      -63.613       -5.441        3.850       25.078       30.012       16.154      628.911      900.704      260.940        0.294        0.090       63.845       15.423        0.058      341.148       15.660      860.023
06/04/2014  02:23:00      -72.876      -14.970        1.096       46.026       25.249       15.751     2118.386      637.537      248.097        0.427        0.150       74.397       20.201        0.074      341.021       15.444      860.019
06/04/2014  02:24:00     -108.418      -32.653       -4.987       29.140       37.216       19.618      849.121     1384.996      384.873        0.773        0.131      113.229       16.325        0.021      341.048       15.491      860.021
06/04/2014  02:25:00     -102.553       -3.858       -4.949       36.439       33.090       19.356     1327.792     1094.960      374.636        0.668        0.140      102.625       20.591        0.040      340.896       15.232      860.006
06/04/2014  02:26:00     -117.289      -18.893       -3.155       44.859       31.331       19.426     2012.322      981.630      377.378        0.875        0.169      118.801       20.090        0.029      340.963       15.346      859.995
06/04/2014  02:27:00      -71.173      -22.273        3.448       45.099       27.863       20.272     2033.900      776.331      410.965        0.440        0.161       74.576       22.141        0.088      341.009       15.425      859.977
06/04/2014  02:28:00      -85.501      -15.147       -0.617       35.652       33.970       18.819     1271.099     1153.982      354.149        0.516        0.139       86.832       19.833        0.052      341.174       15.704      859.969
06/04/2014  02:29:00      -48.879        1.053        3.456       36.871       23.467       17.418     1359.443      550.721      303.392        0.231        0.111       48.891       20.682        0.179      340.956       15.335      859.964
06/04/2014  02:30:00      -71.444       -8.211       -1.476       38.171       25.549       19.811     1457.005      652.742      392.462        0.384        0.125       71.915       13.646        0.036      340.841       15.139      859.957
06/04/2014  02:31:00     -113.506       16.852       -9.571       28.194       18.044       12.094      794.900      325.574      146.257        0.726        0.063      114.750        5.537        0.002      340.881       15.208      859.958
06/04/2014  02:32:00     -138.237       20.728      -13.068       22.987       27.350       17.424      528.419      748.005      303.580        1.064        0.079      139.782        8.976        0.004      340.838       15.135      859.954
06/04/2014  02:33:00     -124.690       -8.400       -5.759       26.322       27.985       16.421      692.831      783.137      269.661        0.870        0.087      124.972       11.571        0.009      340.780       15.036      859.947
06/04/2014  02:34:00     -126.904       12.855      -12.358       42.694       35.969       15.571     1822.757     1293.792      242.451        0.989        0.168      127.553       11.731        0.008      340.646       14.811      859.945
06/04/2014  02:35:00     -183.036       -1.576      -18.355       41.392       27.821       17.809     1713.300      774.028      317.158        1.832        0.140      183.043       17.864        0.010      340.652       14.819      859.956
06/04/2014  02:36:00     -133.747      -42.441       -1.797       74.254       40.544       25.359     5513.590     1643.812      643.080        1.375        0.390      140.319       36.131        0.066      340.658       14.831      859.948
06/04/2014  02:37:00      -93.285      -19.436        8.357       57.280       33.322       25.258     3280.975     1110.358      637.964        0.709        0.251       95.289       27.443        0.083      340.794       15.060      859.945
06/04/2014  02:38:00     -149.038       12.239      -12.206       38.157       26.472       15.560     1455.993      700.746      242.109        1.245        0.120      149.540       13.982        0.009      340.764       15.009      859.950
06/04/2014  02:39:00     -151.526      -38.774      -15.344       37.449       45.463       24.441     1402.458     2066.848      597.351        1.438        0.203      156.408       21.050        0.018      340.689       14.882      859.955
06/04/2014  02:40:00      -75.266      -47.255        5.207       41.568       40.986       28.159     1727.879     1679.886      792.918        0.606        0.210       88.871       23.655        0.071      340.776       15.030      859.946
06/04/2014  02:41:00      -56.102      -25.311       -3.172       31.799       29.317       17.194     1011.204      859.492      295.642        0.298        0.108       61.547       10.578        0.030      340.904       15.247      859.951
06/04/2014  02:42:00      -82.735        6.003       -2.272       32.604       21.512       17.649     1063.043      462.777      311.503        0.436        0.092       82.953       13.106        0.025      340.866       15.181      859.960
06/04/2014  02:43:00     -108.547      -34.928       -7.539       29.385       26.347       15.736      863.495      694.144      247.627        0.743        0.090      114.028       13.595        0.014      340.817       15.100      859.963
06/04/2014  02:44:00      -76.602      -32.805      -11.297       13.382       15.739       13.185      179.067      247.719      173.834        0.384        0.030       83.331        6.945        0.007      340.910       15.256      859.969
06/04/2014  02:45:00      -79.229      -36.121      -10.750       21.150       15.205       11.090      447.306      231.188      122.989        0.425        0.040       87.075       10.873        0.016      340.917       15.267      859.992
06/04/2014  02:46:00      -86.934      -45.587       -7.039       18.495       24.543       12.046      342.057      602.339      145.098        0.539        0.054       98.162       10.571        0.012      340.948       15.320      860.008
06/04/2014  02:47:00      -42.361      -42.292        0.562       44.256       24.275       16.764     1958.583      589.270      281.046        0.321        0.141       59.858       20.835        0.121      340.971       15.360      860.021
06/04/2014  02:48:00       -5.373        3.514       10.367       11.348       13.464       10.085      128.768      181.270      101.701        0.028        0.021        6.420        8.084        1.585      340.907       15.254      860.038
06/04/2014  02:49:00       29.797        3.889       -6.131       26.679       16.665       20.047      711.752      277.718      401.885        0.117        0.070       30.050        7.146        0.057      340.796       15.064      860.045
06/04/2014  02:50:00       12.255       20.167       -3.497       14.185       17.223       12.623      201.220      296.631      159.338        0.061        0.033       23.599        9.142        0.150      340.709       14.916      860.042
06/04/2014  02:51:00       31.831        4.578       13.157       12.461       13.704       21.098      155.286      187.790      445.145        0.100        0.039       32.158        6.527        0.041      340.616       14.760      860.045
06/04/2014  02:52:00       36.703        2.961        8.672       16.362       21.892       16.696      267.730      479.250      278.740        0.123        0.051       36.823        9.568        0.068      340.583       14.704      860.033
06/04/2014  02:53:00       29.683       28.561        0.670       11.350       12.266       13.768      128.813      150.446      189.561        0.108        0.023       41.192        7.621        0.034      340.711       14.921      860.031
06/04/2014  02:54:00        9.023       28.691       -6.371        6.930       14.080        7.250       48.020      198.255       52.561        0.062        0.015       30.076        6.245        0.043      340.767       15.014      860.044
06/04/2014  02:55:00       11.675        1.041        2.405       17.853       17.791        8.972      318.741      316.512       80.488        0.043        0.036       11.722        8.227        0.493      340.669       14.849      860.062
06/04/2014  02:56:00        1.834        4.736        0.448       12.510       14.297       12.507      156.510      204.409      156.419        0.027        0.026        5.079        6.182        1.482      340.540       14.631      860.054
06/04/2014  02:57:00       35.147       -5.301       12.983       16.588       14.550       24.184      275.152      211.697      584.862        0.125        0.054       35.545       12.517        0.124      340.523       14.603      860.063
06/04/2014  02:58:00       42.168        7.306        2.479       23.801       28.360       24.412      566.481      804.277      595.956        0.190        0.098       42.796       19.075        0.199      340.509       14.580      860.093
06/04/2014  02:59:00       34.516       29.677       10.297       20.799       20.386       12.275      432.598      415.574      150.680        0.159        0.050       45.520       11.445        0.063      340.634       14.790      860.116
06/04/2014  03:00:00       28.851       10.009        5.853       13.883        8.711       14.197      192.741       75.882      201.545        0.072        0.024       30.538        9.441        0.096      340.573       14.688      860.113
06/04/2014  03:01:00       19.599       -1.422        7.629       21.886       21.629       23.196      478.998      467.804      538.046        0.096        0.074       19.651       15.817        0.648      340.171       14.007      860.115
06/04/2014  03:02:00       59.318       32.206       18.175       55.286       26.755       24.333     3056.570      715.804      592.088        0.462        0.218       67.497        9.071        0.018      340.516       14.590      860.117
06/04/2014  03:03:00      136.482       64.381       30.596       34.152       28.368       23.380     1166.333      804.743      546.606        1.311        0.126      150.904        8.397        0.003      340.526       14.608      860.127
06/04/2014  03:04:00       53.408       30.015       28.113       68.432       48.679       26.704     4682.872     2369.622      713.116        0.615        0.388       61.264       21.356        0.122      340.351       14.312      860.133
06/04/2014  03:05:00       -5.369       -6.991       -6.395       18.701       19.229       14.258      349.718      369.752      203.294        0.052        0.046        8.815       12.310        1.950      339.982       13.688      860.143
06/04/2014  03:06:00      -14.179        7.298       -2.383       20.792       24.605       16.384      432.299      605.413      268.447        0.078        0.065       15.947       13.563        0.723      340.087       13.864      860.138
06/04/2014  03:07:00      -22.906      -44.091       -1.076       34.044       29.743       25.290     1158.963      884.649      639.595        0.258        0.134       49.686       17.490        0.124      340.327       14.271      860.137
06/04/2014  03:08:00       33.957      -72.345       -5.032       38.295       29.415       22.062     1466.508      865.219      486.739        0.461        0.141       79.918       17.660        0.049      340.351       14.312      860.145
06/04/2014  03:09:00       22.510      -64.350        0.047       35.766       34.220       33.957     1279.174     1170.994     1153.084        0.412        0.180       68.174       16.138        0.056      340.438       14.458      860.153
06/04/2014  03:10:00       24.501      -71.922       -7.964       18.026       24.856       20.753      324.929      617.797      430.688        0.360        0.069       75.980       10.550        0.019      340.640       14.800      860.166
06/04/2014  03:11:00       -5.575      -11.547        7.070       15.301        8.910       10.893      234.111       79.393      118.662        0.032        0.022       12.822        7.832        0.373      340.654       14.823      860.176
06/04/2014  03:12:00        0.270       -6.519        8.254        9.145       15.345       14.510       83.633      235.483      210.536        0.032        0.026        6.525       12.266        3.534      340.535       14.622      860.183
06/04/2014  03:13:00       -9.577      -12.080        9.475       13.852       19.612       11.631      191.881      384.630      135.275        0.052        0.036       15.416        6.533        0.180      340.405       14.402      860.177
06/04/2014  03:14:00       -1.231      -13.211       -2.341       17.236       23.896       12.360      297.090      571.032      152.758        0.060        0.051       13.268        6.480        0.239      340.315       14.251      860.163
06/04/2014  03:15:00       32.838       29.541        1.058       32.142       22.816       17.636     1033.133      520.557      311.045        0.191        0.093       44.170        8.991        0.041      340.622       14.771      860.154
06/04/2014  03:16:00       48.528       43.066       26.812       25.083       21.451       18.543      629.157      460.133      343.839        0.318        0.072       64.882       10.885        0.028      340.691       14.887      860.138
06/04/2014  03:17:00       16.154        8.069       11.183       31.245       35.504       23.904      976.268     1260.513      571.386        0.163        0.140       18.057       20.263        1.259      340.580       14.698      860.126
06/04/2014  03:18:00       11.348       -1.132       18.518       35.466       28.502       19.339     1257.817      812.382      373.992        0.146        0.122       11.404       19.605        2.955      340.555       14.657      860.131
06/04/2014  03:19:00       30.792       17.478       26.959       40.440       35.636       20.518     1635.359     1269.902      420.968        0.265        0.166       35.406       17.090        0.233      340.712       14.922      860.134
06/04/2014  03:20:00        3.290      -55.898       -1.537       36.462       48.233       22.135     1329.444     2326.402      489.938        0.364        0.207       55.995       18.508        0.109      340.271       14.175      860.124
06/04/2014  03:21:00       60.432      -65.058       -1.735       25.687       31.339       25.487      659.842      982.161      649.587        0.509        0.115       88.795        6.256        0.005      340.424       14.434      860.137
06/04/2014  03:22:00       15.574      -36.494        1.508       44.794       23.557       17.496     2006.472      554.946      306.122        0.222        0.143       39.679       13.297        0.112      340.722       14.939      860.159
06/04/2014  03:23:00      -62.533      -22.368       -1.930       12.043       18.249       11.283      145.039      333.010      127.316        0.251        0.030       66.413       10.918        0.027      340.777       15.031      860.178
06/04/2014  03:24:00      -66.326      -37.070       -0.237       23.568       23.303       15.303      555.474      543.044      234.180        0.355        0.067       75.982        4.660        0.004      340.784       15.042      860.190
06/04/2014  03:25:00      -73.140      -73.954       -3.306       39.500       30.258       19.946     1560.226      915.573      397.836        0.685        0.144      104.013       22.004        0.045      340.890       15.224      860.204
06/04/2014  03:26:00      -38.516      -34.582        2.651       30.062       30.210       16.221      903.739      912.648      263.117        0.238        0.104       51.763       21.807        0.177      340.960       15.339      860.214
06/04/2014  03:27:00      -55.488      -43.248        1.491       53.167       22.444       17.463     2826.697      503.753      304.960        0.429        0.182       70.351       16.679        0.056      340.903       15.245      860.214
06/04/2014  03:28:00      -11.994      -12.919        8.131       18.517       15.766       15.438      342.874      248.559      238.319        0.060        0.041       17.629        7.327        0.173      340.875       15.197      860.208
06/04/2014  03:29:00      -11.138      -25.616       -2.449       21.372       19.953       13.458      456.743      398.136      181.111        0.091        0.052       27.933       12.955        0.215      340.920       15.273      860.204
06/04/2014  03:30:00      -29.074      -15.285      -10.107       29.527       13.842       14.302      871.818      191.608      204.543        0.122        0.063       32.847        6.736        0.042      340.814       15.095      860.201
06/04/2014  03:31:00      -50.372       22.253       -2.124       28.515       18.427       17.259      813.131      339.567      297.866        0.224        0.073       55.069       18.153        0.109      340.676       14.860      860.207
06/04/2014  03:32:00      -64.799      -12.013       -5.708       25.702       30.440       18.792      660.590      926.566      353.157        0.316        0.097       65.903       16.255        0.061      340.643       14.805      860.214
06/04/2014  03:33:00     -119.087      -18.631      -11.811       40.111       22.225       20.495     1608.863      493.973      420.029        0.860        0.126      120.535       20.463        0.029      340.554       14.654      860.210
06/04/2014  03:34:00      -89.914      -21.403       -9.243       42.567       30.276       18.074     1811.928      916.643      326.662        0.584        0.153       92.427       16.166        0.031      340.451       14.482      860.205
06/04/2014  03:35:00      -73.883      -24.464       -0.201       41.768       29.072       15.205     1744.591      845.175      231.183        0.444        0.141       77.828       20.866        0.072      340.247       14.136      860.204
06/04/2014  03:36:00      -12.850       -3.600        3.495       19.352       26.130       14.503      374.499      682.764      210.342        0.073        0.063       13.345       12.629        0.896      340.272       14.176      860.216
06/04/2014  03:37:00      -72.785       35.675      -12.364       25.778       31.405       15.405      664.527      986.257      237.309        0.431        0.094       81.057       10.808        0.018      340.355       14.317      860.239
06/04/2014  03:38:00      -55.773      -27.247       -1.913       35.812       30.948       14.540     1282.525      957.791      211.423        0.315        0.123       62.072       12.312        0.039      340.451       14.481      860.259
06/04/2014  03:39:00     -110.193      -18.204      -10.497       28.408       22.262       17.731      807.018      495.592      314.374        0.710        0.081      111.687       10.193        0.008      340.340       14.294      860.277
06/04/2014  03:40:00      -98.714      -46.945       -8.863       39.538       23.451       17.490     1563.268      549.949      305.891        0.722        0.121      109.309        6.063        0.003      340.129       13.937      860.289
06/04/2014  03:41:00      -69.361      -50.082        4.342       37.442       35.783       25.375     1401.913     1280.402      643.903        0.533        0.166       85.552       19.485        0.052      340.096       13.882      860.291
06/04/2014  03:42:00      -77.943      -53.409       -5.089       36.903       27.961       20.110     1361.807      781.818      404.414        0.575        0.127       94.486       15.859        0.028      340.275       14.182      860.295
06/04/2014  03:43:00     -114.657      -62.963       -3.839       41.891       31.469       18.346     1754.835      990.267      336.562        1.010        0.154      130.808       16.000        0.015      340.276       14.185      860.297
06/04/2014  03:44:00     -117.941      -34.063       -9.089       29.333       20.516       20.055      860.408      420.904      402.212        0.842        0.084      122.761       14.496        0.014      340.318       14.256      860.297
06/04/2014  03:45:00     -136.384      -11.851       -9.830       22.330       22.380       15.773      498.637      500.854      248.799        1.004        0.062      136.898       12.720        0.009      340.314       14.249      860.305
06/04/2014  03:46:00     -100.686       -4.268       -6.111       38.470       32.028       24.666     1479.911     1025.781      608.410        0.665        0.156      100.776       20.243        0.040      340.352       14.314      860.318
06/04/2014  03:47:00     -116.460      -27.909       -8.239       45.557       25.912       17.899     2075.445      671.439      320.387        0.874        0.153      119.758       20.176        0.028      340.333       14.281      860.329
06/04/2014  03:48:00      -86.493      -61.915       -2.942       42.237       28.912       15.177     1784.000      835.914      230.331        0.709        0.143      106.370       15.581        0.021      340.247       14.137      860.333
06/04/2014  03:49:00      -95.010      -50.006        1.704       28.718       20.704       15.998      824.723      428.650      255.924        0.652        0.075      107.366       17.124        0.025      340.212       14.075      860.321
06/04/2014  03:50:00     -120.704      -47.438       -4.035       23.678       28.914       13.419      560.636      836.005      180.070        0.921        0.079      129.691       11.540        0.008      340.278       14.187      860.306
06/04/2014  03:51:00     -108.694      -26.954       -8.218       27.317       31.451       14.494      746.246      989.139      210.085        0.728        0.097      111.986       16.842        0.023      340.335       14.284      860.299
06/04/2014  03:52:00     -107.448      -34.458       -7.836       19.645       20.619       14.799      385.935      425.123      219.020        0.691        0.052      112.838       10.743        0.009      340.425       14.438      860.285
06/04/2014  03:53:00      -84.772      -53.835        1.561       39.405       20.666       17.581     1552.781      427.070      309.080        0.619        0.114      100.422       18.078        0.032      340.398       14.391      860.277
06/04/2014  03:54:00      -36.121      -65.262       10.063       44.402       45.081       27.425     1971.535     2032.317      752.147        0.521        0.238       74.591       28.691        0.148      340.384       14.366      860.269
06/04/2014  03:55:00     -101.778      -89.604        1.632       42.702       50.249       23.542     1823.471     2524.951      554.204        1.165        0.245      135.601       18.950        0.020      340.311       14.245      860.256
06/04/2014  03:56:00     -120.199      -60.498       -7.393       63.476       41.234       30.939     4029.223     1700.267      957.207        1.242        0.334      134.565       29.893        0.049      340.290       14.206      860.245
06/04/2014  03:57:00     -128.098     -120.352       -9.628       52.395       47.644       34.119     2745.230     2269.977     1164.090        1.858        0.309      175.766       33.887        0.037      340.238       14.118      860.244
06/04/2014  03:58:00     -137.060      -36.085       -5.228       30.826       29.607       20.557      950.254      876.558      422.607        1.118        0.112      141.731       18.749        0.017      340.059       13.818      860.242
06/04/2014  03:59:00     -103.564      -65.633        3.044       55.497       36.878       22.429     3079.925     1359.954      503.042        0.999        0.247      122.610       19.499        0.025      340.140       13.954      860.235
06/04/2014  04:00:00      -87.142     -102.265        4.357       50.705       40.082       26.784     2571.033     1606.578      717.407        1.148        0.245      134.357       25.586        0.036      340.214       14.077      860.234
06/04/2014  04:01:00     -113.545      -89.358       -2.956       46.914       35.356       27.362     2200.944     1250.020      748.665        1.254        0.210      144.490       26.085        0.033      340.280       14.191      860.239
06/04/2014  04:02:00      -98.036      -73.847        0.133       50.182       49.087       27.145     2518.251     2409.550      736.852        1.036        0.283      122.737       25.746        0.044      340.301       14.226      860.252
06/04/2014  04:03:00     -117.863      -92.651       -3.948       62.557       49.338       29.137     3913.323     2434.260      848.979        1.484        0.360      149.919       23.701        0.025      340.248       14.137      860.272
06/04/2014  04:04:00     -151.397      -31.843      -10.129       38.938       55.139       27.881     1516.188     3040.287      777.327        1.468        0.267      154.710       19.336        0.016      339.988       13.698      860.279
06/04/2014  04:05:00      -91.636      -34.900        0.290       75.942       39.024       31.755     5767.226     1522.852     1008.394        0.896        0.415       98.057       34.371        0.123      339.912       13.569      860.288
06/04/2014  04:06:00     -130.256     -115.233       -3.407       44.372       36.350       29.929     1968.850     1321.302      895.750        1.722        0.209      173.911       22.814        0.017      339.919       13.581      860.291
06/04/2014  04:07:00      -97.579     -101.455       -0.440       52.872       45.799       30.901     2795.488     2097.552      954.850        1.283        0.292      140.765       24.231        0.030      340.005       13.728      860.273
06/04/2014  04:08:00     -120.437      -78.504       -0.616       52.426       39.411       25.481     2748.479     1553.234      649.260        1.281        0.248      143.763       29.050        0.041      339.997       13.713      860.264
06/04/2014  04:09:00     -157.699      -67.414      -12.587       25.090       41.374       17.777      629.512     1711.780      316.029        1.611        0.133      171.504       11.709        0.005      339.917       13.578      860.273
06/04/2014  04:10:00     -126.551      -25.032       -3.470       49.373       31.685       25.114     2437.687     1003.963      630.720        1.036        0.204      129.003       26.383        0.042      339.931       13.604      860.289
06/04/2014  04:11:00     -106.854      -39.896       -3.161       37.480       35.015       23.383     1404.771     1226.034      546.762        0.810        0.159      114.060       17.127        0.023      339.837       13.444      860.290
06/04/2014  04:12:00      -81.913      -37.124        5.114       35.994       32.381       20.456     1295.601     1048.531      418.437        0.544        0.138       89.933       21.449        0.057      339.928       13.598      860.286
06/04/2014  04:13:00      -91.553      -23.976       -9.971       21.773       19.648       19.014      474.064      386.039      361.545        0.514        0.061       94.640       15.868        0.028      339.900       13.551      860.294
06/04/2014  04:14:00      -92.022      -14.773      -12.800       27.026       27.750       16.706      730.431      770.043      279.091        0.531        0.089       93.200       14.847        0.025      339.947       13.630      860.296
06/04/2014  04:15:00      -58.329      -37.818       -4.716       21.016       17.818       11.844      441.686      317.493      140.277        0.288        0.045       69.516       11.599        0.028      339.913       13.572      860.288
06/04/2014  04:16:00      -86.527      -44.234       -7.565       22.143       12.611        9.971      490.291      159.048       99.419        0.512        0.037       97.177       11.129        0.013      339.926       13.595      860.280
06/04/2014  04:17:00     -109.577      -44.022      -12.743       16.311       17.590       10.965      266.053      309.391      120.223        0.740        0.035      118.089        5.240        0.002      339.940       13.617      860.278
06/04/2014  04:18:00     -102.809      -16.560      -11.254       22.745       26.845       14.185      517.351      720.629      201.210        0.620        0.072      104.134        8.469        0.007      339.915       13.577      860.282
06/04/2014  04:19:00      -59.953       -5.111        8.954       33.332       30.794       19.826     1111.014      948.259      393.064        0.308        0.123       60.170       19.193        0.102      339.825       13.424      860.275
06/04/2014  04:20:00      -52.724       -2.626        0.532       31.126       32.978       21.069      968.803     1087.540      443.887        0.264        0.125       52.789       17.292        0.107      339.824       13.422      860.265
06/04/2014  04:21:00     -102.410      -25.531       -1.875       23.803       21.747       12.001      566.598      472.934      144.022        0.616        0.059      105.544        4.066        0.001      339.883       13.522      860.254
06/04/2014  04:22:00     -126.897      -13.127       -9.042       29.044       20.376       16.903      843.526      415.173      285.724        0.895        0.077      127.574       17.605        0.019      339.880       13.518      860.253
06/04/2014  04:23:00     -154.897       -0.072       -7.413       43.792       35.840       28.565     1917.712     1284.528      815.947        1.403        0.201      154.897       25.859        0.028      339.759       13.313      860.259
06/04/2014  04:24:00     -162.227      -35.921       -0.444       50.956       41.572       30.187     2596.559     1728.258      911.257        1.642        0.262      166.156       28.063        0.029      339.570       12.993      860.262
06/04/2014  04:25:00     -172.380      -14.678      -21.114       53.276       36.742       35.464     2838.321     1349.944     1257.667        1.791        0.272      173.004       31.344        0.033      339.639       13.109      860.248
06/04/2014  04:26:00     -142.984       38.168       -9.903       41.426       39.521       23.749     1716.144     1561.887      564.028        1.292        0.192      147.991       23.889        0.026      339.924       13.590      860.223
06/04/2014  04:27:00     -148.076       27.182      -16.280       33.246       27.726       17.601     1105.299      768.754      309.799        1.256        0.109      150.550       10.099        0.004      340.157       13.985      860.200
06/04/2014  04:28:00      -80.522      -21.970       -4.358       29.052       29.077       20.296      844.041      845.474      411.941        0.454        0.105       83.465        9.346        0.013      339.970       13.668      860.195
06/04/2014  04:29:00      -64.421      -20.934       -4.476       25.517       33.666       18.127      651.100     1133.411      328.602        0.336        0.106       67.737        7.710        0.013      339.803       13.386      860.195
06/04/2014  04:30:00      -52.944        1.199       -1.581       32.236       34.262       14.942     1039.171     1173.869      223.263        0.262        0.122       52.958       15.662        0.087      339.917       13.579      860.195
06/04/2014  04:31:00     -118.048        2.638       -1.335       50.753       32.884       20.926     2575.885     1081.365      437.878        0.902        0.205      118.077       24.138        0.042      339.856       13.476      860.195
06/04/2014  04:32:00      -43.585      -13.226        0.882       29.314       27.219       14.212      859.285      740.860      201.993        0.194        0.090       45.548       10.701        0.055      339.878       13.514      860.200
06/04/2014  04:33:00      -30.803      -16.341        8.178       21.614       23.867       13.287      467.156      569.636      176.555        0.125        0.061       34.869       10.585        0.092      339.759       13.312      860.208
06/04/2014  04:34:00      -93.268       -9.087      -10.179       19.284       25.957       12.714      371.883      673.744      161.637        0.505        0.060       93.709        9.697        0.011      339.676       13.173      860.207
06/04/2014  04:35:00      -76.355      -49.712       -1.536       26.198       21.429       12.877      686.339      459.200      165.817        0.481        0.066       91.112       10.910        0.014      339.668       13.160      860.197
06/04/2014  04:36:00      -47.973      -25.865        1.578       38.031       22.731       15.827     1446.361      516.693      250.508        0.259        0.111       54.501       18.611        0.117      339.665       13.154      860.192
06/04/2014  04:37:00      -45.501      -25.319        3.081       40.344       22.299       15.410     1627.603      497.224      237.476        0.254        0.118       52.071       18.761        0.130      339.756       13.308      860.183
06/04/2014  04:38:00      -52.753      -20.467        0.140       30.022       15.608       10.729      901.294      243.608      115.110        0.223        0.063       56.585       11.449        0.041      339.849       13.464      860.182
06/04/2014  04:39:00      -46.324      -18.889       -1.456       18.471       14.934        8.790      341.171      223.016       77.270        0.157        0.032       50.028       10.339        0.043      339.796       13.375      860.187
06/04/2014  04:40:00      -59.269      -15.936       -8.710       17.046       13.149        9.837      290.580      172.889       96.766        0.220        0.028       61.374       10.973        0.032      339.852       13.468      860.211
06/04/2014  04:41:00      -86.129      -38.541       -1.093       22.841       16.513       14.782      521.694      272.683      218.513        0.496        0.051       94.359       10.621        0.013      339.810       13.399      860.216
06/04/2014  04:42:00      -82.598      -43.015        4.636       44.585       21.840       17.587     1987.781      477.001      309.285        0.573        0.139       93.128       12.110        0.017      339.796       13.375      860.213
06/04/2014  04:43:00      -56.188      -65.059       -1.191       33.930       31.222       19.196     1151.276      974.799      368.469        0.494        0.125       85.964       22.646        0.069      339.788       13.363      860.210
06/04/2014  04:44:00      -60.828      -44.445        2.759       21.889       25.826       16.994      479.123      666.984      288.800        0.356        0.072       75.336        9.398        0.016      339.868       13.496      860.208
06/04/2014  04:45:00      -89.452      -58.578        0.488       36.471       21.189       18.454     1330.101      448.968      340.563        0.678        0.106      106.925       14.634        0.019      339.802       13.385      860.209
06/04/2014  04:46:00      -65.508      -42.509        6.554       35.641       32.546       19.165     1270.312     1059.251      367.283        0.442        0.135       78.092       15.890        0.041      339.741       13.283      860.217
06/04/2014  04:47:00      -39.678      -75.783       -1.933       45.993       41.909       21.335     2115.388     1756.340      455.179        0.582        0.216       85.542       25.492        0.089      339.752       13.300      860.236
06/04/2014  04:48:00      -69.544      -10.011        4.884       31.191       20.065       22.347      972.885      402.600      499.397        0.342        0.094       70.261       11.249        0.026      339.691       13.199      860.267
06/04/2014  04:49:00      -20.596       13.139       -7.505       27.507       18.633       16.168      756.636      347.203      261.416        0.101        0.068       24.430        6.889        0.080      339.725       13.255      860.276
06/04/2014  04:50:00      -45.676      -12.239       -2.109       30.086       21.584       14.954      905.192      465.885      223.623        0.192        0.080       47.287       11.156        0.056      339.791       13.366      860.286
06/04/2014  04:51:00      -77.635      -65.673        1.587       39.638       33.992       21.426     1571.149     1155.448      459.061        0.676        0.159      101.687       18.782        0.034      339.765       13.323      860.304
06/04/2014  04:52:00      -89.722      -77.408       -0.607       32.752       34.655       22.462     1072.724     1200.942      504.563        0.841        0.139      118.499       20.646        0.030      339.665       13.156      860.327
06/04/2014  04:53:00     -113.813      -57.116       -4.221       33.799       19.405       14.883     1142.356      376.540      221.499        0.899        0.087      127.340        5.906        0.002      339.671       13.164      860.352
06/04/2014  04:54:00      -76.686      -31.050       -3.722       33.359       21.342       14.806     1112.793      455.466      219.218        0.432        0.089       82.734       13.494        0.027      339.627       13.092      860.380
06/04/2014  04:55:00      -63.944       -3.247       -1.962       20.869       16.632       11.768      435.501      276.632      138.480        0.248        0.043       64.026        8.032        0.016      339.619       13.077      860.406
06/04/2014  04:56:00      -77.495      -24.717       -5.689       13.970       11.469       10.435      195.172      131.527      108.891        0.354        0.022       81.341        8.138        0.010      339.632       13.099      860.404
06/04/2014  04:57:00      -89.469      -31.567       -6.192        9.703       11.410        7.680       94.149      130.194       58.977        0.466        0.014       94.874        6.504        0.005      339.713       13.234      860.397
06/04/2014  04:58:00      -89.989      -29.865       -8.183       14.961       16.494       12.613      223.837      272.038      159.087        0.486        0.033       94.815        2.016        0.000      339.690       13.196      860.400
06/04/2014  04:59:00     -126.169      -31.054       -9.343       20.348       15.306       14.962      414.038      234.278      223.865        0.892        0.044      129.934        9.567        0.005      339.662       13.147      860.396
06/04/2014  05:00:00     -134.237      -38.437       -9.435       28.327       25.943       16.714      802.447      673.033      279.344        1.067        0.088      139.632       13.159        0.009      339.512       12.895      860.407
06/04/2014  05:01:00      -78.536      -21.962       -4.174       23.963       27.688       17.619      574.236      766.602      310.438        0.416        0.083       81.549        3.746        0.002      339.508       12.889      860.425
06/04/2014  05:02:00      -52.236      -23.748        0.441       17.306       22.041       13.797      299.483      485.799      190.350        0.213        0.049       57.381        9.999        0.030      339.503       12.881      860.438
06/04/2014  05:03:00      -16.081      -22.051       -1.494       26.185       12.332       14.139      685.676      152.076      199.924        0.089        0.052       27.292       13.367        0.240      339.500       12.874      860.444
06/04/2014  05:04:00      -62.260      -17.556       -2.344       14.728       13.840        6.522      216.921      191.547       42.532        0.232        0.023       64.688        7.054        0.012      339.508       12.888      860.451
06/04/2014  05:05:00      -68.121       -3.936       -8.076       15.597        9.733        9.505      243.251       94.726       90.350        0.257        0.021       68.234        6.870        0.010      339.572       12.999      860.466
06/04/2014  05:06:00      -67.666      -13.114       -5.948       16.203       13.753       12.563      262.527      189.140      157.818        0.270        0.030       68.925        6.774        0.010      339.615       13.069      860.466
06/04/2014  05:07:00      -88.715       -9.206      -10.334       12.448       12.665       10.207      154.950      160.413      104.174        0.424        0.021       89.191        5.987        0.005      339.584       13.017      860.457
06/04/2014  05:08:00      -76.394      -15.874       -9.329       16.174       12.592       10.032      261.613      158.568      100.647        0.335        0.026       78.026        9.231        0.014      339.542       12.946      860.465
06/04/2014  05:09:00     -101.359      -38.624      -14.463       16.000       20.254        9.699      256.012      410.243       94.069        0.637        0.038      108.468        6.987        0.004      339.520       12.909      860.457
06/04/2014  05:10:00     -139.570      -57.011      -12.643       13.290       15.930        9.853      176.612      253.758       97.078        1.171        0.026      150.765        5.845        0.002      339.524       12.917      860.447
06/04/2014  05:11:00      -92.290      -42.416       -5.753       32.785       35.006       17.146     1074.867     1225.423      293.990        0.647        0.130      101.571       16.107        0.025      339.483       12.847      860.454
06/04/2014  05:12:00      -88.931        8.679        2.028       31.447       27.226       15.215      988.884      741.281      231.481        0.497        0.098       89.353       15.847        0.031      339.452       12.794      860.467
06/04/2014  05:13:00      -53.994       15.740        0.256       32.725       19.428       14.128     1070.929      377.436      199.612        0.241        0.082       56.241       13.813        0.060      339.288       12.518      860.475
06/04/2014  05:14:00      -17.018       26.463       13.366       22.811       11.669        9.040      520.323      136.172       81.725        0.095        0.037       31.463       11.105        0.125      339.294       12.530      860.490
06/04/2014  05:15:00      -17.370       40.979        0.296       18.148       13.346       11.363      329.337      178.118      129.110        0.131        0.032       44.508       12.463        0.078      339.451       12.795      860.519
06/04/2014  05:16:00      -63.506       39.778       -6.893       19.796       14.195       13.710      391.865      201.486      187.955        0.322        0.039       74.935        9.449        0.016      339.570       12.995      860.538
06/04/2014  05:17:00      -76.912      -12.964       -8.197       13.853       25.354       10.453      191.898      642.849      109.258        0.355        0.047       77.997        5.870        0.006      339.655       13.139      860.529
06/04/2014  05:18:00      -37.535      -21.326       -2.405       19.924       12.691       12.449      396.956      161.063      154.987        0.129        0.036       43.170       12.281        0.081      339.563       12.982      860.518
06/04/2014  05:19:00      -89.671      -24.129       -6.020       20.812       20.035        8.981      433.128      401.389       80.656        0.479        0.046       92.860        9.229        0.010      339.523       12.914      860.515
06/04/2014  05:20:00      -88.179      -30.506       -5.962       24.601       21.173       14.531      605.216      448.287      211.156        0.500        0.063       93.307       12.443        0.018      339.425       12.748      860.491
06/04/2014  05:21:00      -28.574      -26.414        5.694       31.568       20.758       20.920      996.545      430.895      437.656        0.171        0.093       38.913       21.217        0.297      339.395       12.699      860.475
06/04/2014  05:22:00      -75.948      -49.382       -0.724       26.361       22.086       16.449      694.904      487.812      270.572        0.483        0.073       90.591        8.374        0.009      339.440       12.775      860.478
06/04/2014  05:23:00      -82.727      -23.869       -3.891       27.678       22.615       11.212      766.054      511.451      125.710        0.442        0.070       86.102       10.919        0.016      339.331       12.591      860.492
06/04/2014  05:24:00      -69.341      -59.136       -2.580       22.855       23.676       13.768      522.339      560.566      189.554        0.479        0.064       91.133        9.516        0.011      339.695       13.205      860.496
06/04/2014  05:25:00     -106.457      -70.957       -5.526       31.333       27.599       18.797      981.752      761.685      353.314        0.925        0.105      127.937       15.951        0.016      339.714       13.235      860.512
06/04/2014  05:26:00      -83.027      -65.224        8.222       54.890       36.573       24.653     3012.945     1337.577      607.764        0.809        0.248      105.582       29.152        0.076      339.631       13.096      860.529
06/04/2014  05:27:00      -52.512      -82.804       -0.694       32.345       58.962       22.352     1046.219     3476.468      499.626        0.732        0.251       98.051       24.305        0.061      339.629       13.092      860.542
06/04/2014  05:28:00      -85.072     -109.274        1.664       46.205       39.713       28.621     2134.880     1577.091      819.140        1.186        0.227      138.485       23.615        0.029      339.620       13.080      860.542
06/04/2014  05:29:00      -90.561      -79.427       -4.486       74.108       37.150       32.543     5492.063     1380.104     1059.075        1.123        0.397      120.458       27.999        0.054      339.585       13.019      860.543
06/04/2014  05:30:00     -110.376      -83.524       -0.205       67.380       47.357       34.385     4540.076     2242.701     1182.313        1.356        0.398      138.417       37.841        0.075      339.497       12.870      860.545
06/04/2014  05:31:00     -143.305     -130.133        0.326       54.177       60.893       36.555     2935.142     3707.903     1336.265        2.272        0.399      193.574       29.204        0.023      339.447       12.783      860.541
06/04/2014  05:32:00     -161.303     -114.572       -8.286       56.517       67.336       27.317     3194.126     4534.100      746.197        2.384        0.424      197.852       21.546        0.012      339.408       12.718      860.545
06/04/2014  05:33:00     -138.146      -86.751       -1.492       52.869       53.545       31.168     2795.160     2867.083      971.461        1.662        0.332      163.126       26.013        0.025      339.371       12.657      860.547
06/04/2014  05:34:00      -90.277      -70.015        1.626       49.588       43.522       32.505     2459.018     1894.131     1056.590        0.923        0.270      114.245       30.428        0.071      339.315       12.562      860.545
06/04/2014  05:35:00      -55.617      -85.594       13.132       49.056       35.203       28.225     2406.458     1239.278      796.635        0.752        0.222      102.077       26.753        0.069      339.358       12.637      860.548
06/04/2014  05:36:00     -130.933     -130.296       -7.117       54.074       64.119       33.975     2923.979     4111.186     1154.271        2.118        0.409      184.717       26.824        0.021      339.281       12.505      860.549
06/04/2014  05:37:00      -88.752      -85.918       -6.581       54.986       57.815       32.551     3023.514     3342.540     1059.585        1.136        0.371      123.526       28.971        0.055      339.226       12.414      860.563
06/04/2014  05:38:00     -116.781     -108.483        1.004       71.796       52.465       35.643     5154.614     2752.572     1270.457        1.729        0.459      159.393       35.517        0.050      339.161       12.305      860.573
06/04/2014  05:39:00      -63.608      -58.541       12.387       52.120       44.008       28.666     2716.520     1936.727      821.729        0.655        0.274       86.447       27.695        0.103      339.174       12.327      860.567
06/04/2014  05:40:00     -151.785      -66.492        3.233       60.201       50.930       42.615     3624.147     2593.892     1816.049        1.775        0.402      165.710       34.663        0.044      339.163       12.307      860.563
06/04/2014  05:41:00     -123.890     -110.177        2.989       50.096       42.756       32.448     2509.646     1828.047     1052.902        1.644        0.270      165.794       29.493        0.032      339.150       12.285      860.572
06/04/2014  05:42:00     -153.508      -77.783       -1.597       38.956       38.799       24.429     1517.546     1505.345      596.774        1.662        0.181      172.089       18.611        0.012      339.158       12.301      860.579
06/04/2014  05:43:00     -110.749      -51.965        5.517       66.700       45.688       35.743     4448.948     2087.366     1277.541        1.140        0.391      122.334       36.500        0.089      339.233       12.425      860.574
06/04/2014  05:44:00     -130.056      -90.325       14.288       79.165       62.205       41.349     6267.061     3869.472     1709.730        1.856        0.592      158.345       41.721        0.069      339.190       12.351      860.581
06/04/2014  05:45:00     -150.582     -106.902        7.499       65.771       58.425       39.167     4325.788     3413.434     1534.066        2.171        0.464      184.670       31.247        0.029      339.163       12.305      860.606
06/04/2014  05:46:00      -90.644     -100.050       18.434       77.662       50.167       36.788     6031.330     2516.735     1353.361        1.423        0.495      135.005       38.673        0.082      339.160       12.304      860.623
06/04/2014  05:47:00      -66.398      -31.073       12.499       56.566       32.951       25.861     3199.678     1085.770      668.807        0.524        0.248       73.309       21.781        0.088      339.168       12.317      860.637
06/04/2014  05:48:00      -91.919      -33.608        7.334       41.040       39.196       29.500     1684.262     1536.298      870.224        0.686        0.205       97.870       28.614        0.085      339.160       12.302      860.656
06/04/2014  05:49:00      -78.360      -54.114       -4.958       35.297       43.662       24.645     1245.843     1906.388      607.363        0.643        0.188       95.229       24.901        0.068      339.145       12.277      860.665
06/04/2014  05:50:00      -60.821      -53.293       -2.211       34.607       44.172       19.258     1197.666     1951.153      370.867        0.503        0.176       80.866       15.795        0.038      339.175       12.329      860.676
06/04/2014  05:51:00      -74.164      -45.883       10.269       56.803       34.496       27.719     3226.596     1190.006      768.327        0.645        0.259       87.210       23.834        0.075      339.180       12.337      860.691
06/04/2014  05:52:00     -124.830     -137.035       -9.289       37.738       42.831       29.940     1424.138     1834.473      896.425        1.930        0.208      185.368       19.344        0.011      339.116       12.227      860.707
06/04/2014  05:53:00     -104.025      -95.223        2.281       63.919       48.153       28.245     4085.609     2318.666      797.800        1.355        0.360      141.027       32.498        0.053      339.101       12.204      860.718
06/04/2014  05:54:00      -69.865      -59.619       10.041       50.533       44.895       28.701     2553.573     2015.544      823.723        0.696        0.270       91.845       30.503        0.110      339.102       12.205      860.734
06/04/2014  05:55:00      -19.502      -31.760       14.475       29.014       25.494       20.094      841.795      649.961      403.787        0.175        0.095       37.270       14.493        0.151      339.169       12.317      860.735
06/04/2014  05:56:00      -66.660      -23.449       -6.174       29.663       24.761       16.254      879.867      613.114      264.188        0.339        0.088       70.664       12.916        0.033      339.115       12.226      860.731
06/04/2014  05:57:00     -114.429      -45.504       -3.785       43.728       32.431       20.805     1912.142     1051.767      432.849        0.929        0.170      123.145       21.068        0.029      339.130       12.253      860.743
06/04/2014  05:58:00      -80.056      -63.050        2.199       44.979       26.553       20.221     2023.108      705.046      408.902        0.676        0.157      101.903       17.771        0.030      339.140       12.269      860.752
06/04/2014  05:59:00      -63.282      -55.725       14.501       59.198       23.657       28.194     3504.368      559.642      794.876        0.609        0.243       84.320       33.852        0.161      339.256       12.463      860.760
06/04/2014  06:00:00     -104.940      -86.697        0.605       51.740       51.190       28.880     2677.013     2620.460      834.077        1.233        0.307      136.120       29.848        0.048      339.189       12.351      860.757
06/04/2014  06:01:00      -96.817      -74.726       -0.212       49.493       48.124       20.833     2449.509     2315.912      434.002        1.008        0.260      122.301       23.804        0.038      339.226       12.414      860.759
06/04/2014  06:02:00      -37.070      -49.894        5.447       46.052       34.624       18.810     2120.774     1198.795      353.809        0.378        0.184       62.158       16.453        0.070      339.266       12.480      860.761
06/04/2014  06:03:00      -64.214      -73.722       -2.585       32.584       30.741       20.883     1061.746      945.026      436.109        0.600        0.122       97.767       15.078        0.024      339.262       12.474      860.775
06/04/2014  06:04:00      -72.577      -77.705        1.492       41.896       38.161       25.933     1755.247     1456.234      672.500        0.760        0.194      106.327       27.707        0.068      339.238       12.434      860.792
06/04/2014  06:05:00      -72.608      -55.916        8.480       34.073       41.892       22.318     1160.943     1754.922      498.078        0.594        0.171       91.643       14.324        0.024      339.247       12.449      860.807
06/04/2014  06:06:00      -69.363      -33.184        0.947       42.386       34.648       18.032     1796.558     1200.502      325.136        0.462        0.166       76.892       14.309        0.035      339.316       12.566      860.822
06/04/2014  06:07:00      -79.627      -28.181       -6.317       21.380       31.458       16.411      457.108      989.636      269.308        0.444        0.086       84.466       14.419        0.029      339.337       12.600      860.848
06/04/2014  06:08:00      -60.210       11.238       -1.557       34.107       28.777       21.581     1163.317      828.091      465.721        0.311        0.123       61.250       20.897        0.116      339.355       12.631      860.866
06/04/2014  06:09:00      -94.310      -42.357        5.992       47.373       30.953       20.275     2244.208      958.062      411.093        0.717        0.181      103.385       19.579        0.036      339.210       12.386      860.872
06/04/2014  06:10:00      -86.070      -46.889        6.930       42.433       38.107       22.212     1800.565     1452.134      493.374        0.670        0.187       98.014       19.581        0.040      339.234       12.429      860.887
06/04/2014  06:11:00      -64.187      -77.582        3.809       35.777       37.697       21.486     1279.997     1421.098      461.654        0.666        0.158      100.692       18.729        0.035      339.280       12.505      860.901
06/04/2014  06:12:00      -96.851      -39.108       -1.898       34.414       29.714       23.997     1184.346      882.921      575.861        0.678        0.132      104.449       18.367        0.031      339.224       12.411      860.912
06/04/2014  06:13:00     -119.258      -45.706      -17.376       24.426       23.189       16.443      596.626      537.718      270.388        0.901        0.070      127.716       14.923        0.014      339.282       12.509      860.924
06/04/2014  06:14:00      -84.049      -54.000       -4.274       40.286       24.983       17.988     1622.956      624.165      323.570        0.628        0.129       99.901       22.073        0.049      339.325       12.581      860.936
06/04/2014  06:15:00      -81.278      -58.179       -8.352       34.153       20.082       17.310     1166.410      403.272      299.632        0.596        0.093       99.955       14.850        0.022      339.366       12.650      860.924
06/04/2014  06:16:00      -39.206      -37.940       10.404       36.417       27.213       20.162     1326.218      740.537      406.520        0.278        0.124       54.558       22.520        0.170      339.472       12.828      860.906
06/04/2014  06:17:00      -98.066      -77.564       -3.200       25.326       26.582       18.247      641.403      706.581      332.946        0.866        0.084      125.032       13.238        0.011      339.363       12.645      860.900
06/04/2014  06:18:00      -98.988      -84.465       -0.482       38.517       35.570       21.785     1483.531     1265.209      474.593        1.008        0.161      130.127       23.619        0.033      339.360       12.639      860.896
06/04/2014  06:19:00     -113.091      -66.795       -4.341       38.842       26.286       19.926     1508.712      690.945      397.057        0.993        0.130      131.343       12.566        0.009      339.408       12.722      860.875
06/04/2014  06:20:00      -65.735      -34.232        4.906       36.233       27.625       19.538     1312.845      763.161      381.717        0.399        0.123       74.114       13.561        0.033      339.386       12.683      860.864
06/04/2014  06:21:00      -42.225      -42.674        3.951       25.674       25.846       15.896      659.131      668.016      252.667        0.260        0.079       60.034       12.347        0.042      339.466       12.820      860.847
06/04/2014  06:22:00      -74.463      -50.107        1.878       39.406       25.872       20.447     1552.827      669.349      418.073        0.535        0.132       89.753       17.891        0.040      339.524       12.915      860.829
06/04/2014  06:23:00      -35.128      -41.186        2.945       44.842       30.210       24.218     2010.776      912.618      586.512        0.322        0.175       54.132       25.541        0.223      339.602       13.049      860.837
06/04/2014  06:24:00       -7.719      -13.203        8.545       29.785       18.919       24.178      887.147      357.920      584.570        0.107        0.091       15.294       15.875        1.077      339.775       13.339      860.832
06/04/2014  06:25:00      -32.158      -39.651        9.507       41.809       38.571       26.298     1748.033     1487.735      691.605        0.331        0.196       51.052       25.940        0.258      339.642       13.114      860.833
06/04/2014  06:26:00      -68.949      -52.501        1.918       34.910       28.050       17.055     1218.691      786.781      290.878        0.490        0.115       86.662       16.783        0.038      339.588       13.022      860.842
06/04/2014  06:27:00      -43.376      -42.701        3.694       32.134       31.734       17.385     1032.584     1007.070      302.238        0.303        0.117       60.867       19.888        0.107      339.626       13.089      860.854
06/04/2014  06:28:00      -56.906      -63.309        1.006       22.101       20.295       16.982      488.468      411.893      288.388        0.422        0.059       85.125       12.932        0.023      339.633       13.100      860.865
06/04/2014  06:29:00      -17.339      -49.355        9.768       33.401       19.275       20.547     1115.601      371.525      422.174        0.237        0.095       52.312       15.234        0.085      339.693       13.200      860.884
06/04/2014  06:30:00      -20.312      -55.372        5.671       34.966       28.283       21.374     1222.591      799.938      456.860        0.299        0.124       58.980       19.101        0.105      339.692       13.200      860.889
06/04/2014  06:31:00      -62.966     -118.595        4.998       50.005       35.850       16.455     2500.452     1285.205      270.763        1.105        0.203      134.274       21.333        0.025      339.665       13.154      860.909
06/04/2014  06:32:00     -106.260      -67.797       -5.391       28.536       32.814       19.441      814.324     1076.742      377.964        0.909        0.113      126.047       13.884        0.012      339.637       13.106      860.906
06/04/2014  06:33:00      -92.943      -60.767        2.858       27.388       30.895       20.310      750.101      954.509      412.511        0.723        0.106      111.046       10.563        0.009      339.695       13.206      860.912
06/04/2014  06:34:00      -99.879      -72.523        3.524       41.042       39.537       18.961     1684.475     1563.154      359.517        0.943        0.180      123.431       18.386        0.022      339.709       13.228      860.909
06/04/2014  06:35:00     -100.574      -83.322        0.429       48.573       43.001       29.319     2359.295     1849.062      859.580        1.106        0.253      130.605       23.282        0.032      339.704       13.219      860.909
06/04/2014  06:36:00     -104.432      -96.294       -7.034       50.656       46.733       31.972     2566.076     2184.001     1022.179        1.300        0.289      142.051       33.361        0.055      339.722       13.251      860.895
06/04/2014  06:37:00     -127.669      -96.646       -1.745       31.127       37.480       29.003      968.881     1404.713      841.179        1.443        0.161      160.124       20.765        0.017      339.744       13.288      860.894
06/04/2014  06:38:00     -102.609      -77.044       -5.097       46.065       23.913       16.667     2121.980      571.810      277.800        0.973        0.149      128.314       16.108        0.016      339.793       13.371      860.885
06/04/2014  06:39:00     -122.245      -89.115       -7.636       29.349       40.042       22.717      861.391     1603.391      516.075        1.296        0.149      151.279       16.951        0.013      339.798       13.378      860.888
06/04/2014  06:40:00     -110.317      -83.284       -0.994       42.202       43.139       30.849     1780.973     1860.934      951.679        1.185        0.230      138.225       23.597        0.029      339.837       13.445      860.881
06/04/2014  06:41:00     -136.648     -100.679      -10.523       55.589       46.339       29.791     3090.143     2147.257      887.524        1.752        0.306      169.732       30.537        0.032      339.842       13.451      860.885
06/04/2014  06:42:00     -121.225      -88.898       -5.189       49.418       50.544       27.547     2442.139     2554.729      758.857        1.419        0.288      150.328       25.767        0.029      339.777       13.343      860.902
06/04/2014  06:43:00     -107.569     -135.509       -6.769       54.041       55.516       28.906     2920.429     3082.037      835.576        1.841        0.342      173.014       21.371        0.015      339.755       13.305      860.907
06/04/2014  06:44:00      -95.268      -82.777       -5.443       43.968       35.904       25.970     1933.217     1289.072      674.446        0.993        0.195      126.206       13.451        0.011      339.789       13.364      860.910
06/04/2014  06:45:00     -100.816     -115.566       -2.617       47.848       57.639       25.926     2289.462     3322.306      672.150        1.490        0.314      153.360       21.148        0.019      339.731       13.265      860.928
06/04/2014  06:46:00      -90.259     -124.193       -6.064       52.193       56.700       25.344     2724.114     3214.905      642.334        1.509        0.329      153.527       20.778        0.018      339.735       13.271      860.930
06/04/2014  06:47:00      -84.643     -110.852       -8.658       45.680       43.770       27.905     2086.677     1915.793      778.690        1.215        0.239      139.473       25.082        0.032      339.773       13.335      860.948
06/04/2014  06:48:00      -50.977      -61.543        0.403       49.807       51.325       28.250     2480.703     2634.236      798.050        0.615        0.296       79.913       24.013        0.090      339.802       13.386      860.957
06/04/2014  06:49:00      -33.951      -55.782        5.201       48.831       38.228       31.424     2384.484     1461.410      987.441        0.456        0.242       65.302       24.349        0.139      339.802       13.385      860.965
06/04/2014  06:50:00      -63.539      -65.005        0.536       50.727       32.473       20.700     2573.275     1054.487      428.483        0.616        0.203       90.901       23.680        0.068      339.849       13.466      860.980
06/04/2014  06:51:00      -94.498      -92.239        1.444       43.715       41.033       23.434     1911.019     1683.707      549.134        1.079        0.207      132.053       25.999        0.039      339.834       13.439      860.977
06/04/2014  06:52:00     -108.947      -94.294       -7.036       30.093       38.714       24.141      905.616     1498.772      582.781        1.190        0.149      144.086       24.822        0.030      339.782       13.353      860.986
06/04/2014  06:53:00      -84.702      -79.334       -2.574       31.629       43.171       19.468     1000.384     1863.693      379.012        0.836        0.162      116.054       15.999        0.019      339.827       13.427      860.974
06/04/2014  06:54:00      -59.593      -81.657        2.229       36.222       27.398       16.956     1312.041      750.634      287.496        0.629        0.118      101.090       15.237        0.023      339.909       13.564      860.985
06/04/2014  06:55:00      -35.628      -93.898        1.894       25.993       25.244       20.223      675.657      637.256      408.971        0.591        0.086      100.430       11.196        0.012      339.893       13.539      860.991
06/04/2014  06:56:00      -33.829      -31.603       10.072       22.584       20.830       18.770      510.057      433.898      352.313        0.177        0.065       46.294       15.004        0.105      340.063       13.826      861.008
06/04/2014  06:57:00      -59.741       -6.905        3.460       31.653       26.076       19.463     1001.919      679.970      378.818        0.284        0.103       60.139       15.431        0.066      340.083       13.860      861.012
06/04/2014  06:58:00      -56.036      -17.646       -4.716       24.830       15.744       12.921      616.522      247.864      166.955        0.225        0.052       58.749        5.178        0.008      340.032       13.774      861.031
06/04/2014  06:59:00      -71.094      -36.664       -5.228       23.491       19.761       14.881      551.848      390.513      221.435        0.379        0.058       79.991        7.831        0.010      340.034       13.776      861.027
06/04/2014  07:00:00      -65.469      -54.428        3.897       31.613       33.460       22.443      999.367     1119.572      503.701        0.494        0.131       85.139       20.504        0.058      340.051       13.805      861.033
06/04/2014  07:01:00      -61.398      -43.278       -2.718       49.808       35.763       21.483     2480.812     1279.010      461.502        0.493        0.211       75.118       23.582        0.099      340.165       13.999      861.028
06/04/2014  07:02:00      -55.022      -35.209       -3.821       42.762       28.149       16.501     1828.566      792.387      272.297        0.359        0.145       65.323       17.196        0.069      340.118       13.918      861.023
06/04/2014  07:03:00      -87.867      -26.112        2.188       24.858       22.466       19.549      617.935      504.714      382.175        0.496        0.075       91.665       12.092        0.017      340.098       13.885      861.017
06/04/2014  07:04:00      -73.071      -32.855        8.869       51.232       37.185       24.609     2624.668     1382.730      605.607        0.555        0.231       80.117       25.251        0.099      340.222       14.094      861.017
06/04/2014  07:05:00      -92.153      -58.921        2.509       37.705       28.450       21.027     1421.636      809.381      442.144        0.732        0.134      109.379       17.816        0.027      340.062       13.824      861.017
06/04/2014  07:06:00      -63.886      -54.128       -8.234       22.960       31.551       10.918      527.167      995.495      119.210        0.436        0.082       83.733       10.373        0.015      340.089       13.869      861.023
06/04/2014  07:07:00      -55.007      -61.731        1.329       32.539       39.949       13.942     1058.780     1595.954      194.377        0.484        0.142       82.683       10.596        0.016      340.139       13.952      861.025
06/04/2014  07:08:00      -83.663      -65.481        1.035       32.018       23.026       20.897     1025.146      530.187      436.681        0.664        0.100      106.241       20.284        0.036      340.198       14.053      861.037
06/04/2014  07:09:00      -27.260      -17.132       11.886       23.814       19.955       13.628      567.115      398.185      185.717        0.116        0.058       32.196       13.994        0.189      340.393       14.383      861.054
06/04/2014  07:10:00      -12.240      -33.774       10.472       16.247       27.843       14.194      263.975      775.232      201.459        0.132        0.062       35.924       16.526        0.212      340.590       14.715      861.070
06/04/2014  07:11:00      -32.864        4.989       13.730       25.786       21.258       17.540      664.915      451.908      307.644        0.136        0.071       33.241       16.351        0.242      340.745       14.979      861.087
06/04/2014  07:12:00      -36.945      -49.399       -5.151       26.424       19.527        9.398      698.225      381.285       88.323        0.250        0.058       61.686       10.091        0.027      340.252       14.144      861.094
06/04/2014  07:13:00      -50.015      -61.340       -2.208       24.176       24.286       18.423      584.467      589.786      339.392        0.389        0.076       79.146       18.325        0.054      340.310       14.242      861.104
06/04/2014  07:14:00      -51.705      -92.783        1.379       12.029       16.898       12.422      144.700      285.532      154.303        0.593        0.029      106.217        7.612        0.005      340.257       14.153      861.102
06/04/2014  07:15:00      -36.287      -83.204       -2.326       13.605       16.465       13.253      185.102      271.097      175.639        0.444        0.032       90.772        8.862        0.010      340.276       14.185      861.100
06/04/2014  07:16:00      -15.811      -66.659        4.374       14.533       14.557       10.870      211.216      211.920      118.149        0.263        0.027       68.508        9.083        0.018      340.328       14.272      861.093
06/04/2014  07:17:00      -23.368      -50.776        1.783       20.943       24.487       13.977      438.621      599.589      195.368        0.218        0.062       55.895       10.937        0.038      340.454       14.486      861.076
06/04/2014  07:18:00      -17.686      -59.484        8.851       20.723       39.255       20.466      429.438     1540.990      418.868        0.316        0.119       62.057       21.996        0.126      340.756       14.997      861.078
06/04/2014  07:19:00      -24.833      -53.643        4.446       37.930       27.615       19.634     1438.704      762.599      385.480        0.305        0.129       59.113       18.770        0.101      340.558       14.662      861.072
06/04/2014  07:20:00      -47.244      -47.487       -0.661       29.572       32.541       22.890      874.501     1058.923      523.938        0.347        0.123       66.985       19.424        0.084      340.556       14.657      861.061
06/04/2014  07:21:00      -23.346      -44.187        6.521       25.693       31.902       16.474      660.126     1017.756      271.395        0.224        0.097       49.975       12.680        0.064      340.668       14.847      861.067
06/04/2014  07:22:00      -63.511      -90.439        0.273       20.030       35.101       14.985      401.194     1232.046      224.547        0.703        0.093      110.511       10.309        0.009      340.388       14.374      861.071
06/04/2014  07:23:00      -61.576      -82.847       -2.170       18.708       34.072       17.846      349.983     1160.898      318.471        0.624        0.091      103.224       15.044        0.021      340.402       14.397      861.072
06/04/2014  07:24:00      -71.606      -61.945       -1.703       40.876       33.430       21.854     1670.816     1117.597      477.607        0.612        0.163       94.681       20.601        0.047      340.460       14.496      861.070
06/04/2014  07:25:00      -71.157      -44.267        0.210       41.887       25.130       18.346     1754.486      631.536      336.580        0.487        0.136       83.802       18.402        0.048      340.452       14.484      861.071
06/04/2014  07:26:00      -74.961      -57.720        5.326       36.096       25.349       17.609     1302.917      642.573      310.084        0.562        0.113       94.608       13.665        0.021      340.491       14.547      861.065
06/04/2014  07:27:00      -87.848      -72.256       -4.883       31.173       32.825       18.212      971.738     1077.482      331.684        0.767        0.119      113.746       13.679        0.014      340.486       14.538      861.057
06/04/2014  07:28:00      -83.052      -73.350      -11.820       30.981       21.436       16.471      959.852      459.493      271.288        0.705        0.085      110.805       13.856        0.016      340.481       14.529      861.053
06/04/2014  07:29:00      -73.276      -88.262        3.234       29.857       28.193       26.343      891.442      794.857      693.970        0.777        0.119      114.715       22.282        0.038      340.561       14.667      861.040
06/04/2014  07:30:00      -73.028      -84.446       -6.739       43.129       37.078       25.304     1860.128     1374.751      640.309        0.819        0.194      111.644       19.196        0.030      340.591       14.717      861.040
06/04/2014  07:31:00      -98.556      -89.740       -1.724       31.183       32.915       22.790      972.359     1083.409      519.369        1.017        0.129      133.292       19.440        0.021      340.589       14.714      861.037
06/04/2014  07:32:00      -86.540      -93.335       -1.383       33.582       49.672       19.854     1127.783     2467.263      394.175        1.010        0.199      127.282       21.040        0.027      340.642       14.805      861.036
06/04/2014  07:33:00      -84.150      -15.309        6.127       33.832       33.881       19.845     1144.578     1147.932      393.811        0.502        0.134       85.531       18.100        0.045      340.773       15.024      861.038
06/04/2014  07:34:00      -61.625      -55.731        9.849       30.641       26.893       21.173      938.846      723.219      448.289        0.456        0.106       83.088       18.220        0.048      340.784       15.044      861.042
06/04/2014  07:35:00      -53.850      -55.425       -4.952       30.148       30.171       16.301      908.900      910.284      265.719        0.404        0.104       77.277        8.750        0.013      340.833       15.127      861.041
06/04/2014  07:36:00      -30.077      -17.672        6.253       24.284       37.206       19.734      589.732     1384.305      389.415        0.181        0.118       34.884       13.666        0.153      341.086       15.555      861.045
06/04/2014  07:37:00      -10.012      -75.936        4.217       31.880       25.638       19.446     1016.327      657.328      378.141        0.397        0.103       76.593       11.799        0.024      340.827       15.117      861.049
06/04/2014  07:38:00      -28.178      -45.356        4.878       20.338       18.096       16.751      413.648      327.463      280.611        0.195        0.051       53.396        6.992        0.017      340.902       15.244      861.050
06/04/2014  07:39:00      -20.263      -20.145        1.215       18.891       22.027       10.157      356.859      485.202      103.173        0.088        0.047       28.573        9.115        0.102      341.257       15.845      861.065
06/04/2014  07:40:00       -7.207      -66.427        2.947       20.191       18.836       15.565      407.697      354.790      242.260        0.274        0.050       66.817        8.784        0.017      340.941       15.311      861.074
06/04/2014  07:41:00      -11.891      -39.686       -0.597       10.669       20.261       12.097      113.838      410.502      146.337        0.119        0.034       41.429       10.779        0.068      341.020       15.442      861.070
06/04/2014  07:42:00      -11.188      -66.745        6.957       16.574       25.953       14.201      274.692      673.575      201.656        0.289        0.057       67.676       12.121        0.032      341.051       15.495      861.068
06/04/2014  07:43:00       14.504      -53.736       -0.125       22.888       23.101       15.571      523.844      533.640      242.447        0.220        0.065       55.659        6.966        0.016      341.139       15.644      861.057
06/04/2014  07:44:00      -21.585      -12.110        9.395       22.115       20.418       17.128      489.079      416.893      293.364        0.095        0.060       24.750       15.789        0.407      341.397       16.081      861.053
06/04/2014  07:45:00      -26.365       24.199       17.551       28.049       21.775       21.084      786.757      474.143      444.554        0.165        0.085       35.787       16.565        0.214      341.425       16.130      861.063
06/04/2014  07:46:00      -23.784        7.940       15.972       17.139       16.973       22.202      293.737      288.075      492.911        0.098        0.054       25.074       12.517        0.249      341.643       16.499      861.069
06/04/2014  07:47:00       -4.397       -4.069       14.432       26.536       18.139       22.081      704.184      329.014      487.560        0.088        0.076        5.991       17.174        8.218      341.652       16.515      861.083
06/04/2014  07:48:00      -21.726        6.836       10.330       13.302       11.836       17.593      176.946      140.083      309.525        0.063        0.031       22.776       11.808        0.269      341.807       16.778      861.089
06/04/2014  07:49:00      -27.858       -1.609       13.375       20.595       15.597       20.288      424.156      243.252      411.609        0.102        0.054       27.904       17.251        0.382      341.758       16.694      861.097
06/04/2014  07:50:00      -17.422       -4.355        3.589       22.102       14.245       20.770      488.492      202.927      431.409        0.073        0.056       17.958       17.064        0.903      341.892       16.921      861.102
06/04/2014  07:51:00      -45.055       19.191        3.222       25.240       23.299       18.872      637.037      542.832      356.160        0.197        0.077       48.972       16.133        0.109      341.589       16.408      861.107
06/04/2014  07:52:00        8.766        4.477        7.877       29.743       23.780       22.846      884.641      565.495      521.947        0.107        0.099        9.843       14.525        2.177      341.860       16.866      861.119
06/04/2014  07:53:00       -6.932       10.852       -0.434       23.007       22.931       25.707      529.314      525.849      660.839        0.094        0.086       12.877        9.162        0.506      341.888       16.915      861.116
06/04/2014  07:54:00        6.055      -39.990       -9.325       24.378       32.203       26.715      594.274     1037.024      713.705        0.203        0.117       40.446       18.470        0.209      341.785       16.740      861.118
06/04/2014  07:55:00      -15.926      -40.935        8.492       27.476       30.857       26.610      754.944      952.159      708.073        0.221        0.121       43.924       19.073        0.189      341.935       16.993      861.122
06/04/2014  07:56:00      -20.860        0.513       34.040       23.812       30.694       22.192      566.989      942.124      492.498        0.180        0.100       20.866       17.098        0.671      342.302       17.618      861.119
06/04/2014  07:57:00      -31.700       -4.021       -5.670       21.867       22.872       21.029      478.165      523.146      442.238        0.125        0.072       31.954       15.363        0.231      341.593       16.413      861.111
06/04/2014  07:58:00      -13.849        1.411       20.796       16.552       17.552       17.688      273.974      308.064      312.864        0.076        0.045       13.921       11.303        0.659      342.477       17.915      861.115
06/04/2014  07:59:00      -30.444       12.787       17.573       16.659       19.240       16.706      277.511      370.161      279.081        0.116        0.046       33.020        4.363        0.017      341.822       16.803      861.123
06/04/2014  08:00:00      -22.580       -6.590        2.225       43.103       21.820       31.105     1857.861      476.115      967.507        0.193        0.165       23.522       19.130        0.661      342.035       17.164      861.136
06/04/2014  08:01:00      -34.301       10.871       -2.825       28.052       17.304       14.430      786.893      299.423      208.235        0.130        0.065       35.982        9.726        0.073      341.880       16.900      861.142
06/04/2014  08:02:00      -34.440       -6.668        4.139       30.049       32.533       24.520      902.933     1058.376      601.207        0.190        0.128       35.079       21.587        0.379      341.956       17.030      861.153
06/04/2014  08:03:00      -44.423       28.249       -1.750       21.146       24.201       19.332      447.147      585.677      373.734        0.209        0.070       52.644       12.338        0.055      341.683       16.566      861.160
06/04/2014  08:04:00        3.807       14.739       15.037       22.340       39.136       26.365      499.089     1531.647      695.121        0.159        0.136       15.222       27.229        3.200      342.130       17.327      861.165
06/04/2014  08:05:00      -17.048        1.407       26.356       25.179       15.382       14.810      633.972      236.611      219.324        0.104        0.054       17.106        7.624        0.199      342.304       17.621      861.165
06/04/2014  08:06:00      -33.077       -0.679       12.224       27.293       29.813       14.473      744.925      888.798      209.479        0.154        0.092       33.084       17.774        0.289      342.018       17.137      861.170
06/04/2014  08:07:00      -41.416       -9.642      -12.455       18.386       24.060       17.335      338.036      578.877      300.513        0.159        0.061       42.524       13.977        0.108      341.858       16.863      861.171
06/04/2014  08:08:00      -29.696       -7.080        6.791       16.044       21.413       13.493      257.418      458.496      182.061        0.094        0.045       30.528        9.535        0.098      341.972       17.057      861.174
06/04/2014  08:09:00      -12.694       -7.612       26.341       25.467       18.842       14.349      648.569      355.016      205.881        0.106        0.060       14.801       10.655        0.518      343.161       19.079      861.173
06/04/2014  08:10:00       -1.055      -10.517       20.414       31.237       21.007       23.595      975.731      441.294      556.746        0.125        0.099       10.569       18.094        2.931      342.635       18.184      861.191
06/04/2014  08:11:00       35.134      -43.977        9.063       33.249       40.600       36.869     1105.521     1648.354     1359.326        0.368        0.206       56.288       33.256        0.349      342.422       17.822      861.192
06/04/2014  08:12:00      -11.204      -45.892       18.916       25.061       30.707       21.368      628.032      942.890      456.608        0.231        0.101       47.240       17.168        0.132      342.184       17.417      861.183
06/04/2014  08:13:00      -27.608       -6.051       10.176       33.522       18.844       33.005     1123.708      355.081     1089.326        0.173        0.128       28.263       19.705        0.486      342.346       17.694      861.179
06/04/2014  08:14:00      -12.777      -26.576       -1.097       25.175       18.286       25.126      633.767      334.389      631.318        0.123        0.080       29.488       18.701        0.402      342.105       17.282      861.179
06/04/2014  08:15:00      -22.232       -8.163       15.779       34.492       31.424       22.620     1189.732      987.473      511.664        0.175        0.134       23.683       16.740        0.500      342.646       18.203      861.181
06/04/2014  08:16:00      -57.061      -26.958       11.374       35.431       30.968       20.077     1255.341      958.992      403.068        0.336        0.131       63.108       22.058        0.122      342.178       17.408      861.181
06/04/2014  08:17:00      -23.261      -13.709       18.017       22.154       32.169       17.482      490.779     1034.853      305.622        0.144        0.092       27.000       12.290        0.207      342.383       17.756      861.186
06/04/2014  08:18:00      -47.321      -26.063       -3.985       35.624       17.151       18.789     1269.068      294.151      353.037        0.242        0.096       54.023       13.054        0.058      342.141       17.343      861.187
06/04/2014  08:19:00      -20.781      -30.125        1.947       40.409       54.093       27.426     1632.879     2926.092      752.197        0.333        0.266       36.597       28.092        0.589      342.567       18.068      861.197
06/04/2014  08:20:00        0.419      -51.525       20.250       38.766       40.364       27.931     1502.793     1629.216      780.146        0.349        0.196       51.526       20.342        0.156      342.402       17.789      861.203
06/04/2014  08:21:00       35.669        0.880       33.993       46.110       38.814       34.245     2126.173     1506.515     1172.735        0.362        0.240       35.679       34.944        0.959      342.458       17.882      861.210
06/04/2014  08:22:00       -6.862       -6.041       21.560       23.646       25.919       23.715      559.156      671.817      562.400        0.117        0.090        9.142       13.764        2.267      342.613       18.145      861.218
06/04/2014  08:23:00      -12.415      -21.672       22.569       42.013       40.057       28.293     1765.129     1604.587      800.481        0.265        0.209       24.976       21.706        0.755      342.698       18.289      861.216
06/04/2014  08:24:00       50.969      -15.661       12.060       32.625       27.677       32.537     1064.420      766.016     1058.657        0.294        0.144       53.321       22.684        0.181      342.369       17.731      861.216
06/04/2014  08:25:00       20.792        5.157       18.946       22.746       30.769       32.329      517.389      946.717     1045.140        0.166        0.125       21.422       22.610        1.114      342.426       17.827      861.208
06/04/2014  08:26:00       95.709       75.616       18.717       36.331       35.036       32.977     1319.941     1227.515     1087.502        0.943        0.182      121.975       23.774        0.038      342.342       17.685      861.204
06/04/2014  08:27:00       58.219       54.122       36.783       41.771       29.666       34.499     1744.855      880.090     1190.147        0.574        0.191       79.490       26.134        0.108      342.763       18.401      861.202
06/04/2014  08:28:00       42.550       29.621       34.456       24.242       18.842       19.718      587.659      355.009      388.787        0.260        0.067       51.845        6.693        0.017      342.916       18.662      861.204
06/04/2014  08:29:00       33.543       26.467        6.885       21.979       26.823       28.136      483.057      719.457      791.644        0.193        0.100       42.727       17.453        0.167      342.585       18.097      861.208
06/04/2014  08:30:00       10.340       14.439        6.310       24.402       12.430       17.823      595.466      154.508      317.654        0.071        0.053       17.759        7.985        0.202      342.843       18.538      861.219
06/04/2014  08:31:00        8.550        1.626       33.325       13.190       15.893       13.085      173.983      252.599      171.229        0.089        0.030        8.703        7.594        0.761      343.345       19.392      861.227
06/04/2014  08:32:00       18.426       21.325       15.848       21.258       20.346       27.050      451.903      413.944      731.676        0.132        0.080       28.183       16.281        0.334      343.196       19.138      861.243
06/04/2014  08:33:00       76.964       39.572       18.839       48.471       40.496       26.489     2349.486     1639.964      701.689        0.627        0.235       86.542       14.220        0.027      342.945       18.711      861.242
06/04/2014  08:34:00       92.726       50.696       17.163       26.296       22.146       26.608      691.466      490.424      707.986        0.668        0.094      105.680        7.416        0.005      342.597       18.116      861.252
06/04/2014  08:35:00       42.086       41.960       15.845       44.545       35.421       27.767     1984.245     1254.678      771.010        0.390        0.200       59.429       23.810        0.161      343.043       18.876      861.260
06/04/2014  08:36:00      101.004       62.328       26.268       24.698       31.004       22.014      610.015      961.236      484.620        0.842        0.103      118.687        7.958        0.004      342.595       18.114      861.257
06/04/2014  08:37:00       35.282       26.335       19.352       40.274       29.454       25.699     1622.027      867.536      660.434        0.273        0.157       44.027       22.117        0.252      343.197       19.140      861.261
06/04/2014  08:38:00        1.947      -53.185        9.041       48.652       43.806       33.264     2367.027     1919.002     1106.492        0.415        0.270       53.220       25.850        0.236      342.709       18.309      861.268
06/04/2014  08:39:00       38.019      -57.670       13.199       44.264       53.535       45.930     1959.335     2865.999     2109.544        0.594        0.347       69.074       41.637        0.363      342.914       18.658      861.263
06/04/2014  08:40:00      -12.297      -58.859       -3.917       40.111       41.515       25.282     1608.897     1723.463      639.198        0.380        0.199       60.129        6.214        0.011      342.934       18.691      861.267
06/04/2014  08:41:00       13.618      -68.865       -9.863       32.253       38.411       31.624     1040.227     1475.407     1000.054        0.427        0.176       70.198       18.566        0.070      342.780       18.429      861.266
06/04/2014  08:42:00       20.275      -56.277       11.128       33.172       44.394       31.433     1100.369     1970.786      988.016        0.388        0.203       59.818       30.760        0.264      343.192       19.131      861.266
06/04/2014  08:43:00        5.423       -3.577       42.532       21.887       42.652       22.693      479.060     1819.220      514.961        0.233        0.141        6.496       21.115       10.564      343.492       19.643      861.270
06/04/2014  08:44:00       -3.257      -34.914       16.740       24.380       46.903       31.526      594.404     2199.931      993.879        0.265        0.189       35.066       23.544        0.451      343.272       19.267      861.281
06/04/2014  08:45:00       22.557      -23.515       21.352       24.277       30.447       30.344      589.361      927.000      920.734        0.198        0.122       32.585       21.750        0.446      343.288       19.296      861.285
06/04/2014  08:46:00       25.672       26.739       -0.689       19.235       27.421       20.940      369.989      751.896      438.469        0.147        0.078       37.068       13.776        0.138      342.748       18.375      861.290
06/04/2014  08:47:00       31.388       51.060        7.361       30.026       27.444       23.340      901.541      753.165      544.764        0.292        0.110       59.937       17.555        0.086      342.874       18.588      861.301
06/04/2014  08:48:00       20.750       27.570       13.416       27.661       36.516       21.733      765.137     1333.390      472.336        0.197        0.129       34.506       15.677        0.206      343.095       18.966      861.311
06/04/2014  08:49:00       16.905       21.572        4.433       17.522       20.714       18.853      307.018      429.057      355.420        0.093        0.055       27.407       12.528        0.209      342.993       18.791      861.320
06/04/2014  08:50:00       14.426       -4.597       18.232       18.024       17.658       19.534      324.863      311.801      381.572        0.079        0.051       15.140        9.053        0.358      343.408       19.499      861.325
06/04/2014  08:51:00       35.776       29.589       29.523       31.235       38.180       24.928      975.619     1457.683      621.397        0.304        0.153       46.426        9.687        0.044      343.200       19.144      861.317
06/04/2014  08:52:00       70.307       64.925       30.712       49.617       35.922       35.657     2461.872     1290.367     1271.450        0.756        0.251       95.699       26.650        0.078      343.225       19.187      861.316
06/04/2014  08:53:00       76.297       58.307       18.310       41.554       40.914       35.907     1726.730     1673.927     1289.298        0.712        0.234       96.026       24.818        0.067      343.284       19.288      861.315
06/04/2014  08:54:00      127.247       53.081        2.434       51.486       36.109       34.803     2650.759     1303.872     1211.218        1.209        0.258      137.875       20.522        0.022      343.184       19.117      861.303
06/04/2014  08:55:00       79.855       65.820      -10.434       29.743       31.399       27.472      884.618      985.914      754.728        0.672        0.131      103.485       13.445        0.017      342.858       18.563      861.311
06/04/2014  08:56:00       17.156       63.875      -24.082       31.562       22.741       23.389      996.186      517.131      547.046        0.351        0.103       66.139       19.385        0.086      342.957       18.731      861.302
06/04/2014  08:57:00       16.109       13.738       25.878       33.966       19.966       32.477     1153.688      398.623     1054.747        0.186        0.130       21.171        7.451        0.124      343.714       20.022      861.297
06/04/2014  08:58:00      120.294       72.434       14.144       50.578       41.681       32.349     2558.103     1737.281     1046.487        1.263        0.267      140.419       25.283        0.032      343.070       18.922      861.305
06/04/2014  08:59:00       42.203       82.529        2.959       54.498       40.990       34.626     2970.061     1680.141     1198.963        0.722        0.292       92.694       33.969        0.134      343.200       19.147      861.316
06/04/2014  09:00:00       19.905       97.736        8.460       46.523       35.299       30.954     2164.382     1246.030      958.174        0.719        0.218       99.742       20.449        0.042      343.318       19.345      861.312
06/04/2014  09:01:00       53.479       67.978       41.345       53.745       53.326       33.755     2888.519     2843.638     1139.408        0.803        0.344       86.493       22.644        0.069      343.537       19.719      861.316
06/04/2014  09:02:00       37.078       -1.044       31.159       40.759       64.753       39.184     1661.323     4192.986     1535.373        0.487        0.369       37.092       40.423        1.188      343.052       18.893      861.324
06/04/2014  09:03:00       39.601      -56.838        8.227       32.414       30.077       27.075     1050.688      904.615      733.050        0.378        0.134       69.273       20.521        0.088      342.781       18.430      861.327
06/04/2014  09:04:00       24.575      -38.683       -6.520       22.994       21.384       16.833      528.716      457.261      283.364        0.171        0.063       45.829        8.279        0.033      342.824       18.504      861.329
06/04/2014  09:05:00       10.518      -58.516        1.999       30.975       44.000       30.934      959.445     1936.040      956.888        0.369        0.193       59.454       29.389        0.244      343.453       19.576      861.328
06/04/2014  09:06:00      -14.888        5.051       37.883       25.410       52.721       28.323      645.692     2779.482      802.200        0.295        0.211       15.722       26.067        2.749      343.403       19.490      861.318
06/04/2014  09:07:00       -9.097       -2.869       37.312       28.805       23.524       17.255      829.701      553.395      297.746        0.158        0.084        9.538       11.235        1.388      344.238       20.916      861.314
06/04/2014  09:08:00      -22.333        5.702       16.254       16.251       21.081       24.388      264.086      444.417      594.760        0.105        0.065       23.050       18.892        0.672      343.948       20.420      861.304
06/04/2014  09:09:00       21.395       22.225       35.326       37.410       27.887       29.421     1399.516      777.709      865.608        0.262        0.152       30.849       24.707        0.641      343.511       19.675      861.295
06/04/2014  09:10:00       22.553       15.842       40.280       38.792       28.388       29.810     1504.840      805.874      888.617        0.279        0.160       27.561       21.606        0.615      343.807       20.180      861.298
06/04/2014  09:11:00       49.887       38.779       45.082       53.902       36.672       37.403     2905.440     1344.842     1399.011        0.584        0.282       63.186       24.266        0.147      343.485       19.630      861.300
06/04/2014  09:12:00       47.167       -7.516       17.675       33.182       41.594       29.585     1101.028     1730.087      875.275        0.315        0.185       47.762       19.226        0.162      343.304       19.324      861.307
06/04/2014  09:13:00       24.338       16.973       49.206       38.955       36.512       30.212     1517.512     1333.115      912.735        0.353        0.188       29.672       13.833        0.217      343.977       20.469      861.317
06/04/2014  09:14:00        6.932      -39.397       21.268       31.861       61.376       34.671     1015.133     3766.970     1202.063        0.402        0.299       40.002       34.687        0.752      343.912       20.358      861.318
06/04/2014  09:15:00       57.435     -119.265       -0.126       61.727       61.642       43.249     3810.228     3799.729     1870.443        1.350        0.474      132.374       45.190        0.117      343.597       19.820      861.319
06/04/2014  09:16:00       46.403      -57.763       27.024       52.294       76.086       39.773     2734.692     5789.035     1581.911        0.816        0.505       74.093       54.553        0.542      343.925       20.380      861.320
06/04/2014  09:17:00       65.983      -73.703        3.249       37.614       42.488       28.497     1414.807     1805.217      812.060        0.691        0.202       98.924       29.247        0.087      343.534       19.713      861.318
06/04/2014  09:18:00       58.900       19.512       43.707       49.402       49.709       30.400     2440.564     2471.001      924.190        0.580        0.292       62.048       30.377        0.240      343.848       20.248      861.303
06/04/2014  09:19:00       37.442        3.177       52.761       50.937       43.692       39.687     2594.534     1908.988     1575.040        0.514        0.304       37.577       35.748        0.905      344.150       20.765      861.291
06/04/2014  09:20:00       30.797       -7.839       51.157       55.483       44.418       34.177     3078.376     1972.973     1168.066        0.492        0.311       31.779       22.027        0.480      344.131       20.733      861.291
06/04/2014  09:21:00       54.869      -46.826       12.281       57.574       31.566       28.091     3314.738      996.426      789.101        0.523        0.255       72.133       21.663        0.090      343.518       19.686      861.289
06/04/2014  09:22:00       47.570      -82.848        3.863       55.760       51.747       34.843     3109.127     2677.707     1214.030        0.807        0.350       95.534       27.889        0.085      343.879       20.302      861.278
06/04/2014  09:23:00       62.203       40.114       23.658       60.241       34.348       27.990     3628.933     1179.760      783.463        0.581        0.280       74.017       23.548        0.101      344.124       20.721      861.279
06/04/2014  09:24:00       99.778       46.476       28.459       55.851       38.251       37.774     3119.379     1463.106     1426.882        0.947        0.300      110.071       16.232        0.022      344.223       20.889      861.271
06/04/2014  09:25:00      177.436      108.187       26.010       55.255       41.738       46.969     3053.127     1742.035     2206.061        2.543        0.350      207.817       16.599        0.006      343.752       20.081      861.272
06/04/2014  09:26:00       97.819      101.348       68.905       82.486       53.776       56.087     6803.911     2891.893     3145.755        1.871        0.642      140.855       44.725        0.101      343.656       19.919      861.268
06/04/2014  09:27:00       41.074       73.716       23.226       74.743       76.461       44.974     5586.465     5846.341     2022.672        1.056        0.673       84.386       35.248        0.174      344.317       21.050      861.270
06/04/2014  09:28:00       21.152      -10.521       10.822       30.258       36.715       38.650      915.544     1348.004     1493.847        0.222        0.188       23.624       25.259        1.143      344.321       21.057      861.270
06/04/2014  09:29:00       73.398       72.456       54.332       50.218       45.147       36.656     2521.832     2038.249     1343.664        0.975        0.295      103.137       20.870        0.041      343.917       20.366      861.261
06/04/2014  09:30:00       91.227       81.598       25.459       56.537       38.041       47.245     3196.460     1447.137     2232.049        1.125        0.344      122.395       18.424        0.023      343.955       20.432      861.241
06/04/2014  09:31:00      131.496       92.901        7.845       77.135       49.626       56.799     5949.822     2462.712     3226.144        1.881        0.582      161.002       38.715        0.058      343.996       20.500      861.238
06/04/2014  09:32:00       17.248       64.927        2.469       31.865       42.232       28.515     1015.350     1783.556      813.100        0.406        0.181       67.179       24.991        0.138      344.155       20.774      861.245
06/04/2014  09:33:00       -1.059       44.436       11.089       36.713       38.777       34.258     1347.873     1503.631     1173.640        0.306        0.201       44.448       26.176        0.347      344.487       21.341      861.238
06/04/2014  09:34:00       -3.062       31.580       18.186       36.701       28.600       26.272     1346.965      817.963      690.203        0.210        0.143       31.728       24.199        0.582      344.565       21.475      861.227
06/04/2014  09:35:00       51.016       33.798       22.478       52.320       33.132       33.739     2737.400     1097.698     1138.297        0.461        0.249       61.196       19.208        0.099      344.589       21.516      861.217
06/04/2014  09:36:00       10.676       -3.652       10.033       41.478       49.736       33.748     1720.397     2473.704     1138.938        0.278        0.267       11.284       24.945        4.887      344.539       21.430      861.207
06/04/2014  09:37:00       91.500       63.019       58.601       99.957       68.758       60.599     9991.403     4727.602     3672.236        1.708        0.920      111.102       37.132        0.112      344.325       21.063      861.199
06/04/2014  09:38:00      202.105      118.084       18.454       71.803       53.198       52.374     5155.616     2830.004     2743.009        3.293        0.536      234.073       33.339        0.020      343.940       20.402      861.197
06/04/2014  09:39:00       78.201      113.767       58.722       54.400       62.725       70.431     2959.363     3934.451     4960.511        1.718        0.593      138.052       42.247        0.094      343.831       20.219      861.198
06/04/2014  09:40:00       30.107       28.794       10.521       26.550       26.565       33.142      704.902      705.703     1098.421        0.218        0.125       41.659       26.116        0.393      344.239       20.917      861.193
06/04/2014  09:41:00       75.065       85.751       26.531       81.357       62.211       38.643     6618.988     3870.214     1493.281        1.283        0.599      113.965       19.166        0.028      344.199       20.848      861.190
06/04/2014  09:42:00       71.417       32.543       -0.326       40.109       67.690       26.528     1608.741     4581.978      703.734        0.653        0.345       78.482       33.765        0.185      343.720       20.030      861.196
06/04/2014  09:43:00        9.709      -24.723       10.419       21.347       31.917       18.862      455.685     1018.674      355.763        0.132        0.092       26.561       13.397        0.254      344.241       20.921      861.177
06/04/2014  09:44:00       59.914      -81.871        0.951       60.136       61.095       39.217     3616.339     3732.592     1537.937        0.959        0.444      101.452       40.572        0.160      344.324       21.064      861.168
06/04/2014  09:45:00       60.584      -12.267       20.326       86.032       61.973       39.028     7401.559     3840.658     1523.193        0.850        0.638       61.813       43.236        0.489      344.404       21.199      861.158
06/04/2014  09:46:00       34.754      -23.403        9.562       41.732       54.992       36.431     1741.541     3024.096     1327.219        0.397        0.305       41.899       21.329        0.259      344.212       20.871      861.167
06/04/2014  09:47:00       49.106       -9.504       33.209       52.346       63.200       40.444     2740.083     3994.238     1635.746        0.599        0.419       50.017       21.979        0.193      344.362       21.128      861.146
06/04/2014  09:48:00       58.291       25.522       46.112       36.709       62.485       42.224     1347.529     3904.385     1782.880        0.660        0.352       63.633       44.172        0.482      344.191       20.833      861.153
06/04/2014  09:49:00       27.304      -46.159       20.165       52.106       99.918       55.482     2715.006     9983.565     3078.204        0.953        0.789       53.629       56.118        1.095      344.328       21.068      861.140
06/04/2014  09:50:00       19.111        7.884       33.487       46.355       54.602       41.298     2148.776     2981.359     1705.537        0.419        0.342       20.673       42.123        4.152      344.657       21.633      861.142
06/04/2014  09:51:00        3.664       -3.711       40.516       21.807       47.808       31.751      475.547     2285.609     1008.105        0.272        0.188        5.215       31.566       36.637      344.746       21.784      861.129
06/04/2014  09:52:00       41.293      -45.427       21.207       41.370       49.424       35.123     1711.469     2442.695     1233.601        0.480        0.269       61.390       34.911        0.323      344.844       21.951      861.126
06/04/2014  09:53:00       22.124     -125.986      -13.246       45.557       59.784       42.179     2075.396     3574.178     1779.106        1.198        0.371      127.914       32.016        0.063      344.458       21.291      861.124
06/04/2014  09:54:00       18.564      -33.160       26.066       39.284       65.772       46.308     1543.194     4325.927     2144.471        0.507        0.401       38.003       36.244        0.910      344.643       21.606      861.117
06/04/2014  09:55:00      -40.150       19.601       -7.812       37.150       35.713       29.143     1380.086     1275.434      849.327        0.278        0.175       44.679       25.228        0.319      344.222       20.888      861.133
06/04/2014  09:56:00      -83.788       -5.484        0.087       29.688       38.931       25.796      881.361     1515.627      665.422        0.506        0.153       83.967       19.826        0.056      344.329       21.071      861.120
06/04/2014  09:57:00      -12.904       -6.342       14.161       40.014       28.060       23.084     1601.098      787.347      532.849        0.166        0.146       14.378       22.551        2.460      345.088       22.369      861.122
06/04/2014  09:58:00      -16.074        7.599       31.764       27.649       25.437       21.135      764.446      647.033      446.676        0.159        0.093       17.780       15.967        0.806      345.422       22.943      861.117
06/04/2014  09:59:00      -18.483       -0.162        8.280       23.892       15.348       24.401      570.810      235.571      595.398        0.091        0.070       18.484       13.807        0.558      345.070       22.340      861.105
06/04/2014  10:00:00       35.272       25.881       16.456       38.537       24.363       21.390     1485.075      593.541      457.524        0.236        0.127       43.749        7.279        0.028      344.941       22.117      861.110
06/04/2014  10:01:00      -11.099       19.738       19.770       23.303       23.060       19.801      543.049      531.778      392.078        0.118        0.073       22.645       13.153        0.337      345.493       23.065      861.106
06/04/2014  10:02:00       21.470       28.019       14.606       40.008       26.965       28.998     1600.659      727.135      840.905        0.231        0.158       35.299       18.613        0.278      345.362       22.840      861.108
06/04/2014  10:03:00       54.962       60.034       13.306       27.532       31.036       27.417      758.037      963.235      751.671        0.464        0.124       81.394       19.621        0.058      344.526       21.408      861.100
06/04/2014  10:04:00       47.108       11.510       44.192       70.779       56.051       37.380     5009.704     3141.761     1397.288        0.692        0.477       48.493       23.092        0.227      344.863       21.984      861.105
06/04/2014  10:05:00       89.976       54.535       59.175       72.376       47.609       47.977     5238.218     2266.655     2301.808        1.219        0.490      105.213       32.853        0.098      345.108       22.402      861.087
06/04/2014  10:06:00      159.306      115.248       76.924      105.271       64.948       58.735    11081.936     4218.264     3449.747        3.166        0.937      196.622       41.460        0.044      344.641       21.601      861.092
06/04/2014  10:07:00       71.120       41.334       60.535       85.213       66.632       45.558     7261.328     4439.816     2075.535        1.210        0.689       82.259       36.508        0.197      344.475       21.320      861.104
06/04/2014  10:08:00       38.995       29.684       25.761       33.951       43.341       32.903     1152.680     1878.454     1082.624        0.359        0.206       49.008       24.031        0.240      344.627       21.580      861.100
06/04/2014  10:09:00       41.105       28.210       40.175       44.024       49.953       31.292     1938.095     2495.285      979.200        0.475        0.271       49.854       30.578        0.376      344.581       21.503      861.090
06/04/2014  10:10:00      173.090      139.928       91.498      101.350       67.838       62.052    10271.749     4601.940     3850.426        3.831        0.936      222.576       40.752        0.034      344.495       21.351      861.094
06/04/2014  10:11:00      188.340       97.548       72.783       69.144       54.954       66.199     4780.894     3019.987     4382.271        3.123        0.609      212.103       45.569        0.046      344.575       21.487      861.090
06/04/2014  10:12:00       76.842       10.162       -5.935       71.615       49.137       28.398     5128.683     2414.480      806.427        0.719        0.417       77.511       18.066        0.054      344.468       21.309      861.117
06/04/2014  10:13:00       66.213       -0.069       19.298       52.754       67.440       36.142     2783.019     4548.110     1306.244        0.670        0.432       66.213       16.860        0.065      345.047       22.298      861.087
06/04/2014  10:14:00      102.765       80.505        8.031       56.952       46.678       38.247     3243.543     2178.836     1462.845        1.199        0.344      130.544       20.056        0.024      344.665       21.645      861.096
06/04/2014  10:15:00       53.378       90.793      -15.269       58.069       25.565       28.034     3372.066      653.589      785.899        0.807        0.241      105.321       17.924        0.029      344.469       21.310      861.100
06/04/2014  10:16:00      -27.535       18.793       -2.646       14.337       29.505       25.775      205.543      870.533      664.362        0.143        0.087       33.337        6.850        0.042      344.957       22.146      861.100
06/04/2014  10:17:00      -57.797        0.728       -4.240       19.572       14.973       12.450      383.067      224.205      154.992        0.206        0.038       57.802        8.497        0.022      344.546       21.442      861.089
06/04/2014  10:18:00      -70.329       12.212        0.214       41.865       22.543       16.392     1752.701      508.209      268.705        0.381        0.126       71.381       19.598        0.075      344.570       21.483      861.089
06/04/2014  10:19:00      -38.288        3.566       -7.505       24.539       12.556       13.642      602.160      157.652      186.115        0.124        0.047       38.454       11.998        0.097      344.578       21.496      861.085
06/04/2014  10:20:00      -91.259       15.689      -16.861       42.650       23.979       19.581     1818.995      574.983      383.426        0.582        0.139       92.598        5.470        0.003      344.600       21.534      861.084
06/04/2014  10:21:00      -42.459       33.362        3.142       33.357       32.516       26.026     1112.719     1057.270      677.329        0.289        0.142       53.998       23.026        0.182      345.077       22.351      861.081
06/04/2014  10:22:00        2.549       28.811       30.619       22.912       34.144       25.236      524.947     1165.791      636.832        0.205        0.116       28.924        9.449        0.107      345.571       23.198      861.074
06/04/2014  10:23:00       -0.063       40.581       19.204       15.334       27.072       20.607      235.142      732.913      424.628        0.170        0.070       40.581        7.706        0.036      345.309       22.748      861.073
06/04/2014  10:24:00       12.354       13.021       23.324       38.658       40.575       31.325     1494.479     1646.298      981.240        0.249        0.206       17.948       11.323        0.398      345.672       23.371      861.053
06/04/2014  10:25:00      103.624       82.912       64.487       82.753       49.957       51.138     6848.011     2495.701     2615.082        1.686        0.598      132.711       30.826        0.054      345.404       22.909      861.059
06/04/2014  10:26:00      154.420       85.574       35.289       91.298       83.540       57.469     8335.381     6979.002     3302.644        2.551        0.931      176.546       35.283        0.040      345.340       22.797      861.034
06/04/2014  10:27:00      117.432       65.996       64.483       69.055       67.872       55.316     4768.536     4606.651     3059.844        1.737        0.622      134.706       39.572        0.086      345.390       22.885      861.033
06/04/2014  10:28:00      106.555       89.442      120.322      108.771       83.658       70.051    11831.131     6998.612     4907.089        2.878        1.187      139.118       63.410        0.208      345.528       23.121      861.011
06/04/2014  10:29:00      103.766      109.492      111.052       86.547       71.576       47.789     7490.440     5123.195     2283.813        2.499        0.745      150.850       43.794        0.084      345.371       22.851      861.014
06/04/2014  10:30:00       72.132       73.601      103.057       77.590       72.881       52.521     6020.151     5311.640     2758.444        1.766        0.705      103.054       44.189        0.184      345.600       23.246      860.991
06/04/2014  10:31:00       79.156      -25.851       61.511       82.590      107.979       66.402     6821.165    11659.507     4409.285        1.680        1.144       83.271       80.209        0.928      345.208       22.575      860.987
06/04/2014  10:32:00       90.759       29.291       59.130       70.224       93.323       39.994     4931.400     8709.202     1599.508        1.391        0.762       95.369       39.784        0.174      345.369       22.849      860.986
06/04/2014  10:33:00       14.359       43.028       52.651       44.443       43.790       35.258     1975.151     1917.524     1243.152        0.498        0.257       45.361       11.149        0.060      345.977       23.893      860.993
06/04/2014  10:34:00       36.454      -34.901       59.195       53.502      102.130       51.854     2862.482    10430.610     2688.852        1.101        0.799       50.467       52.497        1.082      345.936       23.823      860.977
06/04/2014  10:35:00       81.097       85.579      113.018       88.290       67.398       51.699     7795.192     4542.476     2672.788        2.084        0.751      117.901       57.110        0.235      345.470       23.022      860.999
06/04/2014  10:36:00      126.021       29.648       60.429       89.174       80.721       67.880     7951.957     6515.860     4607.706        1.974        0.954      129.462       60.810        0.221      345.243       22.632      860.997
06/04/2014  10:37:00       68.215       -9.930       60.114       66.413      131.343       85.935     4410.624    17250.902     7384.904        1.870        1.452       68.934       94.151        1.865      345.476       23.033      860.996
06/04/2014  10:38:00       75.130      -53.422       28.480       57.633      111.454       65.645     3321.524    12422.001     4309.260        1.468        1.003       92.187       68.655        0.555      345.481       23.041      861.007
06/04/2014  10:39:00       37.251        6.100       34.936       45.072       66.096       34.524     2031.471     4368.622     1191.930        0.512        0.380       37.747       38.393        1.035      345.356       22.829      861.028
06/04/2014  10:40:00       25.690      -23.269       -3.278       37.494       61.076       33.031     1405.764     3730.218     1091.077        0.372        0.311       34.662       29.530        0.726      345.347       22.813      861.011
06/04/2014  10:41:00       66.450      -81.483       -9.560       38.098       46.288       40.571     1451.441     2142.558     1645.971        0.819        0.262      105.143       15.608        0.022      345.437       22.966      861.016
06/04/2014  10:42:00       22.361       -7.913       25.088       46.557       68.179       43.403     2167.591     4648.419     1883.844        0.494        0.435       23.720       44.448        3.511      345.754       23.512      861.026
06/04/2014  10:43:00       51.268       24.527       76.902       78.418       98.669       49.693     6149.353     9735.648     2469.431        1.375        0.918       56.833       60.980        1.151      346.022       23.969      861.014
06/04/2014  10:44:00      101.312      -47.533       52.349      103.243      158.627       96.306    10659.178    25162.568     9274.876        3.017        2.255      111.909      115.107        1.058      345.749       23.501      861.009
06/04/2014  10:45:00       74.859      -38.305       45.549       77.407       99.978       60.003     5991.896     9995.558     3600.418        1.436        0.979       84.090       73.547        0.765      345.648       23.329      861.033
06/04/2014  10:46:00       83.973       36.905       63.705       64.729       66.225       52.400     4189.883     4385.755     2745.795        1.189        0.566       91.725       37.802        0.170      345.848       23.671      861.033
06/04/2014  10:47:00       70.379       20.962       59.383       63.844       46.628       39.079     4076.094     2174.193     1527.155        0.835        0.389       73.434       25.985        0.125      345.683       23.389      861.040
06/04/2014  10:48:00       53.556       63.956       34.852       43.245       46.073       33.276     1870.126     2122.746     1107.325        0.664        0.255       83.419       14.923        0.032      345.424       22.944      861.037
06/04/2014  10:49:00       70.087       62.342       55.306       51.133       39.711       46.083     2614.572     1576.947     2123.639        0.909        0.316       93.802       26.629        0.081      345.525       23.118      861.026
06/04/2014  10:50:00       57.978       71.212       35.420       36.042       37.148       36.909     1299.029     1379.955     1362.280        0.686        0.202       91.829       25.039        0.074      345.686       23.395      861.040
06/04/2014  10:51:00      157.884       66.232       28.293       93.958       50.706       46.663     8828.131     2571.072     2177.467        2.184        0.679      171.213       17.590        0.011      345.804       23.595      861.036
06/04/2014  10:52:00       46.762       28.046       30.149       68.767       37.171       41.110     4728.914     1381.715     1690.017        0.584        0.390       54.528       40.527        0.552      345.865       23.702      861.034
06/04/2014  10:53:00       58.298       45.856       17.809       41.864       33.488       36.723     1752.613     1121.441     1348.605        0.502        0.211       74.172       33.505        0.204      345.568       23.192      861.042
06/04/2014  10:54:00      -25.873       70.824       -6.011       46.373       49.863       34.500     2150.415     2486.359     1190.256        0.577        0.291       75.402       28.895        0.147      345.760       23.522      861.036
06/04/2014  10:55:00       -0.450       10.172       27.355       28.500       19.852       20.899      812.233      394.116      436.788        0.125        0.082       10.182       16.504        2.628      346.465       24.733      861.012
06/04/2014  10:56:00       -8.611        3.227       22.316       14.461       20.105       17.006      209.109      404.220      289.208        0.074        0.045        9.196        8.394        0.833      346.676       25.094      861.021
06/04/2014  10:57:00      -15.179      -50.347        1.969       18.390       23.033       18.950      338.200      530.515      359.094        0.200        0.061       52.585       11.621        0.049      345.308       22.747      861.020
06/04/2014  10:58:00      -15.602       15.368       36.864       18.756       18.984       14.882      351.778      360.409      221.478        0.139        0.047       21.900       10.376        0.224      346.879       25.446      861.017
06/04/2014  10:59:00       42.070       40.330       24.152       59.077       30.487       25.471     3490.112      929.427      648.777        0.452        0.253       58.278       15.737        0.073      346.116       24.133      861.023
06/04/2014  11:00:00       51.347      -20.419       28.181      121.181       74.694       46.268    14684.873     5579.161     2140.734        1.312        1.120       55.258       37.464        0.460      345.888       23.741      861.009
06/04/2014  11:01:00      127.711      108.807       88.550       87.530       79.325       64.167     7661.495     6292.493     4117.466        2.703        0.904      167.777       54.693        0.106      345.988       23.909      860.995
06/04/2014  11:02:00       69.280      117.759      112.111       83.582       74.675       61.953     6986.029     5576.321     3838.178        2.381        0.820      136.627       37.628        0.076      346.400       24.618      860.998
06/04/2014  11:03:00       87.981        5.426       57.648       73.628      143.397       60.735     5421.145    20562.797     3688.740        2.038        1.484       88.148       70.730        0.644      345.662       23.352      861.018
06/04/2014  11:04:00       60.916      -17.500       40.470       61.052       83.903       56.041     3727.332     7039.717     3140.590        0.978        0.695       63.380       49.997        0.622      346.052       24.021      861.027
06/04/2014  11:05:00       66.690       -9.310       45.240       62.836       81.919       55.326     3948.379     6710.698     3060.999        1.015        0.686       67.337       52.777        0.614      346.169       24.222      861.021
06/04/2014  11:06:00       49.546       72.797       41.270       55.239       58.056       46.818     3051.356     3370.444     2191.969        0.903        0.431       88.058       25.533        0.084      346.397       24.617      861.030
06/04/2014  11:07:00       56.056       89.996       12.982       84.425       69.401       55.851     7127.557     4816.440     3119.302        1.323        0.753      106.026       38.546        0.132      345.856       23.685      861.026
06/04/2014  11:08:00       44.216       36.714       30.557       49.986       36.265       40.191     2498.611     1315.174     1615.299        0.483        0.271       57.471       23.242        0.164      346.062       24.041      861.034
06/04/2014  11:09:00       45.369       46.632       20.412       53.145       51.989       27.171     2824.357     2702.882      738.277        0.546        0.313       65.061       21.771        0.112      346.082       24.075      861.031
06/04/2014  11:10:00      104.062       40.359       49.990       71.813       64.951       49.863     5157.164     4218.650     2486.271        1.341        0.593      111.615       35.237        0.100      346.128       24.154      861.028
06/04/2014  11:11:00      204.614      126.305       42.818      160.353      120.237       85.814    25713.219    14456.859     7364.076        5.358        2.377      240.457       69.404        0.083      345.934       23.817      861.016
06/04/2014  11:12:00      170.567      120.550       71.444      135.685       89.979       88.902    18410.458     8096.194     7903.623        4.156        1.721      208.867       88.757        0.181      345.774       23.542      861.012
06/04/2014  11:13:00      151.206      159.659      123.078      101.285       76.775       89.472    10258.558     5894.445     8005.195        4.383        1.208      219.895       78.916        0.129      345.662       23.348      861.020
06/04/2014  11:14:00       43.809       61.284      108.037       81.080       83.229       52.184     6573.935     6926.992     2723.120        1.678        0.811       75.332       53.072        0.496      346.030       23.984      861.021
06/04/2014  11:15:00      138.414        8.660       91.458       74.595       75.581       56.457     5564.400     5712.418     3187.442        2.103        0.723      138.685       53.371        0.148      345.613       23.268      861.044
06/04/2014  11:16:00       36.008       55.570        4.228       34.395       44.508       35.038     1183.005     1980.994     1227.651        0.440        0.220       66.216       30.414        0.211      345.600       23.246      861.011
06/04/2014  11:17:00       42.749       26.827       40.542       57.537       50.005       36.220     3310.551     2500.509     1311.869        0.566        0.356       50.469       31.628        0.393      346.174       24.233      860.993
06/04/2014  11:18:00       15.915       38.900       94.232       52.622      105.507       72.219     2769.099    11131.676     5215.644        1.488        0.956       42.029       71.038        2.857      346.342       24.521      860.995
06/04/2014  11:19:00       56.228      -56.905       44.594       47.679       97.702       54.757     2273.281     9545.595     2998.316        1.160        0.741       79.998       63.168        0.624      345.921       23.798      861.003
06/04/2014  11:20:00       25.713       -2.008       20.910       48.217       52.658       34.551     2324.868     2772.900     1193.765        0.370        0.315       25.791       37.251        2.086      345.878       23.725      860.998
06/04/2014  11:21:00       47.969      -65.480       25.154       51.571       85.630       43.233     2659.616     7332.529     1869.061        0.954        0.593       81.170       45.759        0.318      346.114       24.128      860.978
06/04/2014  11:22:00      101.021      -43.348       33.891       74.029      135.467       63.614     5480.318    18351.428     4046.804        2.055        1.394      109.929       81.633        0.551      346.040       24.000      860.957
06/04/2014  11:23:00      228.760      146.750       43.414       81.272       77.006       66.709     6605.065     5929.928     4450.101        4.636        0.849      271.784       42.068        0.024      345.545       23.149      860.979
06/04/2014  11:24:00      192.067      123.501        5.535       66.275       42.272       37.114     4392.341     1786.930     1377.453        2.986        0.378      228.347       22.063        0.009      345.296       22.720      860.983
06/04/2014  11:25:00      106.046       50.385       25.651       79.852       70.107       57.839     6376.373     4914.958     3345.383        1.454        0.732      117.406       31.340        0.071      346.154       24.197      860.947
06/04/2014  11:26:00      178.318       79.903       63.447       85.898       81.015       76.042     7378.451     6563.437     5782.395        3.096        0.986      195.402       55.571        0.081      345.829       23.637      860.963
06/04/2014  11:27:00        0.675       65.032       49.869       40.706       56.656       61.221     1656.985     3209.935     3747.968        0.766        0.431       65.035       38.625        0.353      346.458       24.720      860.942
06/04/2014  11:28:00       39.929       78.832        9.634       54.210       65.844       41.576     2938.722     4335.450     1728.528        0.845        0.450       88.368       26.112        0.087      346.421       24.656      860.944
06/04/2014  11:29:00        7.325      110.723       12.683       53.326       78.712       38.782     2843.698     6195.629     1504.081        1.151        0.527      110.965       39.493        0.127      346.450       24.706      860.947
06/04/2014  11:30:00      135.415       62.975       19.784       69.230       48.346       40.250     4792.761     2337.361     1620.037        1.572        0.438      149.342       32.024        0.046      345.914       23.785      860.935
06/04/2014  11:31:00       43.075      101.756       -4.965       69.276       83.679       42.647     4799.168     7002.218     1818.747        1.292        0.681      110.498       37.314        0.114      345.777       23.547      860.926
06/04/2014  11:32:00       -8.611      192.938      -21.908       34.784       41.013       25.429     1209.923     1682.100      646.658        2.066        0.177      193.130       18.258        0.009      345.461       23.007      860.929
06/04/2014  11:33:00      -82.272      104.129      -12.507       57.158       48.141       29.615     3267.034     2317.510      877.044        1.211        0.323      132.709       17.332        0.017      345.699       23.418      860.901
06/04/2014  11:34:00     -149.496       37.855      -23.545       87.174       69.167       42.178     7599.260     4784.137     1779.001        1.925        0.708      154.214       27.737        0.032      345.373       22.856      860.888
06/04/2014  11:35:00      -23.026       28.816      -10.408       42.316       44.597       29.176     1790.648     1988.876      851.218        0.305        0.232       36.886       33.772        0.838      345.726       23.463      860.884
06/04/2014  11:36:00      105.911       58.512        5.372       33.599       47.057       33.733     1128.884     2214.371     1137.936        0.957        0.224      120.999       14.231        0.014      345.423       22.943      860.854
06/04/2014  11:37:00       70.797       46.102      -25.076       33.708       28.448       32.269     1136.260      809.275     1041.318        0.538        0.149       84.484       25.065        0.088      345.415       22.928      860.853
06/04/2014  11:38:00       61.650       42.321        3.615       35.974       34.759       29.876     1294.110     1208.198      892.589        0.450        0.170       74.778       12.178        0.027      345.970       23.882      860.846
06/04/2014  11:39:00       86.449       36.418       18.685       52.166       48.637       37.626     2721.325     2365.559     1415.687        0.782        0.325       93.807       24.853        0.070      346.039       23.999      860.843
06/04/2014  11:40:00       63.054       75.523       56.578       86.603       69.435       48.471     7500.109     4821.203     2349.391        1.377        0.734       98.385       45.611        0.215      346.691       25.122      860.821
06/04/2014  11:41:00       60.255       64.163       46.523       55.247       54.401       40.183     3052.222     2959.454     1614.681        0.877        0.381       88.020       21.645        0.060      346.163       24.213      860.822
06/04/2014  11:42:00       47.395       46.475       -1.817       37.649       26.492       29.642     1417.448      701.852      878.654        0.370        0.150       66.379       11.877        0.032      345.987       23.911      860.811
06/04/2014  11:43:00      -27.514      -52.702       28.862       59.751      102.070       47.093     3570.173    10418.335     2217.752        1.028        0.810       59.452       52.812        0.789      346.398       24.618      860.806
06/04/2014  11:44:00       78.649       68.786       62.045       70.396       79.502       66.529     4955.560     6320.635     4426.090        1.523        0.785      104.486       48.025        0.211      346.274       24.402      860.825
06/04/2014  11:45:00       60.772       47.156      103.723       83.570      126.075       79.570     6983.862    15894.960     6331.312        2.294        1.461       76.921       85.555        1.237      346.360       24.551      860.832
06/04/2014  11:46:00      114.305       75.578       96.197       83.281       82.643       74.452     6935.708     6829.945     5543.134        2.367        0.965      137.032       70.580        0.265      345.910       23.777      860.836
06/04/2014  11:47:00      129.314       85.115       90.442       74.647       73.503       70.577     5572.249     5402.663     4981.118        2.405        0.798      154.811       50.682        0.107      345.840       23.656      860.818
06/04/2014  11:48:00      149.423       98.204       43.563      116.064       62.940       49.811    13470.900     3961.384     2481.124        2.689        0.996      178.805       57.242        0.102      346.106       24.113      860.817
06/04/2014  11:49:00       90.432       19.782       28.892       78.445       48.877       53.547     6153.556     2389.006     2867.277        1.040        0.570       92.570       42.720        0.213      346.034       23.993      860.819
06/04/2014  11:50:00       33.164       11.449        4.315       40.002      116.546       44.204     1600.171    13582.892     1953.955        0.919        0.857       35.085       30.267        0.744      346.188       24.256      860.804
06/04/2014  11:51:00      -14.950      111.879      -24.743       32.357       40.902       18.833     1046.992     1672.936      354.679        0.821        0.154      112.873       19.519        0.030      345.852       23.679      860.783
06/04/2014  11:52:00       -1.500        5.207       33.729       35.396       22.650       29.555     1252.874      513.015      873.474        0.190        0.132        5.419       26.491       23.901      346.926       25.526      860.767
06/04/2014  11:53:00       17.593       44.349       40.042       47.362       45.597       37.742     2243.146     2079.045     1424.461        0.481        0.287       47.711       16.227        0.116      346.955       25.576      860.772
06/04/2014  11:54:00       98.082       65.619       53.193      104.261       91.701       91.206    10870.314     8409.102     8318.548        2.217        1.380      118.008       81.322        0.475      346.103       24.110      860.765
06/04/2014  11:55:00        9.008        0.721       14.127       33.365       71.217       30.370     1113.209     5071.840      922.340        0.369        0.355        9.037       35.654       15.565      346.434       24.679      860.772
06/04/2014  11:56:00      -66.379       59.407      -22.211       43.290       51.090       23.414     1874.066     2610.182      548.232        0.673        0.252       89.081       22.358        0.063      345.928       23.809      860.757
06/04/2014  11:57:00      -28.365        9.187       14.822       35.927       41.716       26.366     1290.716     1740.196      695.163        0.242        0.186       29.816       20.889        0.491      346.422       24.659      860.757
06/04/2014  11:58:00       14.427       44.248       19.578       30.362       44.887       25.871      921.823     2014.817      669.286        0.308        0.180       46.541       24.797        0.284      346.823       25.349      860.745
06/04/2014  11:59:00       12.691       54.815       16.475       29.621       49.132       31.341      877.377     2413.983      982.264        0.385        0.214       56.265       25.601        0.207      346.711       25.156      860.734
06/04/2014  12:00:00       78.387       45.765        3.031       38.031       40.590       36.143     1446.390     1647.520     1306.303        0.632        0.220       90.768       22.303        0.060      346.161       24.210      860.728
06/04/2014  12:01:00       94.066       96.073       15.859       47.559       49.157       50.165     2261.851     2416.450     2516.493        1.276        0.360      134.456       29.401        0.048      346.023       23.972      860.719
06/04/2014  12:02:00       48.366       27.360       35.919       56.691       62.229       41.854     3213.829     3872.389     1751.737        0.661        0.442       55.569       32.772        0.348      346.728       25.184      860.707
06/04/2014  12:03:00       37.998      -14.922       18.807       42.881       57.702       37.121     1838.822     3329.485     1377.945        0.428        0.327       40.824       31.954        0.613      346.990       25.636      860.687
06/04/2014  12:04:00       12.690       16.646       25.892       49.294       68.036       40.318     2429.870     4628.912     1625.564        0.489        0.434       20.931       42.057        4.037      346.980       25.619      860.680
06/04/2014  12:05:00       43.708       92.260      109.455       74.889      105.516       61.720     5608.399    11133.524     3809.376        2.147        1.028      102.090       61.032        0.357      346.971       25.600      860.642
06/04/2014  12:06:00       64.184     -106.264      -10.559      106.350       95.749       69.434    11310.386     9167.876     4821.045        2.041        1.265      124.144       48.875        0.155      346.386       24.595      860.647
06/04/2014  12:07:00      -18.321       -9.295       44.049       87.623       71.026       54.946     7677.794     5044.686     3019.045        0.905        0.787       20.544       42.343        4.248      346.952       25.571      860.615
06/04/2014  12:08:00      -25.000     -107.744       26.659       44.822      102.668       33.980     2008.978    10540.727     1154.621        1.332        0.685      110.606       43.712        0.156      346.732       25.192      860.621
06/04/2014  12:09:00      -12.301      -99.174       -0.222       47.484       89.418       50.808     2254.712     7995.503     2581.414        1.141        0.642       99.934       56.968        0.325      346.964       25.592      860.624
06/04/2014  12:10:00      -87.137      -73.956       -0.186       65.972       58.063       39.245     4352.356     3371.282     1540.186        1.116        0.463      114.290       32.627        0.081      346.371       24.571      860.629
06/04/2014  12:11:00      -13.245      -35.210       -1.950       63.545       57.548       53.627     4037.967     3311.781     2875.877        0.582        0.511       37.619       48.420        1.657      347.013       25.677      860.612
06/04/2014  12:12:00      -35.083      -67.150        6.414       65.968       63.851       44.351     4351.770     4076.974     1967.040        0.809        0.520       75.762       35.390        0.218      346.608       24.978      860.596
06/04/2014  12:13:00      -84.809      -77.269       -6.225       73.926       62.018       37.423     5465.103     3846.215     1400.451        1.195        0.536      114.731       25.116        0.048      346.227       24.323      860.594
06/04/2014  12:14:00     -170.127      -58.120      -12.947       64.932       79.446       50.926     4216.135     6311.729     2593.455        2.280        0.656      179.780       27.313        0.023      346.035       23.992      860.554
06/04/2014  12:15:00      -74.637     -101.468       13.768       71.162       49.664       43.342     5064.070     2466.479     1878.530        1.273        0.470      125.962       26.341        0.044      346.241       24.346      860.552
06/04/2014  12:16:00      -19.314      -95.434       -0.767       30.971       32.263       27.319      959.210     1040.905      746.347        0.611        0.137       97.369       16.463        0.029      346.155       24.199      860.550
06/04/2014  12:17:00      -17.936       14.932       12.265       57.982       61.781       30.820     3361.932     3816.884      949.890        0.441        0.406       23.338       30.604        1.720      346.947       25.563      860.543
06/04/2014  12:18:00       86.971       63.758       23.718       67.996       58.117       42.770     4623.405     3377.619     1829.239        1.101        0.492      107.838       36.247        0.113      347.175       25.954      860.526
06/04/2014  12:19:00       27.569        9.442       33.338       55.434       68.829       43.162     3072.976     4737.441     1862.979        0.582        0.484       29.141       21.650        0.552      347.210       26.014      860.523
06/04/2014  12:20:00       62.891       46.407       14.819       64.910       54.426       51.205     4213.255     2962.193     2621.920        0.806        0.490       78.159       43.681        0.312      347.340       26.239      860.511
06/04/2014  12:21:00      123.067       55.243       48.334       77.893       70.330       53.710     6067.396     4946.328     2884.775        1.721        0.695      134.897       39.401        0.085      346.933       25.535      860.506
06/04/2014  12:22:00      107.501      100.467       76.382       75.578       54.863       81.734     5712.034     3009.975     6680.384        2.144        0.770      147.140       52.327        0.126      346.565       24.902      860.500
06/04/2014  12:23:00      199.354      155.180      145.928      125.785       91.545       90.540    15821.901     8380.568     8197.550        5.875        1.620      252.631       66.905        0.070      346.576       24.920      860.477
06/04/2014  12:24:00      145.917      120.593       69.723       86.756       81.632       92.742     7526.669     6663.770     8601.153        3.174        1.140      189.300       36.052        0.036      346.746       25.214      860.486
06/04/2014  12:25:00      153.034      132.598       16.155       70.280       58.970       60.746     4939.248     3477.406     3690.047        2.668        0.605      202.489       40.076        0.039      346.353       24.536      860.492
06/04/2014  12:26:00      184.205      117.870        3.258       82.180       70.967       48.261     6753.479     5036.346     2329.153        3.097        0.706      218.689       30.344        0.019      346.218       24.305      860.483
06/04/2014  12:27:00      173.072      111.305       51.418      104.541       79.701       60.725    10928.784     6352.257     3687.479        3.297        1.048      205.773       38.666        0.035      346.610       24.979      860.445
06/04/2014  12:28:00       49.311      120.837       11.964       76.990       87.161       45.129     5927.524     7597.099     2036.583        1.637        0.778      130.511       31.887        0.060      346.953       25.570      860.438
06/04/2014  12:29:00       18.314      -10.899       24.056       40.662       51.329       34.392     1653.372     2634.668     1182.836        0.325        0.274       21.312       11.541        0.293      347.001       25.656      860.432
06/04/2014  12:30:00       78.135       59.946       28.634       48.258       83.201       51.843     2328.851     6922.482     2687.705        1.123        0.597       98.481       44.256        0.202      347.233       26.054      860.421
06/04/2014  12:31:00       95.590       77.509       -0.300       94.435       67.597       50.910     8917.914     4569.355     2591.791        1.561        0.804      123.066       33.239        0.073      346.522       24.827      860.428
06/04/2014  12:32:00       49.725      100.169        1.843       82.957       65.285       40.783     6881.905     4262.108     1663.253        1.266        0.640      111.832       34.784        0.097      346.710       25.153      860.425
06/04/2014  12:33:00       85.173       73.322        2.657       69.934       48.167       41.912     4890.798     2320.096     1756.592        1.080        0.448      112.386       28.440        0.064      346.895       25.472      860.409
06/04/2014  12:34:00       43.785      119.120       -1.502       92.355       79.406       53.165     8529.457     6305.377     2826.481        1.688        0.883      126.912       44.562        0.123      346.973       25.604      860.408
06/04/2014  12:35:00      157.554      115.340       19.570       71.474       66.527       68.373     5108.480     4425.799     4674.810        2.636        0.710      195.261       25.885        0.018      346.868       25.420      860.411
06/04/2014  12:36:00      219.298      153.716       73.388      133.704       95.426       97.882    17876.770     9106.165     9580.823        5.683        1.828      267.806       64.790        0.059      346.705       25.142      860.387
06/04/2014  12:37:00       78.566       71.862       93.264       72.122       76.948       67.655     5201.541     5920.929     4577.135        1.786        0.785      106.474       59.297        0.310      346.777       25.267      860.419
06/04/2014  12:38:00       34.938       32.523       40.335       62.094       39.471       45.098     3855.632     1557.936     2033.809        0.567        0.372       47.732       40.006        0.702      346.922       25.518      860.430
06/04/2014  12:39:00       45.849       54.732       26.936       38.587       45.505       40.146     1488.939     2070.744     1611.675        0.550        0.259       71.398       26.673        0.140      346.619       24.997      860.411
06/04/2014  12:40:00       86.244       70.720       29.071       33.170       39.356       47.444     1100.247     1548.868     2250.960        0.909        0.245      111.532       31.785        0.081      346.429       24.671      860.398
06/04/2014  12:41:00      100.043       55.315       22.207       74.221       74.714       56.271     5508.768     5582.209     3166.442        1.391        0.713      114.317       49.344        0.186      346.151       24.191      860.399
06/04/2014  12:42:00       54.260       48.122       24.622       75.580       65.735       42.041     5712.341     4321.155     1767.439        0.883        0.590       72.525       41.313        0.324      346.710       25.153      860.392
06/04/2014  12:43:00       94.168       59.759       55.325       80.153       71.447       63.201     6424.515     5104.710     3994.411        1.551        0.776      111.529       50.021        0.201      346.816       25.335      860.381
06/04/2014  12:44:00     -108.931      -90.020      -21.291       95.311       63.156       38.220     9084.206     3988.654     1460.788        1.748        0.727      141.313       37.727        0.071      346.400       24.620      860.357
06/04/2014  12:45:00      -59.573      -59.426        7.077       87.590       78.019       51.471     7671.992     6087.011     2649.222        1.177        0.820       84.145       63.267        0.565      347.154       25.919      860.345
06/04/2014  12:46:00       77.485     -114.953      -22.093       71.603       92.169       57.668     5126.963     8495.177     3325.637        1.832        0.847      138.630       65.303        0.222      346.815       25.333      860.338
06/04/2014  12:47:00        2.980     -126.403       -3.419       60.717       89.363       59.234     3686.562     7985.800     3508.714        1.559        0.759      126.438       60.899        0.232      346.918       25.511      860.308
06/04/2014  12:48:00       40.577      -75.882       22.947       61.987       76.964       50.315     3842.367     5923.531     2531.573        1.011        0.615       86.049       51.541        0.359      347.152       25.915      860.294
06/04/2014  12:49:00       78.029       -8.784       50.429       78.825      130.408       86.869     6213.330    17006.129     7546.302        1.973        1.538       78.522       95.602        1.482      347.121       25.859      860.282
06/04/2014  12:50:00       51.811       32.389       19.337       79.212      135.848       56.088     6274.519    18454.764     3145.812        1.599        1.394       61.102       10.956        0.032      347.174       25.952      860.286
06/04/2014  12:51:00       65.856      134.573        3.543      103.527      112.437       76.842    10717.924    12641.990     5904.676        2.586        1.463      149.823       63.789        0.181      346.978       25.613      860.291
06/04/2014  12:52:00      141.868      143.003       -4.951       75.245       65.442       61.733     5661.825     4282.708     3810.998        2.718        0.688      201.436       48.143        0.057      346.529       24.839      860.324
06/04/2014  12:53:00      111.914      116.782        3.104       63.456       57.306       51.394     4026.612     3283.989     2641.380        1.806        0.498      161.749       37.548        0.054      346.608       24.975      860.324
06/04/2014  12:54:00      112.027      108.645       12.006       55.829       37.679       37.562     3116.889     1419.688     1410.891        1.522        0.297      156.056       17.011        0.012      346.459       24.721      860.325
06/04/2014  12:55:00       29.393       53.665        2.893       49.796       54.374       30.499     2479.608     2956.508      930.211        0.506        0.318       61.187       22.542        0.136      346.746       25.215      860.327
06/04/2014  12:56:00       68.848       37.300       12.797       66.310       42.664       27.517     4397.001     1820.176      757.183        0.663        0.349       78.303       24.132        0.095      347.063       25.762      860.318
06/04/2014  12:57:00      113.182       64.553        0.715       36.029       50.426       28.313     1298.116     2542.775      801.614        1.081        0.232      130.297       23.148        0.032      346.306       24.457      860.307
06/04/2014  12:58:00      -25.286       15.640      -31.323       58.907       31.179       18.654     3469.999      972.116      347.977        0.333        0.240       29.732       23.663        0.633      346.251       24.363      860.300
06/04/2014  12:59:00      -49.321      -30.750      -14.307       26.524       37.468       22.474      703.548     1403.887      505.081        0.310        0.131       58.122       12.908        0.049      346.502       24.794      860.286
06/04/2014  13:00:00      -57.757       -9.712        9.592       66.635       38.373       26.983     4440.244     1472.509      728.084        0.508        0.332       58.568       27.296        0.217      347.403       26.348      860.254
06/04/2014  13:01:00      -90.422       -0.369        5.649       62.175       71.626       32.342     3865.734     5130.315     1045.987        0.912        0.502       90.422       27.543        0.093      347.134       25.884      860.241
06/04/2014  13:02:00      -93.375       38.015      -10.581       37.201       28.522       25.008     1383.919      813.494      625.376        0.655        0.141      100.817       15.306        0.023      346.646       25.043      860.234
06/04/2014  13:03:00      -67.699       36.446        0.957       48.526       41.939       29.924     2354.807     1758.901      895.434        0.546        0.250       76.886       26.410        0.118      347.304       26.176      860.224
06/04/2014  13:04:00       23.418      -23.881       -2.239       26.801       45.418       27.707      718.305     2062.751      767.689        0.234        0.177       33.447       15.751        0.222      347.304       26.177      860.199
06/04/2014  13:05:00       27.383      -15.828        5.601       44.788       28.595       23.140     2006.000      817.686      535.473        0.219        0.168       31.628       24.314        0.591      347.237       26.062      860.188
06/04/2014  13:06:00       74.579       76.115       10.544       41.297       51.275       43.399     1705.470     2629.138     1883.512        0.884        0.311      106.562       31.158        0.085      346.488       24.773      860.170
06/04/2014  13:07:00      125.969       63.481       -3.058       24.103       20.937       25.925      580.944      438.345      672.095        1.080        0.085      141.060        4.370        0.001      346.280       24.413      860.145
06/04/2014  13:08:00       57.330       41.959       28.920       36.965       41.288       31.558     1366.390     1704.719      995.916        0.497        0.203       71.045       28.183        0.157      346.480       24.759      860.133
06/04/2014  13:09:00       22.632      -12.986       11.004       36.130       59.419       35.749     1305.368     3530.582     1277.957        0.346        0.306       26.093       30.540        1.370      347.109       25.840      860.122
06/04/2014  13:10:00       17.115       -0.862      -11.660       64.433       49.561       44.885     4151.604     2456.260     2014.666        0.452        0.431       17.137       42.746        6.222      346.572       24.916      860.123
06/04/2014  13:11:00      -17.779        9.773       -9.304       53.845       65.900       46.940     2899.237     4342.745     2203.353        0.497        0.472       20.288       42.005        4.287      346.771       25.259      860.116
06/04/2014  13:12:00      -40.079       75.608      -14.518       44.865       44.915       33.268     2012.853     2017.357     1106.790        0.633        0.257       85.574       35.508        0.172      346.746       25.216      860.094
06/04/2014  13:13:00     -248.968       55.532      -27.932       59.581       46.087       43.855     3549.856     2124.025     1923.221        3.672        0.380      255.086       36.426        0.020      346.546       24.867      860.077
06/04/2014  13:14:00     -186.279      -44.450      -11.507       51.551       52.441       29.537     2657.536     2750.042      872.430        2.154        0.314      191.509       26.593        0.019      346.575       24.919      860.080
06/04/2014  13:15:00     -175.607      -64.140       -9.650       56.757       55.763       28.899     3221.400     3109.482      835.126        2.110        0.358      186.954       23.580        0.016      346.711       25.153      860.056
06/04/2014  13:16:00     -182.858      -48.530       -7.298      111.007       59.123       31.137    12322.499     3495.488      969.542        2.631        0.839      189.189       31.783        0.028      347.020       25.686      860.053
06/04/2014  13:17:00     -268.048      -89.268      -19.993       59.717       60.727       34.902     3566.156     3687.776     1218.134        4.434        0.424      282.521       19.059        0.005      346.553       24.877      860.022
06/04/2014  13:18:00     -184.808       13.944      -26.610       37.612       21.600       20.965     1414.694      466.560      439.524        1.869        0.116      185.333       16.648        0.008      346.390       24.600      860.021
06/04/2014  13:19:00     -108.945       15.742       -2.757       42.605       37.937       28.100     1815.224     1439.201      789.634        0.808        0.202      110.076       26.010        0.056      347.000       25.652      860.006
06/04/2014  13:20:00      -53.672       -2.280       -4.840       38.278       29.308       22.287     1465.193      858.947      496.697        0.286        0.141       53.721       10.030        0.035      347.132       25.880      859.991
06/04/2014  13:21:00      -77.701      -36.337       -8.831       70.468       43.296       23.309     4965.716     1874.549      543.317        0.741        0.369       85.778       16.289        0.036      346.816       25.335      859.981
06/04/2014  13:22:00      -63.341       16.923       -4.670       39.524       35.700       25.370     1562.114     1274.457      643.637        0.390        0.174       65.562       23.396        0.127      347.358       26.268      859.955
06/04/2014  13:23:00      -78.083       12.054       -7.468       53.531       40.492       27.188     2865.580     1639.563      739.173        0.577        0.262       79.008       28.564        0.131      347.472       26.467      859.953
06/04/2014  13:24:00      -32.203       53.324        4.565       36.605       67.899       29.698     1339.956     4610.300      881.998        0.537        0.342       62.293       30.441        0.239      347.606       26.697      859.942
06/04/2014  13:25:00       -1.811      104.401        7.777       76.049       75.053       43.536     5783.506     5632.987     1895.384        1.213        0.666      104.417       38.819        0.138      347.357       26.268      859.946
06/04/2014  13:26:00       -3.084      237.520      -24.356       84.316       95.239       50.108     7109.271     9070.511     2510.820        3.785        0.935      237.540       46.336        0.038      347.136       25.884      859.952
06/04/2014  13:27:00       56.418      251.144      -24.222      106.066      122.554       74.975    11250.060    15019.453     5621.201        4.936        1.595      257.403       73.220        0.081      347.288       26.146      859.918
06/04/2014  13:28:00      -28.515      281.285      -31.211       56.013      108.828       42.925     3137.473    11843.491     1842.560        4.886        0.841      282.726       42.515        0.023      347.100       25.823      859.928
06/04/2014  13:29:00       -6.681      189.035      -20.051       35.541       58.600       29.980     1263.153     3433.903      898.784        2.089        0.280      189.153       29.454        0.024      347.158       25.925      859.932
06/04/2014  13:30:00      -23.291      107.592       -9.591       31.724       69.536       25.207     1006.443     4835.263      635.394        0.934        0.324      110.084       28.666        0.068      347.162       25.930      859.910
06/04/2014  13:31:00       74.139       73.998       17.568      107.597       90.774       45.992    11577.067     8239.891     2115.227        1.660        1.097      104.749       54.266        0.268      347.735       26.919      859.912
06/04/2014  13:32:00      226.309      138.618       28.665      139.103       94.762       66.822    19349.612     8979.868     4465.209        5.202        1.640      265.388       47.498        0.032      347.312       26.187      859.899
06/04/2014  13:33:00      316.434      179.456       29.106      135.165       87.306       77.465    18269.669     7622.417     6000.799        8.253        1.595      363.779       22.149        0.004      347.293       26.155      859.901
06/04/2014  13:34:00      244.007      164.284       36.261       72.405       79.175       67.677     5242.498     6268.674     4580.137        5.196        0.805      294.158       31.881        0.012      347.138       25.886      859.909
06/04/2014  13:35:00      199.375      156.346       10.220      114.013       74.423       64.771    12998.927     5538.749     4195.315        4.351        1.137      253.366       47.763        0.036      346.956       25.575      859.909
06/04/2014  13:36:00      116.773       66.149       10.220       84.829       57.422       43.117     7196.000     3297.328     1859.045        1.523        0.618      134.207       42.112        0.098      347.061       25.756      859.914
06/04/2014  13:37:00       24.419      199.795      -31.350       42.643       70.720       30.921     1818.461     5001.257      956.092        2.463        0.389      201.282       32.086        0.025      346.981       25.618      859.905
06/04/2014  13:38:00        6.531       72.094       19.691       55.711       60.636       37.832     3103.752     3676.716     1431.243        0.692        0.411       72.389       39.438        0.297      347.298       26.167      859.896
06/04/2014  13:39:00       88.738       58.427       38.719       83.953       54.940       49.492     7048.051     3018.426     2449.499        1.265        0.626      106.246       30.745        0.084      347.362       26.275      859.879
06/04/2014  13:40:00       46.255        7.739       -2.775       40.852       48.122       30.088     1668.881     2315.715      905.305        0.355        0.244       46.898       10.743        0.052      347.228       26.046      859.858
06/04/2014  13:41:00       46.449     -106.515       -3.927       71.025       74.869       47.028     5044.574     5605.389     2211.631        1.319        0.643      116.202       49.537        0.182      347.418       26.372      859.833
06/04/2014  13:42:00       71.945     -127.144       -8.622       42.235       68.724       26.735     1783.812     4722.961      714.736        1.432        0.361      146.087       19.845        0.018      346.913       25.504      859.835
06/04/2014  13:43:00       23.203      -22.452        9.820       32.272       65.106       40.713     1041.493     4238.836     1657.572        0.404        0.347       32.287       42.874        1.763      347.291       26.154      859.827
06/04/2014  13:44:00        7.746       11.981       35.745       36.583       32.068       27.164     1338.349     1028.361      737.878        0.229        0.155       14.266       26.386        3.421      347.669       26.806      859.812
06/04/2014  13:45:00      -40.470       -4.642       19.040       46.252       31.140       31.767     2139.252      969.682     1009.126        0.307        0.206       40.736       31.252        0.589      348.312       27.917      859.804
06/04/2014  13:46:00     -114.898       -9.270      -18.535       61.631       43.693       36.612     3798.352     1909.077     1340.420        1.034        0.352      115.271       28.355        0.061      347.501       26.516      859.807
06/04/2014  13:47:00     -119.365       70.851      -22.630       68.129       80.035       38.252     4641.526     6405.567     1463.210        1.614        0.626      138.809       44.036        0.101      347.203       26.002      859.813
06/04/2014  13:48:00       -3.750       88.169        3.103       73.606       95.838       41.071     5417.843     9184.851     1686.853        1.204        0.814       88.249       42.551        0.232      347.449       26.427      859.802
06/04/2014  13:49:00      -13.616      204.706      -14.973       30.050      176.671       45.012      903.011    31212.744     2026.121        3.822        1.707      205.158       79.307        0.149      347.366       26.284      859.797
06/04/2014  13:50:00      -57.016      125.035        1.952       84.528       83.851       49.705     7145.030     7031.016     2470.546        1.776        0.832      137.421       36.110        0.069      347.722       26.896      859.789
06/04/2014  13:51:00        2.248      261.108      -19.086       84.299      101.914       61.109     7106.242    10386.483     3734.324        4.488        1.061      261.118       62.336        0.057      347.504       26.518      859.793
06/04/2014  13:52:00       24.772       90.710        6.739       75.563       47.968       45.826     5709.823     2300.967     2100.053        0.950        0.506       94.032       30.365        0.104      347.832       27.086      859.757
06/04/2014  13:53:00      -11.686       58.250      -12.066       51.655       58.179       32.331     2668.244     3384.742     1045.311        0.539        0.355       59.410       22.990        0.150      348.002       27.380      859.755
06/04/2014  13:54:00      -12.632      145.423       13.123       61.949       96.071       50.411     3837.636     9229.612     2541.223        1.854        0.780      145.971       50.376        0.119      347.928       27.253      859.762
06/04/2014  13:55:00      -58.529      151.355       -1.996       63.998       73.313       48.613     4095.710     5374.776     2363.251        1.908        0.592      162.277       49.869        0.094      347.744       26.933      859.750
06/04/2014  13:56:00      -84.845       76.325        6.809       88.695       90.461       46.287     7866.810     8183.184     2142.527        1.563        0.910      114.123       38.306        0.113      347.805       27.040      859.730
06/04/2014  13:57:00      -35.943      254.861       -8.173       84.416      126.990       62.790     7125.981    16126.510     3942.532        4.675        1.360      257.383       70.763        0.076      347.432       26.393      859.744
06/04/2014  13:58:00      -36.519      121.437       -2.848       79.372       71.945       53.977     6299.912     5176.075     2913.565        1.524        0.719      126.809       41.049        0.105      347.557       26.611      859.742
06/04/2014  13:59:00       -5.728       99.203        1.144       53.509       86.865       26.839     2863.179     7545.499      720.329        1.050        0.556       99.368       32.137        0.105      347.671       26.808      859.725
06/04/2014  14:00:00       10.672      141.807       10.073       65.188      108.291       63.985     4249.460    11726.986     4094.044        2.019        1.004      142.208       57.279        0.162      347.592       26.672      859.728
06/04/2014  14:01:00      -96.092      206.524      -23.169       80.058      102.838       49.481     6409.216    10575.711     2448.363        3.592        0.972      227.785       47.683        0.044      347.268       26.112      859.742
06/04/2014  14:02:00     -117.098       66.779      -19.393       59.065       94.793       31.447     3488.644     8985.635      988.901        1.600        0.673      134.801       27.003        0.040      347.187       25.974      859.746
06/04/2014  14:03:00     -173.756       51.588      -29.252       83.897       96.513       40.111     7038.625     9314.840     1608.914        2.583        0.898      181.253       42.096        0.054      347.075       25.778      859.720
06/04/2014  14:04:00      -21.574       42.432       14.516       97.650       77.864       43.415     9535.529     6062.865     1884.828        0.998        0.874       47.602       52.723        1.227      347.624       26.727      859.701
06/04/2014  14:05:00       56.672      149.457        9.019       71.095      103.733       60.839     5054.523    10760.604     3701.404        2.257        0.976      159.841       54.992        0.118      347.446       26.420      859.688
06/04/2014  14:06:00     -180.449      256.209      -42.018      101.099       80.454       61.816    10220.982     6472.805     3821.232        6.024        1.026      313.377       64.641        0.043      347.365       26.278      859.713
06/04/2014  14:07:00     -143.179      208.728      -20.310       71.259      106.425       54.604     5077.878    11326.199     2981.594        4.193        0.969      253.115       55.128        0.047      347.341       26.237      859.707
06/04/2014  14:08:00     -183.628      210.108      -41.283       57.404       94.164       39.974     3295.259     8866.779     1597.944        4.666        0.688      279.042       31.842        0.013      347.315       26.192      859.698
06/04/2014  14:09:00     -175.136        6.135      -11.921       62.236       73.676       37.801     3873.274     5428.142     1428.922        2.079        0.537      175.243       27.629        0.025      347.340       26.238      859.672
06/04/2014  14:10:00     -182.061       70.119       -5.778      137.141       77.697       58.424    18807.763     6036.867     3413.414        3.317        1.413      195.097       72.196        0.137      347.625       26.730      859.674
06/04/2014  14:11:00     -318.853       -8.799      -32.342       76.993      107.332       49.745     5927.945    11520.229     2474.570        6.135        0.996      318.974       46.145        0.021      347.214       26.017      859.672
06/04/2014  14:12:00     -269.919       50.031      -38.458       85.547       86.774       44.391     7318.248     7529.711     1970.543        4.683        0.841      274.516       47.453        0.030      347.384       26.309      859.682
06/04/2014  14:13:00     -188.655       90.312      -26.805       90.036      125.117       48.373     8106.479    15654.363     2339.953        3.528        1.305      209.157       39.479        0.036      347.659       26.783      859.679
06/04/2014  14:14:00     -230.614      234.670      -60.422      100.772      108.688       62.960    10155.081    11813.133     3963.951        6.891        1.297      329.018       65.391        0.039      347.418       26.368      859.703
06/04/2014  14:15:00     -103.453       97.006      -27.977       69.981       69.604       36.015     4897.286     4844.683     1297.076        1.596        0.552      141.819       33.952        0.057      347.144       25.899      859.738
06/04/2014  14:16:00      -66.549       56.853       -4.307       75.319       39.758       32.631     5672.879     1580.731     1064.793        0.800        0.416       87.528       31.901        0.133      347.619       26.719      859.715
06/04/2014  14:17:00      -21.995      169.760      -13.011       30.778       57.480       44.428      947.295     3303.904     1973.875        1.785        0.311      171.179       43.256        0.064      347.453       26.434      859.695
06/04/2014  14:18:00      -36.593       81.823       13.224       40.388       62.432       41.451     1631.198     3897.702     1718.219        0.773        0.362       89.633       31.680        0.125      347.963       27.314      859.677
06/04/2014  14:19:00     -147.559      -38.138       -4.610       81.261      114.205       50.128     6603.414    13042.709     2512.783        2.270        1.108      152.408       47.598        0.098      347.638       26.750      859.676
06/04/2014  14:20:00      -91.822       26.575       -6.530       68.196       32.632       24.915     4650.694     1064.875      620.733        0.776        0.317       95.591       23.332        0.060      347.761       26.963      859.661
06/04/2014  14:21:00     -192.715       53.590      -20.947      120.242       79.509       37.325    14458.052     6321.708     1393.124        3.131        1.109      200.027       30.846        0.024      347.284       26.140      859.663
06/04/2014  14:22:00     -124.390       98.128      -34.111       54.961       39.478       31.955     3020.738     1558.491     1021.128        1.593        0.280      158.436       21.151        0.018      347.294       26.157      859.654
06/04/2014  14:23:00      -51.596       25.856       -9.661       50.128       70.757       31.740     2512.788     5006.534     1007.422        0.597        0.426       57.712       15.008        0.068      347.395       26.333      859.629
06/04/2014  14:24:00      -83.319      127.558        2.613       63.995       84.985       46.255     4095.326     7222.499     2139.542        1.834        0.673      152.359       52.168        0.117      347.683       26.830      859.624
06/04/2014  14:25:00     -140.292       92.704      -34.525       77.658       82.925       37.515     6030.782     6876.576     1407.399        2.189        0.716      168.155       49.100        0.085      347.354       26.260      859.621
06/04/2014  14:26:00       -3.074       62.706       19.681       67.398       40.970       48.643     4542.548     1678.568     2366.103        0.646        0.429       62.782       44.100        0.493      347.793       27.021      859.620
06/04/2014  14:27:00       99.383       90.476        1.499       67.931       61.984       45.970     4614.615     3841.958     2113.204        1.432        0.528      134.398       36.420        0.073      347.521       26.549      859.624
06/04/2014  14:28:00       71.993       56.694       35.251       34.217       34.473       29.239     1170.784     1188.380      854.929        0.643        0.161       91.636       16.958        0.034      347.451       26.430      859.612
06/04/2014  14:29:00       52.071       29.335       61.670       74.264      100.939       79.009     5515.209    10188.609     6242.427        1.466        1.097       59.765       78.221        1.713      347.581       26.653      859.591
06/04/2014  14:30:00       -0.582       62.887       -3.772       26.046       60.532       24.015      678.420     3664.063      576.719        0.444        0.246       62.890       17.402        0.077      347.595       26.677      859.580
06/04/2014  14:31:00      101.875       68.371       18.664       55.110       44.216       36.103     3037.079     1955.044     1303.420        1.085        0.315      122.691       29.792        0.059      347.643       26.760      859.572
06/04/2014  14:32:00       51.500       27.557       20.572       76.708       60.002       45.029     5884.145     3600.242     2027.608        0.767        0.576       58.409       36.897        0.399      347.841       27.103      859.557
06/04/2014  14:33:00       78.155       36.060        9.839       39.683       30.707       30.250     1574.753      942.939      915.087        0.547        0.172       86.072       12.096        0.020      347.414       26.365      859.560
06/04/2014  14:34:00       49.216       71.846       -6.593       53.292       69.501       41.863     2840.085     4830.383     1752.523        0.852        0.471       87.087       35.319        0.164      347.754       26.952      859.549
06/04/2014  14:35:00       88.840       70.313       25.997       60.784       43.747       43.862     3694.752     1913.781     1923.863        1.052        0.377      113.298       16.718        0.022      348.011       27.395      859.527
06/04/2014  14:36:00      105.054       43.335       31.158       77.855       89.292       49.146     6061.470     7973.085     2415.313        1.516        0.822      113.641       19.295        0.029      347.977       27.337      859.513
06/04/2014  14:37:00       34.074       19.604       76.112       73.341       97.274       65.442     5378.959     9462.241     4282.635        1.323        0.956       39.311       60.016        2.331      348.330       27.946      859.475
06/04/2014  14:38:00      114.582      -65.001       45.110       98.556       99.691       66.847     9713.224     9938.351     4468.564        2.175        1.206      131.736       58.362        0.196      348.060       27.480      859.468
06/04/2014  14:39:00       12.434       48.410      104.647       48.304       64.719       58.242     2333.284     4188.587     3392.125        1.168        0.496       49.981       47.109        0.888      348.374       28.022      859.465
06/04/2014  14:40:00      161.204      140.889      135.362      140.534      111.951       89.847    19749.719    12533.063     8072.536        5.225        2.018      214.095       84.418        0.155      347.722       26.895      859.454
06/04/2014  14:41:00       86.364       48.235      142.807      100.333      107.524       88.231    10066.711    11561.388     7784.793        2.979        1.471       98.921       81.215        0.674      347.785       27.003      859.452
06/04/2014  14:42:00      162.579       70.780       89.047      121.624       92.906       95.180    14792.361     8631.450     9059.318        3.592        1.624      177.318       69.215        0.152      347.564       26.621      859.456
06/04/2014  14:43:00       68.752      -23.112       36.292       71.578      105.840       72.189     5123.384    11202.080     5211.261        1.405        1.077       72.532       74.681        1.060      347.929       27.255      859.437
06/04/2014  14:44:00       94.020      -19.943       32.973       57.146       57.954       40.556     3265.652     3358.723     1644.801        0.930        0.413       96.112       25.929        0.073      347.636       26.750      859.445
06/04/2014  14:45:00        4.301        5.916       23.473       24.159       31.948       32.341      583.655     1020.698     1045.943        0.163        0.133        7.314       27.687       14.330      348.036       27.439      859.440
06/04/2014  14:46:00      -23.987       51.471       22.673       51.329       37.438       37.088     2634.687     1401.573     1375.520        0.457        0.271       56.786       25.591        0.203      348.025       27.422      859.431
06/04/2014  14:47:00       51.111       17.993       19.703       78.844      101.267       65.474     6216.352    10254.970     4286.875        1.204        1.038       54.186       42.538        0.616      348.031       27.431      859.416
06/04/2014  14:48:00       68.496     -130.994       14.515       91.774      117.759       50.322     8422.395    13867.213     2532.275        2.344        1.241      147.822       64.046        0.188      347.850       27.117      859.416
06/04/2014  14:49:00      -83.716      -77.043      -13.565       66.668       54.908       45.669     4444.578     3014.893     2085.656        1.133        0.477      113.772       43.487        0.146      348.264       27.833      859.419
06/04/2014  14:50:00      -70.682      -18.049      -17.101       55.827      112.412       39.543     3116.610    12636.446     1563.657        1.146        0.866       72.950       31.049        0.181      348.430       28.120      859.444
06/04/2014  14:51:00        6.064      139.039       -9.441       55.774       93.160       40.059     3110.722     8678.844     1604.692        1.642        0.670      139.171       43.106        0.096      347.924       27.245      859.446
06/04/2014  14:52:00      -13.501      363.204      -53.193       74.469       65.830       42.839     5545.620     4333.652     1835.188        7.332        0.586      363.454       40.557        0.012      347.386       26.313      859.431
06/04/2014  14:53:00       31.810      295.759      -41.879       44.186       72.585       48.101     1952.408     5268.653     2313.672        4.988        0.477      297.464       42.382        0.020      347.398       26.335      859.425
06/04/2014  14:54:00       40.682      137.114       -5.858       36.538       65.327       41.871     1335.008     4267.586     1753.183        1.392        0.368      143.022       40.613        0.081      347.522       26.552      859.430
06/04/2014  14:55:00     -104.369       19.633      -24.830       73.309       30.906       21.333     5374.243      955.192      455.113        0.934        0.339      106.200       16.744        0.025      347.427       26.389      859.389
06/04/2014  14:56:00     -206.323      -64.984      -42.327      109.921       74.106       37.051    12082.627     5491.736     1372.746        3.376        0.947      216.315       52.786        0.060      347.343       26.241      859.358
06/04/2014  14:57:00       54.393     -133.523        6.865       99.151       95.718       60.111     9830.852     9161.842     3613.306        2.172        1.130      144.177       53.896        0.140      347.560       26.614      859.324
06/04/2014  14:58:00     -160.669      -37.916      -11.784       93.187       88.322       64.854     8683.856     7800.751     4206.055        2.404        1.035      165.082       51.529        0.097      347.926       27.248      859.317
06/04/2014  14:59:00     -203.803       -0.115      -13.001       88.118       54.118       48.037     7764.796     2928.781     2307.593        2.735        0.650      203.803       47.738        0.055      348.044       27.449      859.321
06/04/2014  15:00:00     -103.964     -110.467       14.301      132.506       72.386       49.949    17557.928     5239.721     2494.920        2.425        1.265      151.696       48.220        0.101      347.984       27.348      859.329
06/04/2014  15:01:00       11.882        7.174      -11.759       43.616       52.775       26.716     1902.389     2785.200      713.763        0.287        0.270       13.880       16.123        1.349      348.204       27.730      859.332
06/04/2014  15:02:00     -123.095       -9.586      -24.432       63.889       62.976       20.306     4081.830     3965.991      412.315        1.215        0.423      123.468       15.261        0.015      347.684       26.832      859.334
06/04/2014  15:03:00     -138.698      -57.960      -13.838       40.052       39.865       24.898     1604.178     1589.207      619.897        1.330        0.191      150.321       21.174        0.020      347.602       26.690      859.311
06/04/2014  15:04:00     -124.705       13.611      -12.010       53.060       44.841       27.274     2815.367     2010.697      743.870        1.072        0.278      125.446       30.517        0.059      347.643       26.762      859.302
06/04/2014  15:05:00      -38.248       18.643       19.936       37.255       47.889       26.417     1387.940     2293.311      697.878        0.329        0.219       42.549       20.804        0.239      348.422       28.108      859.287
06/04/2014  15:06:00      -57.220        3.277       -6.896       51.547       60.623       28.467     2657.083     3675.119      810.374        0.524        0.357       57.314       28.127        0.241      348.400       28.068      859.282
06/04/2014  15:07:00      -50.815       89.608      -16.710       50.688       84.632       38.432     2569.237     7162.593     1476.984        1.105        0.560      103.014       21.807        0.045      348.343       27.969      859.281
06/04/2014  15:08:00      -20.889      185.101      -37.162       78.665      135.978       30.859     6188.257    18490.003      952.265        3.085        1.282      186.275       29.257        0.025      348.080       27.514      859.274
06/04/2014  15:09:00      -61.518      170.899        2.007       51.710       82.525       49.045     2673.877     6810.401     2405.413        2.244        0.594      181.634       46.182        0.065      347.925       27.246      859.277
06/04/2014  15:10:00        3.954       37.995       28.706       35.082       32.968       32.859     1230.764     1086.869     1079.707        0.284        0.170       38.200       21.055        0.304      348.309       27.910      859.262
06/04/2014  15:11:00       -4.860      106.330       -9.436       37.187       51.384       28.651     1382.847     2640.296      820.895        0.813        0.242      106.441       20.247        0.036      348.088       27.527      859.268
06/04/2014  15:12:00       13.345      186.681      -23.606       61.161       69.791       44.182     3740.718     4870.853     1952.093        2.307        0.528      187.157       42.702        0.052      348.167       27.662      859.254
06/04/2014  15:13:00       39.226      120.390      -15.929       57.088       85.251       40.507     3258.989     7267.722     1640.818        1.422        0.608      126.619       46.308        0.134      347.710       26.875      859.246
06/04/2014  15:14:00        5.284      109.374       -7.839       75.716       66.052       34.056     5732.956     4362.874     1159.789        1.165        0.563      109.501       42.555        0.151      347.839       27.098      859.261
06/04/2014  15:15:00       80.448       54.881       15.793       47.826       37.219       32.341     2287.321     1385.237     1045.912        0.722        0.236       97.384       11.408        0.014      347.791       27.015      859.234
06/04/2014  15:16:00       15.355       82.880       -3.889       37.799       28.950       23.630     1428.764      838.111      558.386        0.497        0.141       84.290       18.578        0.049      347.957       27.303      859.215
06/04/2014  15:17:00      -24.544       -9.630        1.835       76.870       35.048       24.570     5909.063     1228.351      603.691        0.422        0.387       26.366       27.073        1.054      348.193       27.712      859.215
06/04/2014  15:18:00     -111.386      -40.079        8.131      133.428       72.984       48.036    17802.900     5326.648     2307.460        1.975        1.272      118.377       49.732        0.176      348.212       27.741      859.219
06/04/2014  15:19:00      -18.654       90.157        7.508       75.443       66.832       45.546     5691.624     4466.481     2074.422        1.038        0.612       92.067       49.394        0.288      348.259       27.824      859.212
06/04/2014  15:20:00       56.701       42.813       -2.326       23.934       32.033       33.345      572.822     1026.143     1111.869        0.388        0.136       71.049       13.838        0.038      348.040       27.447      859.196
06/04/2014  15:21:00      -29.167      132.426      -15.357       45.993       47.616       24.899     2115.368     2267.320      619.964        1.181        0.250      135.600       24.500        0.033      348.120       27.583      859.179
06/04/2014  15:22:00      -48.665      140.704       15.162       64.946       93.883       54.168     4217.957     8813.968     2934.172        1.918        0.798      148.882       47.440        0.102      348.168       27.667      859.148
06/04/2014  15:23:00      -27.649      128.480      -13.919       55.749       86.074       42.632     3107.939     7408.776     1817.486        1.490        0.617      131.421       45.609        0.120      348.147       27.630      859.144
06/04/2014  15:24:00     -207.750       65.377      -24.426       89.330       98.931       46.820     7979.883     9787.245     2192.158        3.399        0.998      217.794       28.268        0.017      348.268       27.836      859.167
06/04/2014  15:25:00     -132.085       69.896       -3.684       93.029       60.465       47.219     8654.340     3656.049     2229.663        1.844        0.727      149.439       35.099        0.055      348.077       27.509      859.174
06/04/2014  15:26:00      -34.446        8.457       21.098       84.769       61.561       43.721     7185.860     3789.714     1911.537        0.729        0.644       35.469       35.685        1.012      348.745       28.666      859.166
06/04/2014  15:27:00     -183.714        9.887       -7.161      108.080       82.915       41.949    11681.344     6874.865     1759.733        2.710        1.016      183.980       49.381        0.072      348.024       27.416      859.158
06/04/2014  15:28:00      -80.833      -30.038       38.233      136.391       79.110       58.718    18602.635     6258.367     3447.828        1.860        1.415       86.234       65.412        0.575      348.423       28.106      859.145
06/04/2014  15:29:00     -164.769       31.189       -4.396       73.450       53.112       40.362     5394.849     2820.861     1629.130        1.899        0.492      167.694       39.605        0.056      348.365       28.006      859.160
06/04/2014  15:30:00     -119.859      -52.797       -6.324       97.508       75.878       44.262     9507.737     5757.475     1959.129        1.721        0.861      130.972       45.987        0.123      348.048       27.459      859.164
06/04/2014  15:31:00      -72.256       69.393       -4.100       99.123       64.859       45.998     9825.347     4206.701     2115.847        1.310        0.807      100.182       54.550        0.296      348.082       27.519      859.157
06/04/2014  15:32:00      -79.205       90.925      -18.454       56.359       54.163       38.841     3176.350     2933.603     1508.651        1.125        0.381      120.585       30.741        0.065      348.006       27.387      859.157
06/04/2014  15:33:00       -8.093       34.966        2.615       75.213       58.011       31.765     5656.957     3365.220     1009.008        0.566        0.502       35.890       19.495        0.295      348.384       28.041      859.141
06/04/2014  15:34:00        7.395       28.891       -6.028       64.267       37.742       23.703     4130.297     1424.487      561.855        0.352        0.306       29.823       15.634        0.275      348.229       27.773      859.125
06/04/2014  15:35:00      -21.756       77.756       -7.360       36.662       44.572       26.272     1344.101     1986.664      690.198        0.530        0.201       80.743       21.741        0.073      348.047       27.458      859.122
06/04/2014  15:36:00      -38.961       80.816        5.149       48.139      102.726       47.042     2317.353    10552.577     2212.920        1.158        0.754       89.717       35.687        0.158      348.229       27.773      859.111
06/04/2014  15:37:00      -62.328       79.431       -8.500       53.955       65.706       30.418     2911.105     4317.297      925.274        0.921        0.408      100.966       26.403        0.068      348.339       27.963      859.110
06/04/2014  15:38:00      -31.974       71.578        1.182       46.268       51.998       34.292     2140.773     2703.745     1175.971        0.608        0.301       78.395       36.078        0.212      348.154       27.644      859.079
06/04/2014  15:39:00      -49.480       30.870        8.422       63.563       55.924       34.547     4040.202     3127.535     1193.515        0.592        0.418       58.320       31.039        0.283      348.258       27.823      859.064
06/04/2014  15:40:00      -12.007       46.589       -0.327       44.135       67.163       32.725     1947.922     4510.903     1070.953        0.492        0.376       48.111       28.942        0.362      348.107       27.561      859.054
06/04/2014  15:41:00      -51.974       16.051       25.892      115.948       74.875       51.443    13443.925     5606.272     2646.362        1.266        1.085       54.396       16.022        0.087      348.663       28.522      859.031
06/04/2014  15:42:00     -240.999      -52.825       -5.148       90.120       70.568       40.445     8121.539     4979.898     1635.761        3.781        0.737      246.720       36.611        0.022      348.069       27.493      859.033
06/04/2014  15:43:00     -121.244      -89.146       -9.566      109.587       63.471       33.192    12009.203     4028.615     1101.691        1.994        0.857      150.490       43.646        0.084      347.809       27.046      859.023
06/04/2014  15:44:00     -182.371      -74.699        8.756      132.500       63.983       50.065    17556.264     4093.886     2506.497        3.153        1.208      197.076       59.718        0.092      348.009       27.392      859.019
06/04/2014  15:45:00      -81.947      -13.073       17.494       92.594       73.458       48.715     8573.660     5396.083     2373.150        1.176        0.817       82.983       51.148        0.380      348.389       28.048      859.001
06/04/2014  15:46:00      -72.112        6.983       -5.269       66.171       62.346       30.906     4378.658     3887.054      955.198        0.725        0.461       72.450       11.345        0.025      348.542       28.314      859.010
06/04/2014  15:47:00       -9.324      -42.527       15.972       91.363       50.165       35.529     8347.164     2516.557     1262.311        0.714        0.606       43.537       34.127        0.614      348.125       27.592      858.991
06/04/2014  15:48:00     -113.269     -115.566       14.276      120.305       93.794       56.702    14473.322     8797.271     3215.105        2.643        1.324      161.819       75.793        0.219      348.190       27.704      858.986
06/04/2014  15:49:00      -78.323     -131.768        7.860       74.080       69.459       40.062     5487.785     4824.524     1604.936        1.774        0.596      153.288       35.069        0.052      347.880       27.170      858.972
06/04/2014  15:50:00       13.979     -138.777       -2.282       39.008       64.009       29.785     1521.634     4097.196      887.168        1.298        0.325      139.479       15.106        0.012      347.917       27.232      858.946
06/04/2014  15:51:00     -135.765      -51.967      -12.649       71.821       74.016       31.049     5158.191     5478.440      964.044        1.644        0.580      145.371       16.955        0.014      348.001       27.378      858.945
06/04/2014  15:52:00     -177.752     -110.511        9.676      115.420       82.748       45.669    13321.880     6847.183     2085.626        3.307        1.113      209.305       39.026        0.035      348.017       27.406      858.947
06/04/2014  15:53:00      -62.257      -77.864       24.784       98.278       69.115       41.134     9658.575     4776.927     1692.025        1.334        0.806       99.693       47.870        0.231      348.224       27.762      858.936
06/04/2014  15:54:00      -47.525      -48.446       -0.927       57.213       44.356       30.282     3273.297     1967.447      917.025        0.538        0.308       67.865       25.131        0.137      348.199       27.721      858.921
06/04/2014  15:55:00      -48.534      -38.577       16.743       60.935       39.666       29.246     3713.089     1573.414      855.356        0.513        0.307       61.998       30.343        0.240      348.400       28.068      858.904
06/04/2014  15:56:00      -23.057       -6.117       12.411       43.502       44.392       35.895     1892.434     1970.693     1288.467        0.294        0.258       23.855       20.167        0.715      348.629       28.465      858.881
06/04/2014  15:57:00      -31.973      -28.106       17.460       62.447       65.375       36.263     3899.631     4273.874     1315.009        0.580        0.474       42.570       46.469        1.192      348.394       28.059      858.857
06/04/2014  15:58:00       -6.228       11.366       26.973       60.655       48.536       31.439     3679.014     2355.788      988.417        0.396        0.351       12.961       34.776        7.199      348.407       28.079      858.843
06/04/2014  15:59:00      -13.278     -137.348        2.864       36.087       95.906       27.907     1302.281     9197.940      778.776        1.516        0.564      137.989       20.077        0.021      348.386       28.042      858.840
06/04/2014  16:00:00      -17.584      -49.130       24.319       43.771      101.522       37.094     1915.879    10306.774     1375.972        0.845        0.680       52.182       52.745        1.022      348.486       28.218      858.827
06/04/2014  16:01:00      -24.218       84.893        5.203       45.789       57.325       33.708     2096.588     3286.151     1136.260        0.717        0.326       88.280       32.376        0.134      348.379       28.032      858.816
06/04/2014  16:02:00      -51.504       18.895       -9.592       43.856       71.476       27.603     1923.330     5108.809      761.922        0.545        0.390       54.860       25.304        0.213      348.345       27.974      858.830
06/04/2014  16:03:00       62.757       18.763       21.041       63.524       50.544       28.807     4035.314     2554.681      829.833        0.608        0.371       65.502       22.753        0.121      348.173       27.676      858.813
06/04/2014  16:04:00       30.781       40.000       16.146       52.774       36.995       33.468     2785.139     1368.612     1120.120        0.404        0.264       50.472       30.393        0.363      348.385       28.042      858.805
06/04/2014  16:05:00       19.414      127.224      -18.538       77.349       64.587       36.305     5982.932     4171.435     1318.067        1.419        0.574      128.697       33.768        0.069      348.067       27.492      858.812
06/04/2014  16:06:00      -30.276       63.155        2.092       43.697       79.248       39.615     1909.401     6280.195     1569.384        0.733        0.488       70.037       42.521        0.369      348.147       27.631      858.810
06/04/2014  16:07:00       -4.951       81.726       -1.208       31.823       56.033       28.489     1012.723     3139.748      811.629        0.583        0.248       81.875       12.034        0.022      348.179       27.687      858.808
06/04/2014  16:08:00       15.944       12.483      -14.535       14.685       30.936       16.697      215.640      957.049      278.803        0.104        0.073       20.250       10.095        0.249      347.966       27.318      858.807
06/04/2014  16:09:00       -3.208       37.486      -25.629       21.981       44.213       10.442      483.184     1954.788      109.037        0.231        0.127       37.623       10.721        0.081      348.061       27.483      858.793
06/04/2014  16:10:00      -66.693      -47.493       12.466      119.231       73.439       47.530    14216.143     5393.358     2259.085        1.436        1.093       81.876       59.354        0.526      348.272       27.846      858.759
06/04/2014  16:11:00       19.400      196.012       25.024       77.853      150.564       72.719     6061.146    22669.482     5288.124        3.671        1.701      196.969       92.088        0.219      348.428       28.116      858.764
06/04/2014  16:12:00      -57.335      368.496      -41.306       78.366      104.306       45.651     6141.274    10879.776     2083.985        7.994        0.955      372.930       53.815        0.021      347.967       27.317      858.756
06/04/2014  16:13:00      164.756      143.637      -11.176      119.601       88.871       67.344    14304.471     7898.058     4535.210        3.731        1.337      218.577       61.628        0.079      348.246       27.798      858.762
06/04/2014  16:14:00      155.142       95.966       41.159      110.675       68.202       67.687    12249.024     4651.573     4581.524        2.822        1.074      182.424       48.136        0.070      348.481       28.207      858.733
06/04/2014  16:15:00       38.050       36.400       -4.824       54.142       54.572       29.414     2931.336     2978.149      865.171        0.478        0.339       52.657       21.403        0.165      348.484       28.215      858.714
06/04/2014  16:16:00      168.317       92.753        8.114       85.154       83.055       52.793     7251.162     6898.057     2787.092        2.696        0.847      192.182       33.987        0.031      348.414       28.089      858.705
06/04/2014  16:17:00      130.770       59.294       48.517       88.105       67.729       51.485     7762.420     4587.278     2650.686        1.898        0.750      143.584       51.095        0.127      348.455       28.163      858.704
06/04/2014  16:18:00        1.381      -37.263       10.543       35.897       94.015       30.455     1288.607     8838.734      927.532        0.628        0.553       37.289       16.075        0.186      348.505       28.250      858.696
06/04/2014  16:19:00       49.249      148.441       -9.717      127.058       71.989       64.117    16143.657     5182.445     4110.938        2.499        1.272      156.397       66.032        0.178      348.240       27.791      858.717
06/04/2014  16:20:00      167.981      159.741       20.870      135.977      105.374       78.270    18489.757    11103.756     6126.160        4.494        1.786      231.808       57.073        0.061      348.239       27.787      858.674
06/04/2014  16:21:00      196.672      141.436       13.403      151.733      104.598       68.285    23022.915    10940.781     4662.829        4.874        1.931      242.248       33.561        0.019      348.166       27.661      858.661
06/04/2014  16:22:00       68.820      185.646      -15.478       94.097      114.170       64.840     8854.179    13034.890     4204.197        3.276        1.305      197.991       57.704        0.085      348.161       27.653      858.679
06/04/2014  16:23:00      -11.994      269.663      -31.985       71.171      135.704       58.964     5065.324    18415.677     3476.698        5.042        1.348      269.929       63.109        0.055      348.318       27.923      858.688
06/04/2014  16:24:00      -68.515      410.041      -47.498       79.118      139.823       50.007     6259.629    19550.472     2500.677       10.169        1.416      415.726       54.191        0.017      347.887       27.177      858.701
06/04/2014  16:25:00       -2.575      160.356        6.458       73.621      136.615       65.340     5420.119    18663.696     4269.267        2.705        1.418      160.377       76.551        0.228      348.287       27.871      858.697
06/04/2014  16:26:00      -47.573      216.917      -27.115       78.999       94.472       48.408     6240.905     8924.958     2343.310        3.378        0.875      222.072       39.090        0.031      348.371       28.014      858.694
06/04/2014  16:27:00      -89.090      181.145      -20.146       63.919      109.081       45.477     4085.673    11898.566     2068.196        2.960        0.903      201.868       22.456        0.012      348.587       28.389      858.709
06/04/2014  16:28:00     -137.524      178.934      -31.763       61.570       77.855       48.802     3790.904     6061.344     2381.614        3.208        0.612      225.677       43.694        0.037      348.053       27.466      858.719
06/04/2014  16:29:00      -81.344      131.932      -17.578       46.681       64.469       38.874     2179.107     4156.204     1511.167        1.609        0.392      154.994       34.272        0.049      348.060       27.481      858.706
06/04/2014  16:30:00      -82.324      116.377      -27.094       25.361       79.855       23.655      643.178     6376.775      559.553        1.432        0.379      142.551       23.133        0.026      347.912       27.225      858.692
06/04/2014  16:31:00     -118.541      -14.216      -11.746       64.123       84.209       49.196     4111.763     7091.101     2420.215        1.400        0.681      119.390       38.672        0.105      348.545       28.320      858.679
06/04/2014  16:32:00      -63.620       95.380      -14.609       59.338       72.975       46.599     3520.981     5325.344     2171.467        1.219        0.551      114.652       26.721        0.054      348.485       28.214      858.687
06/04/2014  16:33:00      -60.653      229.087      -26.555       80.534      101.482       39.169     6485.795    10298.622     1534.193        3.759        0.916      236.981       41.195        0.030      348.381       28.032      858.693
06/04/2014  16:34:00      -74.117      125.887      -27.015       56.845       53.030       33.927     3231.376     2812.199     1151.055        1.463        0.360      146.085       39.242        0.072      347.977       27.335      858.707
06/04/2014  16:35:00      -48.694       93.119       -3.492       51.322       71.894       37.759     2633.926     5168.678     1425.760        1.014        0.461      105.082       21.883        0.043      348.176       27.681      858.694
06/04/2014  16:36:00     -112.348      133.447      -30.297       48.791       79.451       32.592     2380.515     6312.449     1062.209        2.055        0.488      174.442       31.784        0.033      348.292       27.880      858.699
06/04/2014  16:37:00      -77.371       92.915        4.358       52.343       64.509       36.314     2739.771     4161.413     1318.736        1.143        0.411      120.911       30.944        0.065      348.609       28.429      858.690
06/04/2014  16:38:00      -75.831      102.671       -7.210       58.140       90.175       37.662     3380.298     8131.446     1418.450        1.463        0.647      127.639       37.991        0.089      348.551       28.329      858.678
06/04/2014  16:39:00     -139.001       65.324      -12.304       73.535       70.277       45.242     5407.418     4938.836     2046.877        1.806        0.620      153.585       37.739        0.060      348.582       28.381      858.666
06/04/2014  16:40:00     -178.276       18.180      -28.888       53.169       54.536       41.137     2826.917     2974.150     1692.256        2.022        0.375      179.200       29.944        0.028      348.452       28.156      858.670
06/04/2014  16:41:00     -232.361      -18.425      -28.544       65.037       43.934       33.842     4229.753     1930.235     1145.284        3.122        0.365      233.090       30.334        0.017      347.984       27.345      858.664
06/04/2014  16:42:00      -69.001      -16.334       -8.353       68.762       49.175       27.030     4728.275     2418.151      730.638        0.649        0.394       70.908       34.698        0.239      348.374       28.024      858.662
06/04/2014  16:43:00      -69.216       -7.370       -3.660       85.419       45.312       37.627     7296.357     2053.198     1415.801        0.781        0.538       69.607       46.507        0.446      348.730       28.639      858.660
06/04/2014  16:44:00     -130.792      -32.823      -19.037       78.992       44.823       31.246     6239.777     2009.116      976.343        1.388        0.461      134.848       24.908        0.034      348.467       28.182      858.667
06/04/2014  16:45:00      -45.585      -31.130       -4.708       46.991       38.984       30.681     2208.120     1519.775      941.320        0.387        0.233       55.200       26.770        0.235      348.648       28.498      858.656
06/04/2014  16:46:00     -112.684      -36.719       -0.890       80.380       67.858       31.659     6460.970     4604.699     1002.307        1.306        0.603      118.516       32.747        0.076      348.336       27.957      858.650
06/04/2014  16:47:00     -175.485      -38.007       -7.372       59.579       51.259       34.150     3549.670     2627.477     1166.204        1.982        0.367      179.554       29.028        0.026      348.497       28.235      858.646
06/04/2014  16:48:00     -257.241      -25.115       -2.760      100.568       78.969       45.806    10113.970     6236.176     2098.217        4.263        0.922      258.464       52.812        0.042      348.290       27.875      858.633
06/04/2014  16:49:00     -203.143       22.074      -10.137       97.076       74.843       34.363     9423.683     5601.505     1180.831        2.903        0.810      204.339       39.730        0.038      348.069       27.496      858.619
06/04/2014  16:50:00     -295.284     -142.878      -10.989       93.630       62.502       47.254     8766.543     3906.513     2232.902        6.131        0.745      328.035       43.732        0.018      348.020       27.407      858.594
06/04/2014  16:51:00     -140.773      -87.711       -2.479       94.535       52.593       40.141     8936.790     2766.010     1611.339        2.041        0.666      165.862       41.474        0.063      348.075       27.505      858.593
06/04/2014  16:52:00      -98.363      -75.735        9.076       72.806       65.553       37.553     5300.682     4297.205     1410.213        1.325        0.550      124.141       39.649        0.102      348.357       27.993      858.575
06/04/2014  16:53:00      -82.166      -43.405        9.546      103.936       72.100       38.856    10802.742     5198.469     1509.800        1.312        0.876       92.926       43.721        0.221      348.468       28.184      858.565
06/04/2014  16:54:00     -132.229      -77.530        9.928      112.474       82.976       45.327    12650.368     6885.097     2054.547        2.259        1.080      153.282       54.602        0.127      348.221       27.757      858.569
06/04/2014  16:55:00     -136.696      -34.260        6.906       72.254       56.950       45.986     5220.674     3243.324     2114.693        1.524        0.529      140.923       38.647        0.075      348.252       27.811      858.556
06/04/2014  16:56:00     -105.179      -71.944      -11.504       78.564       69.000       37.607     6172.312     4761.047     1414.308        1.436        0.617      127.431       26.193        0.042      348.242       27.795      858.570
06/04/2014  16:57:00     -102.023      -17.752        4.167       71.932       53.943       40.480     5174.144     2909.875     1638.669        1.023        0.486      103.556       45.366        0.192      348.408       28.081      858.568
06/04/2014  16:58:00     -125.896       18.169      -13.411       48.977       78.633       26.031     2398.737     6183.165      677.635        1.281        0.463      127.200       22.696        0.032      348.008       27.392      858.579
06/04/2014  16:59:00      -80.742       99.085      -21.825       40.194       50.755       35.868     1615.573     2576.020     1286.491        1.114        0.274      127.817       31.565        0.061      348.205       27.732      858.588
06/04/2014  17:00:00     -128.915      176.309      -31.396       69.429       68.394       43.722     4820.321     4677.766     1911.648        3.005        0.570      218.413       44.896        0.042      348.296       27.886      858.587
06/04/2014  17:01:00     -115.827       79.744       -6.524      109.512       40.164       36.434    11992.774     1613.163     1327.470        1.737        0.747      140.623       38.707        0.076      348.417       28.097      858.584
06/04/2014  17:02:00      112.883       85.932       15.350       88.137       59.505       52.684     7768.048     3540.892     2775.630        1.722        0.704      141.870       33.385        0.055      348.274       27.848      858.588
06/04/2014  17:03:00       46.735       51.921       64.705       81.768       61.399       55.840     6686.033     3769.882     3118.125        1.132        0.679       69.857       53.431        0.585      348.222       27.761      858.569
06/04/2014  17:04:00       23.635       59.156       28.032       83.862       58.298       44.963     7032.915     3398.674     2021.701        0.865        0.623       63.703       19.031        0.089      348.379       28.031      858.568
06/04/2014  17:05:00     -178.808      167.873      -45.417       86.351       90.128       42.634     7456.532     8123.133     1817.678        3.980        0.870      245.263       30.261        0.015      348.049       27.456      858.582
06/04/2014  17:06:00       -1.002       60.969        5.763       34.625       76.566       30.339     1198.906     5862.328      920.432        0.586        0.399       60.978       33.788        0.307      348.120       27.584      858.594
06/04/2014  17:07:00       35.473       28.424       20.297       18.307       14.800       18.467      335.141      219.026      341.043        0.169        0.045       45.457       15.158        0.111      347.980       27.341      858.571
06/04/2014  17:08:00       -8.926        2.594        6.796       40.458       26.780       21.981     1636.867      717.180      483.160        0.148        0.142        9.295       24.595        7.001      348.263       27.831      858.553
06/04/2014  17:09:00      -14.471      -25.170       -8.885       40.518       29.201       20.049     1641.679      852.685      401.963        0.191        0.145       29.033       16.018        0.304      348.380       28.036      858.545
06/04/2014  17:10:00      -74.340       -1.232        3.593       24.237       39.048       20.394      587.432     1524.770      415.916        0.403        0.126       74.350       14.317        0.037      348.606       28.423      858.540
06/04/2014  17:11:00     -120.514      -32.929       -0.021       65.371       48.009       27.138     4273.403     2304.892      736.476        1.146        0.366      124.931       29.341        0.055      348.575       28.371      858.521
06/04/2014  17:12:00      -87.888       83.825       -7.080       84.959       78.679       55.813     7218.099     6190.347     3115.055        1.566        0.826      121.453       58.619        0.233      348.560       28.346      858.500
06/04/2014  17:13:00       11.897      211.628      -31.780      113.885      109.412       46.653    12969.847    11970.882     2176.537        3.652        1.356      211.962       46.829        0.049      348.280       27.859      858.480
06/04/2014  17:14:00       40.306      116.957      -38.212       50.048       61.747       27.862     2504.761     3812.675      776.292        1.193        0.355      123.708       20.240        0.027      348.317       27.923      858.473
06/04/2014  17:15:00       67.328      111.276        2.008       71.734       93.345       60.883     5145.820     8713.374     3706.748        1.724        0.878      130.060       51.173        0.155      348.421       28.104      858.462
06/04/2014  17:16:00      111.726      197.464      -12.402       82.175      127.703       79.160     6752.720    16308.118     6266.252        4.047        1.466      226.880       71.413        0.099      348.171       27.669      858.451
06/04/2014  17:17:00       83.693      183.608       -5.913       93.618      140.534       90.522     8764.416    19749.865     8194.293        3.872        1.835      201.783       92.136        0.208      348.115       27.573      858.463
06/04/2014  17:18:00       77.986      128.238       -5.824       83.771       64.734       49.495     7017.661     4190.453     2449.796        1.811        0.683      150.090       47.714        0.101      348.057       27.475      858.466
06/04/2014  17:19:00       29.122      135.911      -23.137       69.517       46.257       29.369     4832.610     2139.720      862.544        1.384        0.392      138.996       26.461        0.036      348.032       27.432      858.461
06/04/2014  17:20:00       -2.840       75.227      -13.395       41.205       55.379       22.687     1697.883     3066.825      514.683        0.556        0.264       75.281       28.771        0.146      348.059       27.479      858.455
06/04/2014  17:21:00      -56.328       60.153      -18.223       33.569       60.347       23.399     1126.867     3641.705      547.491        0.622        0.266       82.409       30.320        0.135      348.175       27.678      858.440
06/04/2014  17:22:00      -14.258       49.536       -4.280       51.187       38.905       24.862     2620.060     1513.580      618.137        0.371        0.238       51.547       32.048        0.387      348.139       27.619      858.421
06/04/2014  17:23:00      125.152       60.783       16.012       47.322       36.754       30.603     2239.374     1350.859      936.514        1.207        0.226      139.132       10.079        0.005      348.077       27.513      858.415
06/04/2014  17:24:00      134.043       38.962       29.324       64.041       60.717       52.589     4101.224     3686.592     2765.646        1.545        0.528      139.591       26.092        0.035      348.144       27.625      858.407
06/04/2014  17:25:00       29.856       26.558       57.839       38.587       55.250       37.149     1488.983     3052.515     1380.033        0.543        0.296       39.959       36.895        0.853      348.130       27.600      858.387
06/04/2014  17:26:00       24.692       23.307       15.767       23.591       29.301       15.946      556.541      858.559      254.267        0.154        0.083       33.954       13.031        0.147      348.069       27.498      858.388
06/04/2014  17:27:00       46.540       42.458       13.841       54.684       40.637       25.322     2990.307     1651.370      641.204        0.472        0.264       62.998       16.969        0.073      348.141       27.619      858.391
06/04/2014  17:28:00       27.350       46.419       33.756       35.197       50.252       39.607     1238.815     2525.242     1568.699        0.469        0.267       53.877       32.395        0.362      348.334       27.953      858.381
06/04/2014  17:29:00      156.849       87.326       35.017       98.606       70.169       49.000     9723.224     4923.668     2400.957        2.525        0.852      179.521       37.413        0.043      348.262       27.828      858.365
06/04/2014  17:30:00       85.832       50.110       21.849       99.887       63.019       47.768     9977.340     3971.389     2281.794        1.329        0.812       99.389       38.716        0.152      348.562       28.348      858.346
06/04/2014  17:31:00       78.959       58.459       74.878       93.082       53.579       57.150     8664.302     2870.735     3266.158        1.503        0.740       98.244       56.177        0.327      348.444       28.146      858.336
06/04/2014  17:32:00      210.835      145.873       12.594      128.473      110.349       75.345    16505.345    12176.823     5676.827        5.012        1.718      256.379       48.982        0.037      348.377       28.025      858.347
06/04/2014  17:33:00      315.778      163.131       26.799       99.904       80.562       71.560     9980.734     6490.294     5120.785        7.431        1.080      355.426       50.752        0.020      348.127       27.593      858.348
06/04/2014  17:34:00      188.530      105.525       14.257       84.218       74.705       49.479     7092.744     5580.885     2448.133        3.100        0.756      216.053       41.811        0.037      348.251       27.808      858.342
06/04/2014  17:35:00      103.953       89.563       19.110       81.981       49.831       43.047     6720.818     2483.125     1853.053        1.512        0.553      137.214       12.705        0.009      348.160       27.653      858.330
06/04/2014  17:36:00      100.810       65.589        4.840       56.666       46.196       38.328     3211.023     2134.091     1469.015        1.065        0.341      120.269       27.786        0.053      348.318       27.926      858.314
06/04/2014  17:37:00      109.559       65.225       48.132       75.768       55.716       52.107     5740.794     3104.321     2715.139        1.506        0.578      127.505       32.424        0.065      348.290       27.877      858.294
06/04/2014  17:38:00      158.166       72.108       34.099      113.828       63.074       57.286    12956.845     3978.283     3281.723        2.579        1.011      173.827       58.061        0.112      348.314       27.918      858.282
06/04/2014  17:39:00       88.525       95.690       71.429       82.707       76.327       65.851     6840.519     5825.885     4336.354        1.955        0.850      130.358       55.481        0.181      348.235       27.780      858.270
06/04/2014  17:40:00      108.726      113.664       92.863       65.324       67.455       54.627     4267.243     4550.124     2984.109        2.258        0.590      157.293       35.970        0.052      348.217       27.751      858.265
06/04/2014  17:41:00       48.447       40.138       36.229       52.263       36.815       27.448     2731.464     1355.340      753.374        0.505        0.242       62.914       23.851        0.144      348.367       28.012      858.260
06/04/2014  17:42:00       24.333       43.907       16.443       46.600       49.606       29.375     2171.605     2460.779      862.888        0.414        0.275       50.199       13.203        0.069      348.372       28.020      858.247
06/04/2014  17:43:00       64.908       78.096       -5.231       57.259       56.250       40.262     3278.631     3164.060     1621.053        0.920        0.403      101.548       32.310        0.101      348.330       27.948      858.239
06/04/2014  17:44:00       -0.475       98.562       -6.913       42.043       77.090       31.147     1767.595     5942.905      970.162        0.922        0.434       98.563       39.006        0.157      348.141       27.620      858.242
06/04/2014  17:45:00      107.446      106.611       11.381       84.951       40.129       39.868     7216.595     1610.332     1589.465        1.673        0.521      151.362       41.284        0.074      348.073       27.501      858.227
06/04/2014  17:46:00      129.930      105.888       16.665       42.865       31.820       40.027     1837.389     1012.530     1602.171        1.641        0.223      167.613       26.911        0.026      348.063       27.485      858.220
06/04/2014  17:47:00      119.604       93.586       10.480       74.177       46.962       42.629     5502.181     2205.466     1817.256        1.635        0.476      151.867       30.395        0.040      348.061       27.481      858.208
06/04/2014  17:48:00       53.371       64.114       -0.608       59.828       38.055       33.304     3579.443     1448.163     1109.150        0.655        0.307       83.421       31.906        0.146      348.111       27.567      858.202
06/04/2014  17:49:00       84.980       62.088        7.350       88.501       51.212       42.480     7832.481     2622.631     1804.572        1.169        0.613      105.246       32.432        0.095      348.233       27.779      858.187
06/04/2014  17:50:00      139.902       80.610       19.114       38.859       37.195       29.662     1510.027     1383.487      879.834        1.510        0.189      161.464       20.874        0.017      348.051       27.466      858.179
06/04/2014  17:51:00      132.279       82.852       16.834       68.067       51.512       36.457     4633.164     2653.495     1329.094        1.663        0.431      156.084       15.847        0.010      348.218       27.753      858.160
06/04/2014  17:52:00       -2.768       50.052       -7.855       36.250       27.381       22.099     1314.043      749.714      488.378        0.256        0.128       50.128       18.117        0.131      348.188       27.702      858.155
06/04/2014  17:53:00        2.779      117.765      -19.394       53.866       59.884       34.850     2901.595     3586.034     1214.555        1.098        0.385      117.797       35.958        0.093      348.201       27.725      858.144
06/04/2014  17:54:00     -107.994      230.004      -30.539       91.049      142.010       61.706     8289.947    20166.971     3807.632        4.887        1.613      254.096       42.780        0.028      348.258       27.820      858.158
06/04/2014  17:55:00      -35.474      253.932      -30.976       51.943       76.989       44.490     2698.074     5927.379     1979.365        3.865        0.530      256.398       40.424        0.025      348.162       27.652      858.153
06/04/2014  17:56:00      -15.287      230.538      -27.674       70.190      129.783       42.671     4926.578    16843.557     1820.772        3.886        1.180      231.045       58.216        0.063      348.191       27.705      858.144
06/04/2014  17:57:00      -84.448      159.048      -22.394       64.406      103.712       42.261     4148.187    10756.170     1786.021        2.481        0.835      180.077       36.017        0.040      348.293       27.882      858.137
06/04/2014  17:58:00      -50.467      159.823      -12.354       70.929       67.397       35.423     5030.913     4542.295     1254.770        1.953        0.541      167.601       16.224        0.009      348.350       27.981      858.122
06/04/2014  17:59:00      -20.472      216.130      -35.337       52.731       52.064       32.303     2780.593     2710.669     1043.492        2.746        0.327      217.097       24.755        0.013      348.390       28.047      858.139
06/04/2014  18:00:00      -65.505      156.411      -19.442       47.781       59.363       41.335     2283.061     3523.931     1708.596        1.832        0.376      169.574       41.576        0.060      348.222       27.759      858.154
06/04/2014  18:01:00      -62.642       63.998       -2.978       65.816       59.338       31.562     4331.773     3521.032      996.164        0.844        0.442       89.553       30.152        0.113      348.335       27.957      858.134
06/04/2014  18:02:00      -50.288       87.860      -18.086       48.421       46.285       26.889     2344.639     2142.342      723.035        0.789        0.261      101.234       17.522        0.030      348.277       27.857      858.115
06/04/2014  18:03:00        2.349       86.238      -15.076       42.384       80.310       24.164     1796.393     6449.755      583.914        0.825        0.442       86.270       29.645        0.118      348.195       27.713      858.118
06/04/2014  18:04:00      -43.084      176.519      -25.377       55.594       93.127       38.260     3090.677     8672.586     1463.831        2.344        0.661      181.701       42.573        0.055      348.263       27.829      858.137
06/04/2014  18:05:00     -104.497      329.245      -52.348       41.273       76.794       34.449     1703.484     5897.263     1186.727        6.542        0.439      345.430       32.871        0.009      348.029       27.424      858.140
06/04/2014  18:06:00      -90.489      183.028      -26.998       54.204       84.426       33.832     2938.040     7127.731     1144.597        2.681        0.561      204.175       37.208        0.033      348.271       27.843      858.147
06/04/2014  18:07:00      -22.389      300.011      -45.183       30.002       60.559       16.663      900.144     3667.354      277.647        4.870        0.242      300.845       18.132        0.004      348.020       27.407      858.159
06/04/2014  18:08:00       -8.731      173.592      -18.635       52.538       52.906       29.197     2760.216     2799.093      852.446        1.848        0.321      173.811       24.947        0.021      348.195       27.713      858.158
06/04/2014  18:09:00      -38.734      146.738      -22.896       60.717       80.517       35.913     3686.503     6483.005     1289.715        1.751        0.573      151.764       36.815        0.059      348.276       27.852      858.172
06/04/2014  18:10:00      -37.815      220.824      -36.995       56.086       45.858       23.625     3145.616     2102.920      558.154        2.868        0.290      224.038       14.332        0.004      348.187       27.697      858.171
06/04/2014  18:11:00      -98.927      117.365      -18.653       57.805       71.626       36.679     3341.459     5130.252     1345.376        1.686        0.491      153.496       30.173        0.039      348.198       27.717      858.175
06/04/2014  18:12:00       34.308       92.217       -2.838       52.635       54.466       33.540     2770.479     2966.535     1124.929        0.827        0.343       98.393       38.082        0.150      348.114       27.574      858.198
06/04/2014  18:13:00      133.550       68.908       19.144       91.071       66.292       35.290     8293.939     4394.672     1245.405        1.844        0.697      150.280       11.009        0.005      348.216       27.747      858.196
06/04/2014  18:14:00      148.376       84.122        4.299       77.986       51.314       30.533     6081.839     2633.137      932.266        1.938        0.482      170.564       25.485        0.022      348.102       27.550      858.194
06/04/2014  18:15:00       33.310       60.534       -5.362       29.014       26.531       23.090      841.805      703.869      533.155        0.344        0.104       69.093       15.468        0.050      348.101       27.553      858.196
06/04/2014  18:16:00       32.793       38.037       -1.993       25.850       28.485       15.882      668.212      811.376      252.244        0.213        0.087       50.222       12.698        0.064      348.129       27.600      858.186
06/04/2014  18:17:00       35.858      -22.280       19.226       38.378       40.947       22.454     1472.909     1676.645      504.203        0.290        0.183       42.216       13.848        0.108      348.322       27.932      858.188
06/04/2014  18:18:00       67.297       31.731       51.353       69.624       61.017       40.638     4847.442     3723.020     1651.443        0.920        0.511       74.402       37.501        0.254      348.283       27.865      858.177
06/04/2014  18:19:00       94.976       84.501       52.109       77.568       53.932       52.494     6016.845     2908.625     2755.604        1.528        0.584      127.125       44.706        0.124      348.256       27.818      858.171
06/04/2014  18:20:00      109.905       51.645       55.625      103.617       69.432       53.354    10736.533     4820.744     2846.634        1.812        0.920      121.435       59.314        0.239      348.375       28.023      858.169
06/04/2014  18:21:00      151.222       98.619       16.136      100.165       66.473       48.885    10032.930     4418.626     2389.746        2.484        0.842      180.538       34.897        0.037      348.176       27.678      858.184
06/04/2014  18:22:00      111.784       84.139       12.341       50.108       33.892       30.321     2510.843     1148.689      919.374        1.215        0.229      139.911       20.989        0.023      348.143       27.624      858.191
06/04/2014  18:23:00       90.860      104.705        2.656       58.350       57.130       54.148     3404.736     3263.849     2932.002        1.441        0.480      138.632       43.572        0.099      348.177       27.681      858.191
06/04/2014  18:24:00       71.502       39.713       14.258       54.472       55.747       26.857     2967.189     3107.697      721.303        0.684        0.340       81.791       20.824        0.065      348.184       27.694      858.196
06/04/2014  18:25:00       43.631       -6.427        7.430       28.595       44.896       28.977      817.649     2015.615      839.664        0.284        0.184       44.101       13.863        0.099      348.235       27.783      858.190
06/04/2014  18:26:00       84.361       62.878       14.939       62.033       51.552       39.664     3848.080     2657.579     1573.220        0.968        0.404      105.216       26.152        0.062      348.381       28.035      858.195
06/04/2014  18:27:00       91.979       31.508       22.083       59.599       52.127       47.943     3552.085     2717.265     2298.516        0.925        0.428       97.226       36.617        0.142      348.300       27.897      858.193
06/04/2014  18:28:00        8.072       93.283       -4.107       78.065       69.880       36.252     6094.155     4883.260     1314.238        1.054        0.615       93.631       28.605        0.093      348.343       27.969      858.199
06/04/2014  18:29:00      -12.924      214.530      -32.552       58.017       50.119       36.483     3365.918     2511.935     1331.032        2.723        0.360      214.919       39.995        0.035      348.162       27.654      858.197
06/04/2014  18:30:00      -23.042      126.384      -22.701       32.013       50.591       20.543     1024.839     2559.469      422.034        1.051        0.200      128.468       25.802        0.040      348.189       27.703      858.200
06/04/2014  18:31:00      -30.905      178.638      -21.785       65.203       57.344       32.673     4251.483     3288.371     1067.495        2.097        0.430      181.292       25.906        0.020      348.242       27.795      858.209
06/04/2014  18:32:00       -8.282       33.461       -7.395       44.400       72.916       26.424     1971.403     5316.713      698.215        0.461        0.399       34.471       27.629        0.642      348.324       27.937      858.211
06/04/2014  18:33:00       81.015       75.103       10.554       72.806       79.155       37.950     5300.703     6265.569     1440.238        1.266        0.650      110.471       29.614        0.072      348.365       28.007      858.210
06/04/2014  18:34:00        2.273      118.674      -11.137       62.859       87.685       49.869     3951.235     7688.656     2486.956        1.417        0.706      118.695       56.371        0.226      348.254       27.816      858.222
06/04/2014  18:35:00      -13.323       58.895      -12.037       22.222       33.648       17.390      493.838     1132.182      302.405        0.286        0.096       60.383       19.894        0.109      348.096       27.542      858.224
06/04/2014  18:36:00       27.920       19.900        2.272       41.595       22.242       22.723     1730.137      494.721      516.314        0.196        0.137       34.287       11.176        0.106      348.229       27.773      858.212
06/04/2014  18:37:00       88.849       13.300        6.894       31.973       29.796       22.072     1022.254      887.797      487.193        0.526        0.120       89.839       19.203        0.046      348.214       27.745      858.201
06/04/2014  18:38:00      156.669      124.664       11.185       74.154       52.912       48.119     5498.881     2799.730     2315.438        2.541        0.531      200.216       33.081        0.027      348.225       27.763      858.206
06/04/2014  18:39:00       34.857      186.245      -22.978       51.510       87.580       36.813     2653.292     7670.295     1355.181        2.405        0.584      189.479       39.599        0.044      348.160       27.650      858.224
06/04/2014  18:40:00       74.342       60.031       25.944       84.458       48.151       41.534     7133.184     2318.554     1725.057        1.049        0.559       95.553       27.849        0.085      348.180       27.687      858.218
06/04/2014  18:41:00       46.478      154.244      -11.979       56.818       83.841       43.435     3228.338     7029.263     1886.579        1.912        0.607      161.095       40.008        0.062      348.145       27.625      858.215
06/04/2014  18:42:00       -0.726      245.537      -28.963       54.895       75.004       34.883     3013.507     5625.641     1216.839        3.549        0.493      245.538       31.617        0.017      348.173       27.672      858.232
06/04/2014  18:43:00      -33.715       69.078      -17.069       41.686       54.468       31.724     1737.733     2966.713     1006.405        0.595        0.286       76.866       21.925        0.081      348.233       27.779      858.230
06/04/2014  18:44:00       24.239      192.152      -26.593       56.280       53.550       36.376     3167.392     2867.564     1323.227        2.279        0.368      193.675       32.183        0.028      348.209       27.736      858.222
06/04/2014  18:45:00       52.550      152.771       -2.155       96.979       81.430       50.252     9404.961     6630.774     2525.305        2.233        0.928      161.557       46.565        0.083      348.211       27.739      858.231
06/04/2014  18:46:00      108.634      105.666        7.850       88.309       98.205       51.536     7798.443     9644.265     2655.918        2.156        1.005      151.548       44.753        0.087      348.150       27.635      858.218
06/04/2014  18:47:00        3.740      225.029      -30.332       78.072      105.348       51.002     6095.249    11098.141     2601.236        3.568        0.990      225.060       46.783        0.043      348.141       27.617      858.236
06/04/2014  18:48:00     -145.836      202.653      -32.687       75.995       82.742       47.403     5775.219     6846.282     2247.040        3.913        0.743      249.672       46.820        0.035      348.150       27.633      858.249
06/04/2014  18:49:00     -113.288      262.375      -33.592       92.543      120.482       54.154     8564.166    14515.981     2932.640        5.440        1.301      285.788       66.836        0.055      348.081       27.512      858.261
06/04/2014  18:50:00     -179.607      334.104      -46.305       93.122      120.324       53.167     8671.658    14477.793     2826.745        8.600        1.299      379.320       49.762        0.017      348.020       27.409      858.277
06/04/2014  18:51:00      -44.260      257.447      -34.613       63.778       87.874       39.507     4067.695     7721.800     1560.765        4.139        0.668      261.224       40.030        0.023      348.036       27.434      858.270
06/04/2014  18:52:00      -11.691      292.017      -32.525       86.026       89.747       52.284     7400.533     8054.459     2733.575        5.232        0.909      292.251       50.850        0.030      348.089       27.528      858.289
06/04/2014  18:53:00       16.113      149.124       -3.354       98.820       91.105       71.613     9765.300     8300.058     5128.431        2.285        1.160      149.992       70.367        0.220      348.045       27.452      858.289
06/04/2014  18:54:00      -80.889      169.103       -7.797       69.514      105.648       53.388     4832.193    11161.546     2850.245        2.702        0.942      187.454       62.813        0.112      348.091       27.531      858.245
06/04/2014  18:55:00       46.829      361.692      -61.937       77.329       91.440       53.212     5979.736     8361.197     2831.489        7.701        0.859      364.711       52.433        0.021      348.042       27.445      858.257
06/04/2014  18:56:00       99.741      266.598      -32.278      105.547      165.785       77.776    11140.208    27484.548     6049.133        6.336        2.234      284.645       84.948        0.089      348.023       27.413      858.261
06/04/2014  18:57:00      189.518      186.493       11.406      123.356      110.700       81.888    15216.778    12254.547     6705.697        5.250        1.709      265.889       74.367        0.078      347.956       27.296      858.288
06/04/2014  18:58:00      104.735      160.131       13.764      105.296       84.135       77.154    11087.335     7078.636     5952.714        3.046        1.206      191.341       61.257        0.102      347.936       27.262      858.307
06/04/2014  18:59:00       65.579      189.115      -16.995       89.489      152.748       61.207     8008.356    23331.842     3746.283        3.771        1.754      200.163       76.523        0.146      347.941       27.272      858.321
06/04/2014  19:00:00       -9.835      227.517      -40.487       63.608       56.786       36.785     4045.929     3224.675     1353.165        3.106        0.431      227.730       32.897        0.021      347.931       27.254      858.312
06/04/2014  19:01:00        4.925      209.515      -10.947       66.589       93.463       47.276     4434.110     8735.357     2234.994        2.972        0.770      209.573       49.914        0.057      347.950       27.288      858.297
06/04/2014  19:02:00       88.489      215.772      -21.292       77.408      104.008       55.049     5991.926    10817.725     3030.350        3.734        0.992      233.212       53.591        0.053      347.964       27.311      858.286
06/04/2014  19:03:00      152.437      185.955       10.882      139.007       95.439       88.340    19322.915     9108.681     7803.991        4.708        1.812      240.450       62.625        0.068      347.931       27.254      858.299
06/04/2014  19:04:00      103.080      152.658        3.661       87.299      130.494       69.589     7621.028    17028.554     4842.632        3.171        1.475      184.201       60.755        0.109      347.928       27.249      858.303
06/04/2014  19:05:00       53.106      141.706      -20.644       82.800       89.033       52.460     6855.873     7926.916     2752.099        2.043        0.877      151.330       52.619        0.121      347.930       27.255      858.325
06/04/2014  19:06:00        3.018      262.486       -9.922       85.176      131.285       68.880     7255.000    17235.640     4744.490        4.912        1.462      262.504       68.667        0.068      347.913       27.223      858.330
06/04/2014  19:07:00       62.261      237.667      -12.232      122.679      155.316       95.064    15050.046    24123.152     9037.092        5.435        2.411      245.686       93.904        0.146      347.889       27.182      858.338
06/04/2014  19:08:00       49.094      315.094      -25.713      103.128      247.142       85.824    10635.436    61079.269     7365.748        9.070        3.954      318.896      122.618        0.148      347.903       27.206      858.338
06/04/2014  19:09:00       15.862      304.057      -41.086       78.316      142.565       61.999     6133.378    20324.797     3843.815        6.234        1.515      304.470       66.765        0.048      347.909       27.216      858.364
06/04/2014  19:10:00       60.827      184.810      -16.448       81.947      118.920       58.674     6715.332    14141.961     3442.617        3.121        1.215      194.563       62.824        0.104      347.901       27.201      858.380
06/04/2014  19:11:00       71.251      216.598      -15.379      117.389      123.235       82.099    13780.218    15186.819     6740.218        4.396        1.785      228.016       75.925        0.111      347.871       27.150      858.372
06/04/2014  19:12:00       70.308      165.086        5.276       84.357      128.612       69.867     7116.049    16541.172     4881.381        3.038        1.427      179.434       74.982        0.175      347.868       27.146      858.367
06/04/2014  19:13:00       61.784      242.166      -25.062       83.651      136.909       60.467     6997.469    18744.196     3656.316        4.624        1.470      249.923       75.568        0.091      347.883       27.171      858.367
06/04/2014  19:14:00       52.757      396.135      -62.598       83.864      104.100       65.439     7033.142    10836.825     4282.243        9.288        1.108      399.633       66.625        0.028      347.880       27.165      858.385
06/04/2014  19:15:00        3.414      282.527      -46.969       75.223       88.135       46.914     5658.545     7767.722     2200.957        4.883        0.781      282.547       47.574        0.028      347.875       27.157      858.398
06/04/2014  19:16:00       -2.562      356.037      -40.066       70.068      104.519       47.065     4909.591    10924.258     2215.088        7.321        0.902      356.046       49.095        0.019      347.862       27.134      858.396
06/04/2014  19:17:00      -21.503      288.627      -38.530       61.318       54.305       37.830     3759.934     2949.028     1431.098        4.669        0.407      289.427       32.379        0.013      347.878       27.161      858.399
06/04/2014  19:18:00      -18.352      137.523      -20.445       59.740       79.920       43.381     3568.818     6387.211     1881.940        1.575        0.592      138.742       48.433        0.122      347.909       27.219      858.421
06/04/2014  19:19:00       -4.672      258.235      -27.651       57.034       81.863       36.015     3252.826     6701.540     1297.054        3.936        0.563      258.277       31.705        0.015      347.927       27.247      858.430
06/04/2014  19:20:00       12.089      114.901       -6.593       48.524       64.950       37.034     2354.555     4218.551     1371.518        1.067        0.397      115.535       32.336        0.078      347.903       27.209      858.427
06/04/2014  19:21:00       16.132      164.012      -26.236       48.312       75.874       32.214     2334.092     5756.834     1037.768        1.849        0.456      164.804       32.790        0.040      347.931       27.258      858.441
06/04/2014  19:22:00       43.814      170.099      -27.472       45.904       88.322       41.997     2107.176     7800.805     1763.751        2.164        0.584      175.651       47.449        0.073      347.943       27.276      858.441
06/04/2014  19:23:00        8.793      134.495       -0.564       58.947       75.700       42.889     3474.698     5730.502     1839.493        1.460        0.552      134.783       37.272        0.076      347.886       27.180      858.443
06/04/2014  19:24:00       39.968      169.060      -20.478       68.613       75.710       45.812     4707.699     5731.992     2098.746        2.157        0.627      173.721       46.585        0.072      347.882       27.171      858.445
06/04/2014  19:25:00       74.309       93.594        4.705       75.100       57.339       46.445     5640.032     3287.770     2157.126        1.269        0.554      119.506       34.126        0.082      347.810       27.048      858.451
06/04/2014  19:26:00       68.800      204.333      -10.532      103.476      114.418       70.135    10707.213    13091.440     4918.870        3.765        1.436      215.605       65.565        0.092      347.791       27.013      858.465
06/04/2014  19:27:00       50.068      252.661       -8.253       80.123      127.668       85.452     6419.703    16299.158     7302.032        4.821        1.501      257.574       78.031        0.092      347.750       26.941      858.465
06/04/2014  19:28:00      111.520      141.414       16.443      126.066       94.901       80.103    15892.688     9006.252     6416.530        3.200        1.566      180.096       61.456        0.116      347.722       26.895      858.489
06/04/2014  19:29:00       73.744      138.179      -10.320       73.112       96.245       52.332     5345.326     9263.040     2738.672        2.099        0.867      156.626       51.788        0.109      347.712       26.880      858.498
06/04/2014  19:30:00       41.073      229.016      -27.347       58.584       85.921       51.309     3432.039     7382.361     2632.576        3.416        0.672      232.670       45.767        0.039      347.700       26.854      858.508
06/04/2014  19:31:00      132.764      248.768       -6.649      102.675      170.748      103.538    10542.120    29154.830    10720.076        6.498        2.521      281.979      100.479        0.127      347.650       26.769      858.505
06/04/2014  19:32:00      140.671      250.176      -26.874      142.744      115.992       87.173    20375.815    13454.218     7599.117        6.226        2.071      287.012       79.385        0.077      347.623       26.722      858.512
06/04/2014  19:33:00       65.814      246.764       -4.995      106.628      134.472       85.160    11369.585    18082.848     7252.237        5.097        1.835      255.390       84.215        0.109      347.616       26.711      858.515
06/04/2014  19:34:00       51.333      268.132      -17.299      103.838      161.589       73.459    10782.396    26110.914     5396.245        5.855        2.114      273.002       87.496        0.103      347.600       26.683      858.521
06/04/2014  19:35:00       39.878      290.188      -21.673       87.275      168.366       91.960     7616.944    28347.277     8456.705        6.534        2.221      292.915      103.933        0.126      347.587       26.661      858.526
06/04/2014  19:36:00       37.400      338.705      -36.152       85.356      209.794       81.454     7285.700    44013.606     6634.737        8.767        2.897      340.763      113.898        0.112      347.563       26.621      858.525
06/04/2014  19:37:00       11.134      278.831      -28.067       82.235      109.199       55.390     6762.588    11924.494     3068.058        5.020        1.088      279.053       49.691        0.032      347.555       26.606      858.527
06/04/2014  19:38:00        2.620      246.682      -20.551       73.883      143.138       58.704     5458.670    20488.610     3446.113        4.533        1.470      246.696       68.216        0.076      347.560       26.615      858.541
06/04/2014  19:39:00       13.613      220.683      -17.808       71.405      101.023       56.505     5098.736    10205.736     3192.831        3.385        0.925      221.103       60.836        0.076      347.525       26.554      858.544
06/04/2014  19:40:00      111.423      220.358       10.110      128.947      147.878       90.289    16627.375    21867.822     8152.190        5.385        2.332      246.927       97.330        0.155      347.514       26.536      858.541
06/04/2014  19:41:00       66.798      290.251      -37.636       79.791      144.186       71.235     6366.585    20789.676     5074.479        6.117        1.612      297.838       76.682        0.066      347.514       26.536      858.551
06/04/2014  19:42:00       44.661      280.059      -30.300       95.653      136.052       73.086     9149.483    18510.015     5341.574        5.717        1.650      283.598       74.682        0.069      347.501       26.513      858.558
06/04/2014  19:43:00       25.205      290.363      -32.752       83.654      119.590       63.599     6998.070    14301.700     4044.863        5.568        1.267      291.454       60.298        0.043      347.483       26.480      858.559
06/04/2014  19:44:00       30.393      255.299      -23.318       79.348      135.177       68.309     6296.118    18272.766     4666.118        4.793        1.462      257.102       77.085        0.090      347.461       26.443      858.559
06/04/2014  19:45:00       13.594      233.135      -20.747       78.217      142.248       59.183     6117.950    20234.520     3502.594        4.241        1.493      233.531       62.941        0.073      347.427       26.385      858.562
06/04/2014  19:46:00       41.573      159.970      -20.884       56.444       79.392       46.068     3185.938     6303.102     2122.250        1.968        0.581      165.284       47.013        0.081      347.389       26.321      858.569
06/04/2014  19:47:00       19.895      178.667      -15.750       57.549       79.205       48.004     3311.943     6273.494     2304.355        2.223        0.594      179.771       43.867        0.060      347.340       26.237      858.580
06/04/2014  19:48:00       89.263      124.077       -4.354       73.539       99.103       49.051     5407.965     9821.407     2406.038        2.051        0.882      152.849       49.146        0.103      347.301       26.170      858.581
06/04/2014  19:49:00       98.688      238.963       -7.625      112.485      139.019       82.177    12652.862    19326.257     6752.978        5.281        1.937      258.540       89.669        0.120      347.315       26.191      858.582
06/04/2014  19:50:00       75.616      179.987       -2.696       94.172      112.301       77.441     8868.320    12611.470     5997.079        3.279        1.374      195.226       67.647        0.120      347.267       26.109      858.588
06/04/2014  19:51:00      105.201      218.685      -11.943      113.437      143.051       87.917    12867.952    20463.568     7729.419        5.004        2.053      242.674       77.895        0.103      347.275       26.122      858.582
06/04/2014  19:52:00       61.021      109.374       24.770       79.998       97.959       58.731     6399.643     9596.053     3449.374        1.787        0.972      125.245       52.952        0.179      347.230       26.047      858.589
06/04/2014  19:53:00       69.868      129.550       17.818      100.730      101.886       80.428    10146.599    10380.760     6468.677        2.448        1.350      147.189       58.547        0.158      347.221       26.030      858.593
06/04/2014  19:54:00       59.747      222.340      -17.789       88.580      164.010       67.365     7846.440    26899.428     4538.109        4.630        1.964      230.228       85.460        0.138      347.206       26.004      858.590
06/04/2014  19:55:00       85.514      205.200      -15.794       89.034      110.400       75.600     7926.991    12188.173     5715.308        3.774        1.292      222.305       69.852        0.099      347.217       26.023      858.602
06/04/2014  19:56:00       52.352      196.209       -6.940       86.701      131.692       60.963     7517.092    17342.676     3716.432        3.493        1.429      203.073       66.579        0.107      347.187       25.972      858.612
06/04/2014  19:57:00      133.935      186.746      -12.435       97.693      115.633       75.525     9543.919    13371.105     5704.024        4.079        1.431      229.810       79.298        0.119      347.217       26.024      858.610
06/04/2014  19:58:00       68.380      200.361      -13.343       98.877      147.141       79.452     9776.574    21650.417     6312.650        4.136        1.887      211.709       83.099        0.154      347.199       25.994      858.630
06/04/2014  19:59:00      126.788      127.515        4.221       81.389       84.047       59.577     6624.244     7063.938     3549.407        2.479        0.862      179.820       55.945        0.097      347.174       25.950      858.627
06/04/2014  20:00:00      118.784       95.655        7.896       91.574       68.978       51.430     8385.735     4758.025     2645.010        1.955        0.789      152.511       28.037        0.034      347.144       25.898      858.630
06/04/2014  20:01:00       79.825      163.348       -4.886       87.981       91.059       66.309     7740.723     8291.655     4396.863        2.675        1.021      181.809       56.027        0.095      347.190       25.977      858.638
06/04/2014  20:02:00       66.482      121.861       11.109       92.828       70.624       53.700     8616.957     4987.730     2883.686        1.794        0.824      138.817       47.656        0.118      347.121       25.860      858.647
06/04/2014  20:03:00       84.967      146.498        1.317      102.031      102.972       70.170    10410.361    10603.224     4923.854        2.731        1.297      169.355       56.266        0.110      347.117       25.852      858.657
06/04/2014  20:04:00       51.888      134.541      -16.012       71.695       73.429       40.899     5140.172     5391.826     1672.736        1.663        0.610      144.201       38.062        0.070      347.046       25.729      858.661
06/04/2014  20:05:00       80.617      143.680       18.013       90.283      120.511       72.479     8150.970    14522.870     5253.237        2.769        1.396      164.751       73.488        0.199      347.058       25.750      858.667
06/04/2014  20:06:00       85.246      186.016      -20.994       78.904      139.213       74.352     6225.873    19380.315     5528.169        3.672        1.557      204.619       75.890        0.138      347.036       25.713      858.673
06/04/2014  20:07:00       52.713      215.749      -13.151       67.211      120.298       63.102     4517.253    14471.564     3981.886        3.623        1.149      222.096       71.263        0.103      347.003       25.655      858.680
06/04/2014  20:08:00       61.030      229.391      -15.280       79.606       93.123       67.667     6337.044     8671.950     4578.782        3.808        0.979      237.371       61.264        0.067      346.979       25.614      858.671
06/04/2014  20:09:00       56.774      251.187      -11.318       83.201      158.570       81.656     6922.455    25144.541     6667.755        5.258        1.937      257.523       93.634        0.132      347.007       25.661      858.684
06/04/2014  20:10:00      100.006      303.183      -28.788      106.181      154.159       94.961    11274.412    23764.854     9017.522        7.339        2.203      319.251       99.335        0.097      346.996       25.641      858.684
06/04/2014  20:11:00       34.362      242.505      -25.581       81.027       98.211       61.257     6565.369     9645.467     3752.402        4.030        0.998      244.928       55.587        0.052      346.936       25.537      858.705
06/04/2014  20:12:00       78.213      209.173        1.654      115.849      121.303       87.566    13421.091    14714.422     7667.875        4.283        1.790      223.317       83.278        0.139      346.943       25.551      858.717
06/04/2014  20:13:00       80.730      230.311      -26.467      108.386      151.300       75.809    11747.629    22891.595     5746.985        5.032        2.019      244.050       75.246        0.095      346.942       25.550      858.735
06/04/2014  20:14:00       63.524      185.369      -14.201       81.404      109.574       66.333     6626.664    12006.396     4400.014        3.081        1.152      195.951       63.036        0.103      346.910       25.495      858.749
06/04/2014  20:15:00       96.044      272.284      -44.589       91.302      130.167       67.745     8336.111    16943.368     4589.451        5.760        1.493      288.727       64.551        0.050      346.918       25.507      858.740
06/04/2014  20:16:00       80.286      143.275       -0.977       76.592       89.742       60.797     5866.269     8053.573     3696.309        2.229        0.881      164.236       54.027        0.108      346.867       25.422      858.745
06/04/2014  20:17:00       79.983      150.938        2.497       93.021       87.652       76.579     8652.952     7682.930     5864.346        2.569        1.110      170.820       61.874        0.131      346.834       25.363      858.747
06/04/2014  20:18:00       98.537      160.494       -4.367       84.987       89.602       63.487     7222.844     8028.449     4030.572        2.738        0.964      188.329       51.840        0.076      346.861       25.410      858.746
06/04/2014  20:19:00       65.964      227.200      -33.412       85.956      110.864       62.527     7388.421    12290.741     3909.624        4.033        1.179      236.582       67.296        0.081      346.851       25.392      858.739
06/04/2014  20:20:00       50.974      252.905      -25.939       84.763      149.842       65.329     7184.724    22452.477     4267.826        5.056        1.695      257.990       78.573        0.093      346.836       25.366      858.733
06/04/2014  20:21:00      104.301      228.678        5.537      106.174      128.257       84.933    11272.901    16449.897     7213.697        4.906        1.747      251.341       86.612        0.119      346.841       25.376      858.729
06/04/2014  20:22:00       59.688      239.631      -29.582       83.703      127.790       59.095     7006.157    16330.265     3492.271        4.434        1.341      246.953       64.819        0.069      346.787       25.283      858.738
06/04/2014  20:23:00       46.202      103.680       -0.782       63.564       67.284       48.841     4040.437     4527.194     2385.456        1.192        0.548      113.509       37.469        0.109      346.726       25.181      858.752
06/04/2014  20:24:00       51.797      220.641       -8.234       82.614      134.429       64.327     6825.108    18071.031     4137.996        4.023        1.452      226.639       70.395        0.096      346.755       25.228      858.753
06/04/2014  20:25:00       92.400      119.321       10.063      101.520       90.664       75.060    10306.250     8219.956     5634.010        2.351        1.208      150.914       61.888        0.168      346.750       25.221      858.756
06/04/2014  20:26:00       65.021      187.550      -19.064       75.934      101.880       53.177     5765.958    10379.467     2827.743        2.937        0.949      198.501       52.280        0.069      346.706       25.143      858.756
06/04/2014  20:27:00       29.599      186.536       -1.993       59.884      105.172       63.287     3586.113    11061.149     4005.209        2.716        0.933      188.869       68.326        0.131      346.696       25.128      858.763
06/04/2014  20:28:00       46.623      159.441      -15.076       54.091      108.339       47.615     2925.843    11737.354     2267.177        2.237        0.847      166.117       55.399        0.111      346.646       25.040      858.772
06/04/2014  20:29:00       59.665      114.153        3.631       66.120       82.188       54.360     4371.814     6754.860     2954.965        1.534        0.704      128.805       50.164        0.152      346.614       24.988      858.774
06/04/2014  20:30:00       55.477      171.362       -0.992       72.174      107.983       57.456     5209.131    11660.290     3301.175        2.630        1.009      180.118       61.796        0.118      346.643       25.034      858.787
06/04/2014  20:31:00       71.340      190.014      -17.375       66.702      101.860       59.500     4449.188    10375.493     3540.217        2.993        0.918      202.965       62.381        0.094      346.695       25.125      858.786
06/04/2014  20:32:00       33.056      185.709      -26.385       50.240       66.512       34.658     2524.060     4423.852     1201.193        2.221        0.407      188.628       37.023        0.039      346.600       24.963      858.790
06/04/2014  20:33:00       46.515      212.670      -26.438       49.739       78.775       43.422     2473.984     6205.542     1885.479        2.933        0.528      217.697       43.356        0.040      346.640       25.031      858.794
06/04/2014  20:34:00       43.762      134.442       -6.840       56.875       85.587       54.238     3234.743     7325.210     2941.809        1.677        0.675      141.385       50.793        0.129      346.563       24.899      858.792
06/04/2014  20:35:00       36.879      161.537      -12.795       57.837       73.664       47.061     3345.067     5426.387     2214.722        1.930        0.549      165.694       45.430        0.075      346.608       24.977      858.795
06/04/2014  20:36:00       36.343      178.793      -23.331       70.172       63.046       45.607     4924.088     3974.859     2080.031        2.240        0.549      182.450       41.679        0.052      346.581       24.927      858.791
06/04/2014  20:37:00       35.000      244.340      -34.250       45.603       50.796       32.106     2079.597     2580.254     1030.775        3.389        0.285      246.834       27.264        0.012      346.587       24.937      858.791
06/04/2014  20:38:00       46.685      182.324      -13.335       63.548       91.136       50.689     4038.316     8305.740     2569.416        2.525        0.746      188.206       55.906        0.088      346.545       24.868      858.788
06/04/2014  20:39:00       33.457      179.868      -23.660       51.758       81.697       42.219     2678.900     6674.417     1782.405        2.258        0.557      182.953       45.629        0.062      346.552       24.881      858.790
06/04/2014  20:40:00       20.339      197.490      -28.143       47.038       39.473       27.510     2212.532     1558.100      756.790        2.237        0.226      198.535       25.688        0.017      346.524       24.831      858.795
06/04/2014  20:41:00       22.927      148.217      -11.885       48.632       55.917       37.014     2365.041     3126.764     1370.059        1.475        0.343      149.980       30.329        0.041      346.471       24.742      858.796
06/04/2014  20:42:00       25.287      200.153      -35.083       41.020       42.796       23.416     1682.676     1831.540      548.303        2.300        0.203      201.744       19.537        0.009      346.502       24.794      858.807
06/04/2014  20:43:00       28.947      221.238      -30.153       42.151       63.115       33.784     1776.692     3983.449     1141.366        2.880        0.345      223.124       34.402        0.024      346.544       24.863      858.813
06/04/2014  20:44:00       14.947      224.305      -33.147       48.131       61.938       32.188     2316.612     3836.298     1036.058        2.941        0.359      224.803       36.432        0.026      346.604       24.967      858.822
06/04/2014  20:45:00       14.340      153.237      -17.238       32.823       51.223       30.303     1077.336     2623.782      918.259        1.430        0.231      153.906       26.443        0.030      346.484       24.765      858.828
06/04/2014  20:46:00       -5.255      248.175      -41.580       39.170       89.297       21.930     1534.304     7974.035      480.936        3.667        0.499      248.231       30.058        0.015      346.638       25.027      858.845
06/04/2014  20:47:00        9.123      179.076      -33.079       47.466       49.290       23.512     2253.037     2429.485      552.827        1.924        0.262      179.308       18.029        0.010      346.537       24.854      858.854
06/04/2014  20:48:00       -8.016      174.053      -22.443       45.659       81.251       29.972     2084.775     6601.718      898.317        2.022        0.479      174.238       42.794        0.060      346.521       24.827      858.863
06/04/2014  20:49:00        0.017      195.201      -31.404       46.985       58.022       28.333     2207.587     3366.609      802.779        2.273        0.319      195.201       31.232        0.026      346.556       24.888      858.872
06/04/2014  20:50:00      -14.539      138.019      -13.831       62.058       75.514       36.527     3851.161     5702.305     1334.198        1.517        0.544      138.782       41.320        0.089      346.483       24.762      858.876
06/04/2014  20:51:00      -42.735      167.137      -23.895       32.817       32.297       24.918     1076.987     1043.124      620.910        1.654        0.137      172.514       16.794        0.009      346.528       24.841      858.889
06/04/2014  20:52:00      -19.791      167.258      -32.693       38.138       59.769       19.225     1454.505     3572.312      369.583        1.741        0.270      168.424       24.002        0.020      346.547       24.871      858.896
06/04/2014  20:53:00      -32.413      155.760      -24.766       39.751       56.619       22.670     1580.159     3205.753      513.907        1.561        0.265      159.097       24.875        0.024      346.552       24.881      858.906
06/04/2014  20:54:00      -41.014      154.162      -28.142       31.283       44.483       25.133      978.609     1978.718      631.674        1.491        0.179      159.524       18.007        0.013      346.552       24.881      858.915
06/04/2014  20:55:00      -47.982      154.727      -22.869       53.932       46.703       26.516     2908.709     2181.137      703.081        1.628        0.290      161.996       25.217        0.024      346.493       24.781      858.921
06/04/2014  20:56:00      -60.141      152.239      -21.298       59.901       74.815       33.317     3588.136     5597.254     1110.008        1.877        0.515      163.688       26.829        0.027      346.567       24.907      858.929
06/04/2014  20:57:00      -36.109      149.999      -11.374       55.660       63.265       39.158     3097.994     4002.441     1533.371        1.628        0.432      154.284       38.553        0.062      346.491       24.776      858.929
06/04/2014  20:58:00      -51.467      110.338      -17.228       48.814       67.522       31.366     2382.807     4559.285      983.836        1.152        0.396      121.751       29.906        0.060      346.569       24.909      858.948
06/04/2014  20:59:00      -66.176      133.492      -21.573       45.614       46.701       35.585     2080.636     2180.993     1266.282        1.410        0.276      148.995       26.039        0.031      346.517       24.821      858.955
06/04/2014  21:00:00      -93.244       49.508       -6.550       56.696       44.202       26.986     3214.411     1953.778      728.271        0.854        0.295      105.573       24.391        0.053      346.456       24.717      858.972
06/04/2014  21:01:00     -110.519       35.433      -26.793       67.365       39.005       25.679     4538.001     1521.393      659.426        1.045        0.336      116.060       24.057        0.043      346.240       24.346      858.982
06/04/2014  21:02:00     -101.502       11.261      -13.869       36.779       47.750       26.571     1352.715     2280.072      706.038        0.748        0.217      102.125       19.083        0.035      345.964       23.872      858.986
06/04/2014  21:03:00     -143.692       13.136      -20.206       38.268       75.939       33.813     1464.459     5766.683     1143.300        1.480        0.419      144.291       19.691        0.019      345.876       23.720      859.004
06/04/2014  21:04:00     -114.366       39.027      -11.027       58.652       35.881       28.197     3440.068     1287.438      795.055        1.012        0.276      120.841       21.034        0.030      345.855       23.684      859.012
06/04/2014  21:05:00     -147.064       43.644      -22.702       48.713       57.613       34.466     2372.908     3319.229     1187.902        1.546        0.344      153.404       21.959        0.020      345.900       23.760      859.016
06/04/2014  21:06:00     -132.945      140.806      -26.468       63.157       70.787       35.586     3988.827     5010.805     1266.389        2.423        0.513      193.651       36.353        0.035      345.916       23.787      859.021
06/04/2014  21:07:00     -179.195      109.933      -20.644       54.859       55.081       40.142     3009.492     3033.956     1611.390        2.614        0.383      210.228       30.432        0.021      345.927       23.805      859.041
06/04/2014  21:08:00     -132.723       54.031      -17.379       71.818       50.887       33.590     5157.798     2589.491     1128.273        1.485        0.444      143.299       36.069        0.063      345.872       23.712      859.039
06/04/2014  21:09:00     -174.357       49.745      -24.057       51.269       73.811       39.649     2628.475     5447.997     1572.026        2.155        0.482      181.314       34.846        0.037      345.891       23.744      859.056
06/04/2014  21:10:00     -154.466        3.946      -21.246       58.561       69.125       35.558     3429.353     4778.262     1264.336        1.690        0.474      154.516       36.610        0.056      345.908       23.775      859.055
06/04/2014  21:11:00     -145.658       67.520      -29.536       35.470       45.445       28.673     1258.130     2065.270      822.143        1.540        0.207      160.547       26.033        0.026      345.900       23.760      859.071
06/04/2014  21:12:00     -108.809       48.170       -8.495       39.620       41.066       30.220     1569.759     1686.409      913.276        0.920        0.208      118.995       22.471        0.036      345.840       23.658      859.080
06/04/2014  21:13:00      -95.649       74.897      -20.922       48.432       56.438       32.175     2345.623     3185.280     1035.260        1.088        0.328      121.484       27.615        0.052      345.891       23.745      859.090
06/04/2014  21:14:00      -80.778       31.449      -10.769       41.578       62.715       24.329     1728.768     3933.166      591.902        0.694        0.313       86.684       20.542        0.056      345.778       23.550      859.112
06/04/2014  21:15:00     -117.907      158.880      -26.673       58.120       72.732       38.052     3377.908     5289.901     1447.917        2.498        0.506      197.851       43.799        0.049      345.822       23.624      859.129
06/04/2014  21:16:00      -97.749       87.826       -8.105       46.596       47.483       34.344     2171.184     2254.678     1179.489        1.147        0.280      131.409       31.709        0.058      345.763       23.526      859.147
06/04/2014  21:17:00      -85.723      119.888      -15.715       40.065       43.281       28.699     1605.226     1873.265      823.643        1.313        0.215      147.383       19.524        0.018      345.714       23.442      859.162
06/04/2014  21:18:00      -66.631       82.222      -19.824       33.987       31.606       18.104     1155.122      998.958      327.751        0.704        0.124      105.831       21.193        0.040      345.724       23.457      859.186
06/04/2014  21:19:00      -82.710       47.415      -12.009       38.471       40.695       22.625     1479.990     1656.106      511.887        0.644        0.182       95.336       17.980        0.036      345.732       23.472      859.184
06/04/2014  21:20:00     -112.171        8.873      -11.293       32.010       32.253       19.695     1024.644     1040.251      387.893        0.762        0.123      112.522       17.434        0.024      345.751       23.505      859.215
06/04/2014  21:21:00     -143.917       -0.633      -21.113       34.706       48.959       19.628     1204.540     2396.935      385.253        1.257        0.199      143.918       16.748        0.014      345.720       23.453      859.229
06/04/2014  21:22:00     -136.715       -8.019       -7.066       41.423       36.456       21.950     1715.849     1329.050      481.823        1.117        0.176      136.950       20.073        0.021      345.689       23.400      859.241
06/04/2014  21:23:00     -130.081       -8.182      -19.801       30.043       34.962       19.764      902.611     1222.316      390.603        0.995        0.126      130.338       17.159        0.017      345.682       23.387      859.259
06/04/2014  21:24:00     -149.447      -32.418      -19.558       30.209       27.000       21.017      912.559      729.004      441.696        1.293        0.104      152.923       14.687        0.009      345.637       23.308      859.279
06/04/2014  21:25:00     -122.302      -53.463       -4.566       57.662       37.453       30.121     3324.946     1402.710      907.258        1.173        0.282      133.477       22.254        0.028      345.560       23.177      859.295
06/04/2014  21:26:00     -119.992      -76.095      -16.723       87.065       59.496       46.868     7580.281     3539.777     2196.621        1.689        0.666      142.086       44.614        0.099      345.495       23.063      859.300
06/04/2014  21:27:00     -172.507     -123.826       -3.791      101.281       82.385       48.549    10257.911     6787.238     2357.048        3.225        0.970      212.348       55.125        0.067      345.314       22.753      859.311
06/04/2014  21:28:00     -187.577     -145.814       -1.847       84.366       76.083       49.003     7117.598     5788.561     2401.304        3.588        0.765      237.586       48.411        0.042      345.239       22.623      859.329
06/04/2014  21:29:00     -188.535     -129.956       -1.268       95.361       68.961       48.613     9093.768     4755.613     2363.182        3.432        0.811      228.985       45.136        0.039      345.265       22.667      859.348
06/04/2014  21:30:00     -216.304     -117.773        3.912       94.489       82.370       52.469     8928.169     6784.869     2752.955        3.957        0.923      246.288       51.877        0.044      345.269       22.675      859.363
06/04/2014  21:31:00     -212.515     -140.938      -10.949      128.739       72.099       51.474    16573.610     5198.223     2649.552        4.478        1.221      255.002       58.920        0.053      345.345       22.805      859.381
06/04/2014  21:32:00     -182.145      -79.023       -9.929       89.152       61.854       42.276     7948.098     3825.919     1787.224        2.654        0.678      198.548       39.232        0.039      345.315       22.754      859.397
06/04/2014  21:33:00     -161.022      -79.024      -10.050       88.580       73.716       36.695     7846.329     5434.075     1346.514        2.345        0.731      179.368       38.616        0.046      345.414       22.924      859.413
06/04/2014  21:34:00     -167.405     -107.121        1.320       71.090       55.996       41.210     5053.733     3135.529     1698.281        2.469        0.494      198.744       37.139        0.035      345.343       22.801      859.422
06/04/2014  21:35:00     -203.728      -98.303      -13.846       79.682       62.731       43.275     6349.211     3935.236     1872.749        3.176        0.608      226.205       39.109        0.030      345.381       22.865      859.431
06/04/2014  21:36:00     -172.893      -67.984       -9.889       89.805       59.107       38.583     8064.921     3493.584     1488.675        2.383        0.652      185.779       46.303        0.062      345.421       22.937      859.448
06/04/2014  21:37:00     -218.949      -85.161       -8.501       91.537       75.323       41.905     8379.043     5673.501     1756.065        3.553        0.790      234.928       29.059        0.015      345.459       23.000      859.471
06/04/2014  21:38:00     -202.680      -34.481       -7.154      127.077       74.295       55.571    16148.552     5519.674     3088.176        3.353        1.238      205.593       65.678        0.102      345.531       23.125      859.489
06/04/2014  21:39:00     -181.780      -66.011       -1.799       87.099       72.099       43.179     7586.228     5198.315     1864.395        2.602        0.732      193.394       36.027        0.035      345.524       23.113      859.504
06/04/2014  21:40:00     -212.013      -63.019        1.844      101.212       75.366       41.844    10243.798     5680.016     1750.907        3.330        0.884      221.181       35.499        0.026      345.654       23.335      859.511
06/04/2014  21:41:00     -193.659      -67.143        6.365      106.006       94.361       53.060    11237.257     8903.939     2815.382        3.250        1.148      204.968       58.084        0.080      345.683       23.386      859.513
06/04/2014  21:42:00     -248.081      -91.763      -11.646       74.256       95.186       39.696     5513.920     9060.397     1575.805        4.312        0.808      264.508       30.643        0.013      345.677       23.374      859.512
06/04/2014  21:43:00     -153.531      -57.198        2.126       89.208       68.005       44.892     7958.088     4624.682     2015.265        2.072        0.730      163.839       47.461        0.084      345.597       23.238      859.530
06/04/2014  21:44:00     -199.933      -23.346      -10.570       72.413       47.969       38.498     5243.708     2301.047     1482.125        2.483        0.451      201.292       36.616        0.033      345.636       23.305      859.538
06/04/2014  21:45:00     -161.850      -60.397       -6.862       59.378       47.172       33.222     3525.705     2225.194     1103.716        1.837        0.343      172.752       36.995        0.046      345.616       23.273      859.557
06/04/2014  21:46:00     -144.737      -74.275        3.071       60.880       39.650       35.220     3706.376     1572.121     1240.437        1.650        0.326      162.683       30.208        0.034      345.534       23.132      859.564
06/04/2014  21:47:00     -137.201      -66.452        1.586       82.279       48.333       34.378     6769.771     2336.112     1181.876        1.676        0.514      152.447       38.744        0.065      345.508       23.086      859.558
06/04/2014  21:48:00     -194.042      -99.969        6.792       77.540       64.550       38.909     6012.378     4166.725     1513.895        2.969        0.585      218.279       41.493        0.036      345.559       23.171      859.561
06/04/2014  21:49:00     -181.959      -72.601        2.476       90.989       67.927       42.687     8279.041     4614.019     1822.205        2.655        0.736      195.909       45.739        0.055      345.530       23.123      859.566
06/04/2014  21:50:00     -178.613     -108.004        0.574      100.948       73.466       43.213    10190.482     5397.286     1867.384        3.051        0.873      208.728       41.438        0.039      345.574       23.199      859.576
06/04/2014  21:51:00     -248.048     -104.037      -13.084       59.778       79.385       39.665     3573.467     6301.928     1573.300        4.198        0.572      268.983       30.389        0.013      345.621       23.278      859.589
06/04/2014  21:52:00     -190.500      -64.144      -10.211       95.181       68.755       40.706     9059.366     4727.213     1656.976        2.797        0.772      201.009       43.617        0.047      345.718       23.447      859.607
06/04/2014  21:53:00     -204.469      -65.567       -7.846       75.153       67.924       35.077     5647.981     4613.722     1230.393        2.883        0.575      214.724       28.846        0.018      345.671       23.364      859.623
06/04/2014  21:54:00     -236.221      -94.706       -7.411       83.852       69.520       44.270     7031.191     4832.970     1959.864        3.932        0.691      254.499       44.627        0.031      345.619       23.276      859.645
06/04/2014  21:55:00     -123.103      -66.260        4.039       85.558       54.615       34.578     7320.147     2982.833     1195.645        1.553        0.575      139.802       33.832        0.059      345.596       23.239      859.641
06/04/2014  21:56:00     -189.606      -51.997        3.221       79.250       54.831       32.040     6280.612     3006.398     1026.593        2.449        0.516      196.607       34.700        0.031      345.577       23.204      859.656
06/04/2014  21:57:00     -208.961      -80.433      -10.168       82.114       77.761       43.751     6742.741     6046.785     1914.185        3.247        0.735      223.906       40.145        0.032      345.587       23.220      859.655
06/04/2014  21:58:00     -184.766      -41.481       -4.145       85.525       59.595       35.896     7314.501     3551.521     1288.514        2.401        0.608      189.365       35.417        0.035      345.535       23.132      859.656
06/04/2014  21:59:00     -204.138      -40.398        0.501      103.161       64.256       38.479    10642.266     4128.858     1480.659        2.978        0.813      208.097       43.698        0.044      345.436       22.962      859.660
06/04/2014  22:00:00     -204.527      -52.953        1.384       70.755       51.994       37.182     5006.227     2703.376     1382.499        2.686        0.455      211.270       33.130        0.025      345.486       23.048      859.662
06/04/2014  22:01:00     -177.585      -52.724        3.875       78.007       67.278       42.117     6085.068     4526.364     1773.862        2.336        0.619      185.246       32.919        0.032      345.482       23.042      859.659
06/04/2014  22:02:00     -167.626        4.758       -2.153       56.127       47.503       29.771     3150.186     2256.535      886.302        1.721        0.315      167.694       31.160        0.035      345.341       22.802      859.663
06/04/2014  22:03:00     -211.579      -31.272       -7.085       74.957       47.996       39.287     5618.495     2303.635     1543.490        2.763        0.473      213.877       44.131        0.043      345.329       22.778      859.668
06/04/2014  22:04:00     -192.100      -56.384       -0.754       75.120       52.244       36.036     5643.061     2729.408     1298.590        2.487        0.484      200.204       37.555        0.035      345.403       22.905      859.657
06/04/2014  22:05:00     -163.553      -45.833        1.982       88.902       54.066       46.255     7903.550     2923.182     2139.491        2.091        0.648      169.854       44.842        0.070      345.348       22.813      859.665
06/04/2014  22:06:00     -232.026      -38.837       -5.092       95.064       73.315       45.908     9037.168     5375.026     2107.518        3.594        0.826      235.254       50.515        0.046      345.476       23.030      859.663
06/04/2014  22:07:00     -194.245      -82.346       -5.271       74.710       60.892       39.586     5581.547     3707.873     1567.018        2.770        0.543      210.979       37.666        0.032      345.473       23.025      859.661
06/04/2014  22:08:00     -176.306      -41.086       -7.652       79.065       59.162       32.083     6251.231     3500.133     1029.313        2.180        0.539      181.030       34.056        0.035      345.459       23.001      859.673
06/04/2014  22:09:00     -184.191      -64.261        1.901       64.089       52.793       34.125     4107.349     2787.115     1164.546        2.306        0.403      195.079       34.213        0.031      345.454       22.994      859.668
06/04/2014  22:10:00     -199.688      -42.340       -9.242       82.556       41.952       28.129     6815.531     1760.000      791.252        2.556        0.468      204.127       30.105        0.022      345.536       23.134      859.675
06/04/2014  22:11:00     -162.525      -36.705        2.709       86.327       64.045       35.851     7452.338     4101.790     1285.290        2.030        0.642      166.618       38.856        0.054      345.438       22.967      859.679
06/04/2014  22:12:00     -159.984      -71.716        0.531       66.401       52.081       28.266     4409.112     2712.480      798.994        1.933        0.396      175.323       35.896        0.042      345.561       23.178      859.669
06/04/2014  22:13:00      -86.975      -27.407        4.398       41.481       45.384       28.588     1720.709     2059.664      817.284        0.647        0.230       91.191       24.382        0.071      345.443       22.976      859.674
06/04/2014  22:14:00     -140.871      -47.253       -3.250       53.855       41.097       23.892     2900.382     1688.938      570.839        1.362        0.258      148.585       19.795        0.018      345.403       22.907      859.673
06/04/2014  22:15:00     -148.810      -88.750       -0.225       43.110       42.280       29.403     1858.473     1787.602      864.540        1.726        0.226      173.266       24.929        0.021      345.394       22.892      859.682
06/04/2014  22:16:00     -115.477      -50.179       12.060       66.960       46.695       33.086     4483.625     2180.463     1094.657        1.188        0.388      125.908       40.017        0.101      345.243       22.635      859.699
06/04/2014  22:17:00     -134.424      -41.464        6.617       59.252       39.168       27.003     3510.828     1534.170      729.164        1.280        0.289      140.674       29.833        0.045      345.314       22.755      859.705
06/04/2014  22:18:00     -114.461      -24.324       -2.497       56.078       35.870       22.926     3144.750     1286.665      525.618        0.933        0.248      117.017       24.686        0.045      345.261       22.665      859.707
06/04/2014  22:19:00      -99.729      -26.336        3.932       52.081       46.228       21.587     2712.441     2137.008      466.015        0.798        0.266      103.148       21.517        0.044      345.122       22.427      859.713
06/04/2014  22:20:00     -175.632       -4.579      -15.631       38.755       35.516       23.625     1501.971     1261.416      558.149        1.722        0.166      175.692       19.673        0.013      344.950       22.132      859.711
06/04/2014  22:21:00     -174.167      -75.958       -4.878       38.600       44.024       26.083     1489.925     1938.081      680.312        2.012        0.205      190.010       17.403        0.008      344.811       21.893      859.706
06/04/2014  22:22:00     -145.351      -15.785       -4.838       62.057       45.112       33.232     3851.012     2035.077     1104.358        1.419        0.350      146.206       37.872        0.067      344.773       21.828      859.708
06/04/2014  22:23:00     -133.390      -52.403        8.416       62.049       47.414       30.267     3850.060     2248.079      916.115        1.381        0.351      143.314       28.004        0.038      344.873       22.000      859.691
06/04/2014  22:24:00     -162.521      -62.269       -7.932       44.115       48.348       25.713     1946.149     2337.483      661.148        1.765        0.247      174.042       18.897        0.012      344.974       22.172      859.687
06/04/2014  22:25:00     -173.156      -71.354       -3.872       60.518       47.988       30.511     3662.488     2302.862      930.926        2.099        0.345      187.282       33.131        0.031      345.072       22.340      859.680
06/04/2014  22:26:00     -195.556      -64.277       -0.070       72.717       55.319       40.841     5287.803     3060.167     1667.958        2.619        0.501      205.849       32.452        0.025      345.119       22.419      859.657
06/04/2014  22:27:00     -217.762      -62.536        1.463       49.858       46.347       31.558     2485.857     2148.070      995.908        2.848        0.281      226.564       26.039        0.013      345.160       22.488      859.646
06/04/2014  22:28:00     -184.609      -55.785       -1.800       65.655       54.707       32.762     4310.644     2992.807     1073.378        2.278        0.419      192.853       35.916        0.035      345.083       22.360      859.652
06/04/2014  22:29:00     -157.990      -44.961       -3.114       51.523       46.659       30.140     2654.569     2177.105      908.423        1.636        0.287      164.263       28.198        0.029      345.026       22.261      859.647
06/04/2014  22:30:00     -206.930      -34.506        3.308       63.609       61.068       32.719     4046.082     3729.343     1070.516        2.643        0.442      209.787       33.330        0.025      345.088       22.366      859.651
06/04/2014  22:31:00     -239.306      -76.761       -6.864       76.289       53.655       31.683     5819.999     2878.857     1003.832        3.645        0.485      251.316       38.188        0.023      345.105       22.392      859.666
06/04/2014  22:32:00     -154.524      -63.531       -0.674       70.039       63.433       37.266     4905.498     4023.799     1388.732        1.911        0.516      167.074       39.656        0.056      345.061       22.321      859.665
06/04/2014  22:33:00     -189.889      -69.458       -8.902       68.714       62.358       33.438     4721.573     3888.543     1118.077        2.534        0.486      202.193       27.857        0.019      345.115       22.411      859.663
06/04/2014  22:34:00     -211.753     -106.911       -1.775       80.119       71.539       37.078     6419.054     5117.842     1374.752        3.459        0.646      237.211       31.926        0.018      345.247       22.637      859.664
06/04/2014  22:35:00     -242.808      -80.181      -14.757       69.631       65.527       34.766     4848.455     4293.725     1208.643        3.797        0.518      255.704       28.322        0.012      345.327       22.774      859.655
06/04/2014  22:36:00     -236.194      -51.525        5.813       71.506       60.556       41.977     5113.076     3667.070     1762.052        3.451        0.527      241.748       43.241        0.032      345.301       22.731      859.649
06/04/2014  22:37:00     -152.170      -56.387        5.368       84.276       47.414       38.780     7102.451     2248.101     1503.907        1.861        0.543      162.281       43.843        0.073      345.310       22.745      859.656
06/04/2014  22:38:00     -157.950      -75.274       -4.619       63.328       50.700       27.503     4010.459     2570.523      756.419        1.899        0.367      174.969       23.616        0.018      345.261       22.663      859.654
06/04/2014  22:39:00     -162.588      -59.337       -1.189       91.550       76.815       44.796     8381.338     5900.496     2006.669        2.312        0.814      173.077       45.275        0.068      345.214       22.583      859.650
06/04/2014  22:40:00     -207.056      -94.456       -1.263       63.530       52.935       34.268     4036.101     2802.087     1174.289        2.990        0.401      227.584       32.449        0.020      345.199       22.557      859.663
06/04/2014  22:41:00     -201.627      -84.755      -11.023       64.969       44.684       32.976     4220.917     1996.627     1087.392        2.763        0.365      218.717       39.203        0.032      345.206       22.566      859.664
06/04/2014  22:42:00     -102.314      -55.568        5.181       72.631       54.489       33.852     5275.252     2969.074     1145.974        1.148        0.470      116.430       35.460        0.093      345.089       22.370      859.660
06/04/2014  22:43:00     -131.876      -41.397        1.613       64.106       66.141       39.439     4109.599     4374.643     1555.441        1.457        0.502      138.221       42.971        0.097      345.100       22.388      859.655
06/04/2014  22:44:00     -143.239      -29.257        3.685       71.929       41.248       34.871     5173.762     1701.368     1215.974        1.474        0.405      146.196       35.977        0.061      345.051       22.305      859.664
06/04/2014  22:45:00     -246.285      -65.338       -2.406       86.217       72.304       40.220     7433.415     5227.847     1617.626        3.960        0.714      254.805       37.452        0.022      345.147       22.466      859.655
06/04/2014  22:46:00     -211.548      -23.558       -0.360       89.985       66.158       43.840     8097.332     4376.915     1921.966        2.985        0.720      212.856       52.868        0.062      345.211       22.576      859.655
06/04/2014  22:47:00     -241.221      -50.491       -4.929       89.642       62.785       46.129     8035.651     3941.909     2127.860        3.743        0.705      246.448       48.945        0.039      345.180       22.522      859.668
06/04/2014  22:48:00     -261.587      -58.742       -8.124      101.572       79.619       49.522    10316.786     6339.117     2452.417        4.552        0.955      268.101       50.742        0.036      345.223       22.595      859.668
06/04/2014  22:49:00     -238.079      -78.918      -15.782       90.341       60.220       38.122     8161.560     3626.402     1453.272        3.820        0.662      250.818       41.484        0.027      345.306       22.738      859.665
06/04/2014  22:50:00     -151.101       -9.883        4.347       73.531       72.485       40.181     5406.775     5254.139     1614.499        1.761        0.614      151.424       38.395        0.064      345.249       22.642      859.665
06/04/2014  22:51:00     -237.705      -66.871      -20.138       84.508       68.133       38.932     7141.570     4642.118     1515.733        3.734        0.665      246.932       41.847        0.029      345.395       22.891      859.666
06/04/2014  22:52:00     -200.749      -47.906        3.356      118.474       72.006       52.377    14036.036     5184.915     2743.402        3.228        1.098      206.386       54.602        0.070      345.356       22.826      859.660
06/04/2014  22:53:00     -155.314      -87.306        4.865       95.630       74.262       46.893     9145.128     5514.828     2198.938        2.431        0.843      178.171       45.130        0.064      345.414       22.925      859.670
06/04/2014  22:54:00     -166.616      -22.935       -2.168       58.459       56.931       32.036     3417.436     3241.082     1026.306        1.799        0.384      168.187       28.768        0.029      345.463       23.009      859.671
06/04/2014  22:55:00     -206.424      -29.606      -15.828       51.681       57.994       33.255     2670.913     3363.349     1105.883        2.544        0.357      208.537       21.698        0.011      345.405       22.908      859.680
06/04/2014  22:56:00     -262.717      -56.646      -28.291       64.156       57.145       36.654     4115.977     3265.567     1343.547        4.088        0.436      268.754       30.164        0.013      345.502       23.073      859.684
06/04/2014  22:57:00     -187.682      -53.357      -17.719       66.013       54.175       31.488     4357.715     2934.973      991.469        2.333        0.414      195.119       36.897        0.036      345.408       22.913      859.679
06/04/2014  22:58:00     -152.431      -54.011       -4.461       53.961       42.801       30.293     2911.812     1831.902      917.661        1.592        0.283      161.717       30.919        0.037      345.348       22.814      859.675
06/04/2014  22:59:00     -192.828      -70.488       -1.107       89.661       67.764       47.553     8039.124     4591.931     2261.327        2.852        0.745      205.308       48.781        0.056      345.397       22.896      859.671
06/04/2014  23:00:00     -197.753      -79.203       -7.412       80.424       65.994       35.859     6467.941     4355.244     1285.853        2.877        0.605      213.025       37.076        0.030      345.484       23.043      859.675
06/04/2014  23:01:00     -165.469      -42.712       -3.302       64.915       71.515       43.805     4213.980     5114.397     1918.859        2.023        0.562      170.892       39.836        0.054      345.419       22.934      859.671
06/04/2014  23:02:00     -215.341      -49.679       -1.913       72.526       55.353       39.801     5260.029     3063.911     1584.111        2.937        0.495      220.997       39.939        0.033      345.435       22.961      859.667
06/04/2014  23:03:00     -253.912      -36.478       -7.721      105.648       70.894       45.339    11161.579     5025.999     2055.657        4.205        0.912      256.519       50.317        0.038      345.504       23.078      859.671
06/04/2014  23:04:00     -203.024      -76.075       -5.010       75.807       62.113       36.763     5746.653     3857.977     1351.550        2.899        0.548      216.809       33.131        0.023      345.401       22.901      859.668
06/04/2014  23:05:00     -153.527      -31.720       -0.878      103.501       64.756       41.977    10712.417     4193.311     1762.028        2.062        0.833      156.769       44.542        0.081      345.312       22.752      859.665
06/04/2014  23:06:00     -190.816      -64.632        4.612       73.090       55.358       38.232     5342.199     3064.454     1461.699        2.524        0.493      201.465       32.559        0.026      345.374       22.855      859.664
06/04/2014  23:07:00     -187.289      -37.716      -11.328       84.955       64.982       39.206     7217.311     4222.647     1537.112        2.480        0.649      191.049       42.022        0.048      345.384       22.873      859.666
06/04/2014  23:08:00     -180.958       -4.328       -5.726       75.226       64.680       40.639     5659.024     4183.490     1651.490        2.214        0.575      181.010       36.266        0.040      345.426       22.945      859.674
06/04/2014  23:09:00     -113.559      -39.638       -5.642       50.847       50.834       37.002     2585.426     2584.078     1369.157        1.052        0.327      120.278       32.991        0.075      345.353       22.823      859.671
06/04/2014  23:10:00     -114.530      -24.681       -2.509       50.223       48.590       25.559     2522.381     2360.944      653.277        0.963        0.277      117.159       25.875        0.049      345.269       22.677      859.664
06/04/2014  23:11:00      -77.444       -8.220        0.944       22.952       23.355       16.219      526.785      545.464      263.064        0.370        0.067       77.879       12.490        0.026      345.423       22.942      859.659
06/04/2014  23:12:00      -31.161        5.202       12.953       55.632       20.500       24.975     3094.969      420.232      623.738        0.265        0.207       31.592       25.593        0.656      345.189       22.542      859.665
06/04/2014  23:13:00      -89.431       20.797      -11.277       26.267       27.960       19.611      689.937      781.767      384.608        0.521        0.093       91.817       11.155        0.015      345.352       22.820      859.659
06/04/2014  23:14:00      -37.057      -21.423        0.115       31.227       47.277       20.381      975.148     2235.140      415.391        0.273        0.181       42.804       14.443        0.114      345.198       22.556      859.650
06/04/2014  23:15:00       15.336        5.849        2.530       22.547       21.870       14.939      508.355      478.311      223.163        0.074        0.060       16.414       10.447        0.405      344.392       21.178      859.644
06/04/2014  23:16:00       17.140        3.070        7.440       29.284       19.201       21.465      857.555      368.677      460.727        0.102        0.084       17.413       10.340        0.353      343.880       20.303      859.653
06/04/2014  23:17:00       15.502       -3.409        3.837       19.377       18.084       12.251      375.484      327.044      150.092        0.056        0.043       15.873        6.296        0.157      343.881       20.305      859.650
06/04/2014  23:18:00      -37.004      -24.434        0.747       23.384       18.185       11.374      546.807      330.678      129.365        0.149        0.050       44.343        9.953        0.050      344.869       21.996      859.666
06/04/2014  23:19:00       -3.493      -18.786        9.443       19.883       18.126       14.191      395.322      328.557      201.381        0.069        0.046       19.108       15.846        0.688      344.538       21.429      859.667
06/04/2014  23:20:00       37.356      -12.395       23.910       33.968       26.412       20.184     1153.812      697.583      407.382        0.219        0.113       39.359       18.438        0.219      344.095       20.670      859.684
06/04/2014  23:21:00       52.076        0.824       14.121       46.223       32.295       26.029     2136.525     1042.958      677.527        0.338        0.193       52.083       28.056        0.290      343.743       20.069      859.679
06/04/2014  23:22:00        3.538       -2.234       19.479       23.535       23.140       19.835      553.913      535.457      393.444        0.094        0.074        4.184       17.709       17.916      343.807       20.178      859.691
06/04/2014  23:23:00       10.087        3.538       34.459       24.987       49.328       21.514      624.358     2433.268      462.863        0.241        0.176       10.690       27.470        6.604      344.331       21.074      859.699
06/04/2014  23:24:00       63.650       -4.353       22.196       34.054       28.061       31.087     1159.641      787.428      966.423        0.374        0.146       63.799       23.904        0.140      343.883       20.309      859.723
06/04/2014  23:25:00       33.903       -3.609       10.427       24.684       17.199       17.283      609.296      295.823      298.711        0.124        0.060       34.094       10.953        0.103      344.096       20.672      859.739
06/04/2014  23:26:00       39.898        5.598       16.555       23.272       18.744       21.011      541.588      351.349      441.454        0.162        0.067       40.289       12.430        0.095      343.946       20.416      859.747
06/04/2014  23:27:00       60.221       -5.830        6.026       26.724       15.710       18.824      714.194      246.801      354.341        0.251        0.066       60.503        9.541        0.025      344.296       21.015      859.760
06/04/2014  23:28:00       72.195      -19.938        9.288       21.123       20.175       21.605      446.182      407.019      466.795        0.351        0.066       74.898        9.244        0.015      344.059       20.609      859.762
06/04/2014  23:29:00       57.118       -1.472       17.617       43.729       30.837       23.913     1912.241      950.917      571.822        0.350        0.172       57.137       21.440        0.141      343.909       20.352      859.765
06/04/2014  23:30:00        5.822        7.122       13.476       35.688       20.060       22.390     1273.630      402.395      501.328        0.122        0.109        9.198       16.814        3.341      344.001       20.509      859.775
06/04/2014  23:31:00       57.960       29.457       15.084       42.269       33.395       22.085     1786.636     1115.215      487.749        0.392        0.169       65.016       20.957        0.104      343.866       20.279      859.787
06/04/2014  23:32:00       67.943      -21.275        3.070       29.912       38.779       32.706      894.733     1503.788     1069.688        0.427        0.173       71.196       24.684        0.120      343.631       19.879      859.784
06/04/2014  23:33:00       21.379      -23.447       21.766       21.025       32.335       27.429      442.047     1045.521      752.324        0.186        0.112       31.730       22.498        0.503      343.529       19.704      859.760
06/04/2014  23:34:00        2.244        0.375        5.722       28.063       45.336       32.034      787.554     2055.343     1026.165        0.195        0.193        2.275       28.011      151.616      343.486       19.632      859.745
06/04/2014  23:35:00       -5.548       30.456       35.182       24.759       34.417       26.129      613.023     1184.508      682.712        0.234        0.124       30.957       21.942        0.502      343.706       20.007      859.739
06/04/2014  23:36:00      -23.924      -13.839       17.159       30.935       42.653       31.300      956.946     1819.295      979.700        0.241        0.188       27.638       33.668        1.484      343.676       19.954      859.752
06/04/2014  23:37:00        4.179      -36.816      -12.280       31.638       26.689       13.550     1000.965      712.307      183.613        0.171        0.095       37.052        6.182        0.028      343.599       19.825      859.753
06/04/2014  23:38:00        3.245      -24.967       -2.619       30.020       25.942       16.684      901.230      673.008      278.366        0.125        0.093       25.177        8.142        0.105      343.392       19.471      859.744
06/04/2014  23:39:00      -45.967      -35.775       -3.635       25.602       14.254        9.961      655.472      203.178       99.223        0.218        0.048       58.248       11.440        0.039      343.925       20.381      859.762
06/04/2014  23:40:00       -7.123      -18.674        6.641       60.735       21.465       16.833     3688.798      460.759      283.355        0.244        0.222       19.987       25.260        1.597      344.066       20.621      859.768
06/04/2014  23:41:00       68.746       22.490       17.038       26.416       31.883       27.239      697.820     1016.528      741.937        0.399        0.123       72.331       15.692        0.047      343.330       19.365      859.749
06/04/2014  23:42:00       16.160       47.879       47.556       38.113       37.268       30.393     1452.634     1388.934      923.732        0.429        0.188       50.532       26.539        0.276      343.701       19.999      859.728
06/04/2014  23:43:00      -14.002      -51.926       -7.884       26.213       38.089       26.147      687.132     1450.807      683.667        0.289        0.141       53.781       12.968        0.058      343.514       19.678      859.745
06/04/2014  23:44:00      -47.230       -3.100      -10.883       31.332       19.647        9.954      981.665      386.008       99.074        0.191        0.073       47.331        8.185        0.030      343.773       20.122      859.775
06/04/2014  23:45:00      -64.457      -11.278       -9.546       13.466       10.546       10.726      181.334      111.208      115.056        0.239        0.020       65.436        6.003        0.008      343.875       20.295      859.786
06/04/2014  23:46:00       -4.163       10.702        9.899       21.564       14.890       11.653      465.017      221.703      135.788        0.053        0.041       11.483       12.167        1.123      343.652       19.914      859.805
06/04/2014  23:47:00       63.974      -35.794        6.466       24.846       30.277       23.681      617.333      916.718      560.768        0.375        0.105       73.307       12.584        0.029      343.130       19.026      859.798
06/04/2014  23:48:00       55.147        2.808       -0.917       23.618       35.300       24.020      557.815     1246.096      576.942        0.271        0.119       55.219       10.704        0.038      343.188       19.126      859.801
06/04/2014  23:49:00       55.800       30.992       26.296       20.429       26.869       25.474      417.363      721.927      648.901        0.328        0.089       63.829        9.739        0.023      343.333       19.371      859.807
06/04/2014  23:50:00       75.088       69.363       32.434       28.630       31.962       29.765      819.655     1021.601      885.955        0.711        0.136      102.223       17.105        0.028      343.351       19.401      859.787
06/04/2014  23:51:00      108.551       76.169       35.202       35.181       27.787       38.019     1237.711      772.108     1445.454        1.114        0.173      132.609       15.472        0.014      343.653       19.915      859.775
06/04/2014  23:52:00       65.952       59.010       61.047       43.929       35.580       34.878     1929.718     1265.925     1216.444        0.798        0.221       88.497       30.702        0.120      343.594       19.815      859.767
06/04/2014  23:53:00      -19.535        4.553       15.810       30.344       33.229       23.019      920.781     1104.167      529.858        0.160        0.128       20.059       18.636        0.863      343.512       19.676      859.777
06/04/2014  23:54:00      -18.705      -19.642        1.397       27.712       37.768       15.134      767.934     1426.426      229.028        0.158        0.121       27.123        9.555        0.124      343.285       19.290      859.793
06/04/2014  23:55:00       10.062       -2.268       -4.127       35.501       30.281       19.691     1260.328      916.944      387.728        0.134        0.128       10.315       14.159        1.884      343.369       19.432      859.797
06/04/2014  23:56:00       30.330      -20.297       -2.646       14.505       20.319       18.379      210.401      412.873      337.797        0.115        0.048       36.495        9.096        0.062      343.045       18.880      859.807
06/04/2014  23:57:00       27.636       33.536       10.466       27.967       33.317       27.607      782.132     1110.052      762.147        0.233        0.133       43.456       16.540        0.145      343.251       19.230      859.804
06/04/2014  23:58:00       27.794       25.668        9.918       26.786       26.826       24.682      717.468      719.625      609.178        0.179        0.102       37.833       17.495        0.214      343.460       19.588      859.809
06/04/2014  23:59:00       25.551       -0.530       -8.573       15.161       15.778       12.535      229.844      248.931      157.131        0.068        0.032       25.556        5.867        0.053      343.474       19.611      859.820
